[[{"header":{"parameterUnit":"m.s-1","parameterCategory":1,"la1":31.0,"la2":29.5877,"lo1":-88.7671,"lo2":-86.6584,"dy":0.0162,"dx":0.0185,"nx":115,"ny":88,"refTime":"2026-05-12T12:00:00:Z","depth":0,"parameterNumber":2,"parameterNumberName":"U-component_of_WINDS"},"data":[0.0,0.0,0.0,0.0,0.0,0.0,0.0,0.0,0.0,0.0,0.0,0.0,0.0,0.0,0.0,0.0,0.0,0.0,0.0,0.0,0.0,0.0,0.0,0.0,0.0,0.0,0.0,0.0,0.0,0.0,0.0,0.0,0.0,0.0,0.0,0.0,0.0,0.0,0.0,0.0,0.0,0.0,0.0,0.0,0.0,0.0,0.0,0.0,0.0,0.0,0.0,0.0,0.0,0.0,0.0,0.0,0.0,0.0,0.0,0.0,0.0,0.0,0.0,0.0,0.0,0.0,0.0,0.0,0.0,0.0,0.0,0.0,0.0,0.0,0.0,0.0,0.0,0.0,0.0,0.0,0.0,0.0,0.0,0.0,0.0,0.0,0.0,0.0,0.0,0.0,0.0,0.0,0.0,0.0,0.0,0.0,0.0,0.0,0.0,0.0,0.0,0.0,0.0,0.0,0.0,0.0,0.0,0.0,0.0,0.0,0.0,0.0,0.0,0.0,0.0,0.0,0.0,0.0,0.0,0.0,0.0,0.0,0.0,0.0,0.0,0.0,0.0,0.0,0.0,0.0,0.0,0.0,0.0,0.0,0.0,0.0,0.0,0.0,0.0,0.0,0.0,0.0,0.0,0.0,0.0,0.0,0.0,0.0,0.0,0.0,0.0,0.0,0.0,0.0,0.0,0.0,0.0,0.0,0.0,0.0,0.0,0.0,0.0,0.0,0.0,0.0,0.0,0.0,0.0,0.0,0.0,0.0,0.0,0.0,0.0,0.0,0.0,0.0,0.0,0.0,0.0,0.0,0.0,0.0,0.0,0.0,0.0,0.0,0.0,0.0,0.0,0.0,0.0,0.0,0.0,0.0,0.0,0.0,0.0,0.0,0.0,0.0,0.0,0.0,0.0,0.0,0.0,0.0,0.0,0.0,0.0,0.0,0.0,0.0,0.0,0.0,0.0,0.0,0.0,0.0,0.0,0.0,0.0,0.0,0.0,0.0,0.0,0.0,0.0,0.0,0.0,0.0,0.0,0.0,0.0,0.0,0.0,0.0,0.0,0.0,0.0,0.0,0.0,0.0,0.0,0.0,0.0,0.0,0.0,0.0,0.0,0.0,0.0,0.0,0.0,0.0,0.0,0.0,0.0,0.0,0.0,0.0,0.0,0.0,0.0,0.0,0.0,0.0,0.0,0.0,0.0,0.0,0.0,0.0,0.0,0.0,0.0,0.0,0.0,0.0,0.0,0.0,0.0,0.0,0.0,0.0,0.0,0.0,0.0,0.0,0.0,0.0,0.0,0.0,0.0,0.0,0.0,0.0,0.0,0.0,0.0,0.0,0.0,0.0,0.0,0.0,0.0,0.0,0.0,0.0,0.0,0.0,0.0,0.0,0.0,0.0,0.0,0.0,0.0,0.0,0.0,0.0,0.0,0.0,0.0,0.0,0.0,0.0,0.0,0.0,0.0,0.0,0.0,0.0,0.0,0.0,0.0,0.0,0.0,0.0,0.0,0.0,0.0,0.0,0.0,0.0,0.0,0.0,0.0,0.0,0.0,0.0,0.0,0.0,0.0,0.0,0.0,0.0,0.0,0.0,0.0,0.0,0.0,0.0,0.0,0.0,0.0,0.0,0.0,0.0,0.0,0.0,0.0,0.0,0.0,0.0,0.0,0.0,0.0,0.0,0.0,0.0,0.0,0.0,0.0,0.0,0.0,0.0,0.0,0.0,0.0,0.0,0.0,0.0,0.0,0.0,0.0,0.0,0.0,0.0,0.0,0.0,0.0,0.0,0.0,0.0,0.0,0.0,0.0,0.0,0.0,0.0,0.0,0.0,0.0,0.0,0.0,0.0,0.0,0.0,0.0,0.0,0.0,0.0,0.0,0.0,0.0,0.0,0.0,0.0,0.0,0.0,0.0,0.0,0.0,0.0,0.0,0.0,0.0,0.0,0.0,0.0,0.0,0.0,0.0,0.0,0.0,0.0,0.0,0.0,0.0,0.0,0.0,0.0,0.0,0.0,0.0,0.0,0.0,0.0,0.0,0.0,0.0,0.0,0.0,0.0,0.0,0.0,0.0,0.0,0.0,0.0,0.0,0.0,0.0,0.0,0.0,0.0,0.0,0.0,0.0,0.0,0.0,0.0,0.0,0.0,0.0,0.0,0.0,0.0,0.0,0.0,0.0,0.0,0.0,0.0,0.0,0.0,0.0,0.0,0.0,0.0,0.0,0.0,0.0,0.0,0.0,0.0,0.0,0.0,0.0,0.0,0.0,0.0,0.0,0.0,0.0,0.0,0.0,0.0,0.0,0.0,0.0,0.0,0.0,0.0,0.0,0.0,0.0,0.0,0.0,0.0,0.0,0.0,0.0,0.0,0.0,0.0,0.0,0.0,0.0,0.0,0.0,0.0,0.0,0.0,0.0,0.0,0.0,0.0,0.0,0.0,0.0,0.0,0.0,0.0,0.0,0.0,0.0,0.0,0.0,0.0,0.0,0.0,0.0,0.0,0.0,0.0,0.0,0.0,0.0,0.0,0.0,0.0,0.0,0.0,0.0,0.0,0.0,0.0,0.0,0.0,0.0,0.0,0.0,0.0,0.0,0.0,0.0,0.0,0.0,0.0,0.0,0.0,0.0,0.0,0.0,0.0,0.0,0.0,0.0,0.0,0.0,0.0,0.0,0.0,0.0,0.0,0.0,0.0,0.0,0.0,0.0,0.0,0.0,0.0,0.0,0.0,0.0,0.0,0.0,0.0,0.0,0.0,0.0,0.0,0.0,0.0,0.0,0.0,0.0,0.0,0.0,0.0,0.0,0.0,0.0,0.0,0.0,0.0,0.0,0.0,0.0,0.0,0.0,0.0,0.0,0.0,0.0,0.0,0.0,0.0,0.0,0.0,0.0,0.0,0.0,0.0,0.0,0.0,0.0,0.0,0.0,0.0,0.0,0.0,0.0,0.0,0.0,0.0,0.0,0.0,0.0,0.0,0.0,0.0,0.0,0.0,0.0,0.0,0.0,0.0,0.0,0.0,0.0,0.0,0.0,0.0,0.0,0.0,0.0,0.0,0.0,0.0,0.0,0.0,0.0,0.0,0.0,0.0,0.0,0.0,0.0,0.0,0.0,0.0,0.0,0.0,0.0,0.0,0.0,0.0,0.0,0.0,0.0,0.0,0.0,0.0,0.0,0.0,0.0,0.0,0.0,0.0,0.0,0.0,0.0,0.0,0.0,0.0,0.0,0.0,0.0,0.0,0.0,0.0,0.0,0.0,0.0,0.0,0.0,0.0,0.0,0.0,0.0,0.0,0.0,0.0,0.0,0.0,0.0,0.0,0.0,0.0,0.0,0.0,0.0,0.0,0.0,0.0,0.0,0.0,0.0,0.0,0.0,0.0,0.0,0.0,0.0,0.0,0.0,0.0,0.0,0.0,0.0,0.0,0.0,0.0,0.0,0.0,0.0,0.0,0.0,0.0,0.0,0.0,0.0,0.0,0.0,0.0,0.0,0.0,0.0,0.0,0.0,0.0,0.0,0.0,0.0,0.0,0.0,0.0,0.0,0.0,0.0,0.0,0.0,0.0,0.0,0.0,0.0,0.0,0.0,0.0,0.0,0.0,0.0,0.0,0.0,0.0,0.0,0.0,0.0,0.0,0.0,0.0,0.0,0.0,0.0,0.0,0.0,0.0,0.0,0.0,0.0,0.0,0.0,0.0,0.0,0.0,0.0,0.0,0.0,0.0,0.0,0.0,0.0,0.0,0.0,0.0,0.0,0.0,0.0,0.0,0.0,0.0,0.0,0.0,0.0,0.0,0.0,0.0,0.0,0.0,0.0,0.0,0.0,0.0,0.0,0.0,0.0,0.0,0.0,0.0,0.0,0.0,0.0,0.0,0.0,0.0,0.0,0.0,0.0,0.0,0.0,0.0,0.0,0.0,0.0,0.0,0.0,0.0,0.0,0.0,0.0,0.0,0.0,0.0,0.0,0.0,0.0,0.0,0.0,0.0,0.0,0.0,0.0,0.0,0.0,0.0,0.0,0.0,0.0,0.0,0.0,0.0,0.0,0.0,0.0,0.0,0.0,0.0,0.0,0.0,0.0,0.0,0.0,0.0,0.0,0.0,0.0,0.0,0.0,0.0,0.0,0.0,0.0,0.0,0.0,0.0,0.0,0.0,0.0,0.0,0.0,0.0,0.0,0.0,0.0,0.0,0.0,0.0,0.0,0.0,0.0,0.0,0.0,0.0,0.0,0.0,0.0,0.0,0.0,0.0,0.0,0.0,-1.509,0.0,0.0,0.0,0.0,0.0,0.0,0.0,0.0,0.0,0.0,0.0,0.0,0.0,0.0,0.0,0.0,0.0,0.0,0.0,0.0,0.0,0.0,0.0,0.0,0.0,0.0,0.0,0.0,0.0,0.0,0.0,0.0,0.0,0.0,0.0,0.0,0.0,0.0,0.0,0.0,0.0,0.0,0.0,0.0,0.0,0.0,0.0,0.0,0.0,0.0,0.0,0.0,0.0,0.0,0.0,0.0,0.0,0.0,0.0,0.0,0.0,0.0,0.0,0.0,0.0,0.0,0.0,0.0,0.0,0.0,0.0,0.0,0.0,0.0,0.0,0.0,0.0,0.0,0.0,0.0,0.0,0.0,0.0,0.0,0.0,0.0,0.0,0.0,0.0,0.0,0.0,0.0,0.0,0.0,0.0,0.0,0.0,0.0,0.0,0.0,0.0,0.0,0.0,0.0,0.0,0.0,0.0,0.0,0.0,0.0,-1.8927,-1.8122,-1.776,-1.7013,-1.5795,0.0,0.0,0.0,0.0,0.0,0.0,0.0,0.0,0.0,0.0,0.0,0.0,0.0,0.0,0.0,0.0,0.0,0.0,0.0,0.0,0.0,0.0,0.0,0.0,0.0,0.0,0.0,0.0,0.0,0.0,0.0,0.0,0.0,0.0,0.0,0.0,0.0,0.0,0.0,0.0,0.0,0.0,0.0,0.0,0.0,0.0,0.0,0.0,0.0,0.0,0.0,0.0,0.0,0.0,0.0,0.0,0.0,0.0,0.0,0.0,0.0,0.0,0.0,0.0,0.0,0.0,0.0,0.0,0.0,0.0,0.0,0.0,0.0,0.0,0.0,0.0,0.0,0.0,0.0,0.0,0.0,0.0,0.0,0.0,0.0,0.0,0.0,0.0,0.0,0.0,0.0,0.0,0.0,0.0,0.0,0.0,0.0,0.0,0.0,0.0,0.0,0.0,0.0,0.0,0.0,0.0,0.0,0.0,0.0,0.0,0.0,0.0,-1.8416,-1.7471,-1.6256,0.0,0.0,0.0,0.0,0.0,0.0,0.0,0.0,0.0,0.0,0.0,0.0,0.0,0.0,0.0,0.0,0.0,0.0,0.0,0.0,0.0,0.0,0.0,0.0,0.0,0.0,0.0,0.0,0.0,0.0,0.0,0.0,0.0,0.0,0.0,0.0,0.0,0.0,0.0,0.0,0.0,0.0,0.0,0.0,0.0,0.0,0.0,0.0,0.0,0.0,0.0,0.0,0.0,0.0,0.0,0.0,0.0,0.0,0.0,0.0,0.0,0.0,0.0,0.0,0.0,0.0,0.0,0.0,0.0,0.0,0.0,0.0,0.0,0.0,0.0,0.0,0.0,0.0,0.0,0.0,0.0,0.0,0.0,0.0,0.0,0.0,0.0,0.0,0.0,0.0,0.0,0.0,0.0,0.0,0.0,0.0,0.0,0.0,0.0,0.0,0.0,0.0,0.0,0.0,0.0,0.0,0.0,0.0,0.0,0.0,-1.9497,-1.9002,-1.8351,0.0,-1.6288,0.0,0.0,0.0,0.0,0.0,0.0,0.0,0.0,0.0,0.0,0.0,0.0,0.0,0.0,0.0,0.0,0.0,0.0,0.0,0.0,0.0,0.0,0.0,0.0,0.0,0.0,0.0,0.0,0.0,0.0,0.0,0.0,0.0,0.0,0.0,0.0,0.0,0.0,0.0,0.0,0.0,0.0,0.0,0.0,0.0,0.0,0.0,0.0,0.0,0.0,0.0,0.0,0.0,0.0,0.0,0.0,0.0,0.0,0.0,0.0,0.0,0.0,0.0,0.0,0.0,0.0,0.0,0.0,0.0,0.0,0.0,0.0,0.0,0.0,0.0,0.0,0.0,0.0,0.0,0.0,0.0,0.0,0.0,0.0,0.0,0.0,0.0,0.0,0.0,0.0,0.0,0.0,0.0,0.0,0.0,0.0,0.0,0.0,0.0,0.0,0.0,0.0,0.0,0.0,0.0,0.0,0.0,0.0,0.0,0.0,-1.9713,-1.9596,-1.863,-1.7502,0.0,0.0,0.0,0.0,0.0,0.0,0.0,0.0,0.0,0.0,0.0,0.0,0.0,0.0,0.0,0.0,0.0,0.0,0.0,0.0,0.0,0.0,0.0,0.0,0.0,0.0,0.0,0.0,0.0,0.0,0.0,0.0,0.0,0.0,0.0,0.0,0.0,0.0,0.0,0.0,0.0,0.0,0.0,0.0,0.0,0.0,0.0,0.0,0.0,0.0,0.0,0.0,0.0,0.0,0.0,0.0,0.0,0.0,0.0,0.0,0.0,0.0,0.0,0.0,0.0,0.0,0.0,0.0,0.0,0.0,0.0,0.0,0.0,0.0,0.0,0.0,0.0,0.0,0.0,0.0,0.0,0.0,0.0,0.0,0.0,0.0,0.0,0.0,0.0,0.0,0.0,0.0,0.0,0.0,0.0,0.0,0.0,0.0,0.0,0.0,0.0,0.0,0.0,0.0,0.0,0.0,0.0,0.0,0.0,0.0,-1.978,-1.9793,-1.9689,-1.8741,-1.7669,-1.6502,0.0,0.0,0.0,0.0,0.0,0.0,0.0,0.0,0.0,0.0,0.0,0.0,0.0,0.0,0.0,0.0,0.0,0.0,0.0,0.0,0.0,0.0,0.0,0.0,0.0,0.0,0.0,0.0,0.0,0.0,0.0,0.0,0.0,0.0,0.0,0.0,0.0,0.0,0.0,0.0,0.0,0.0,0.0,0.0,0.0,0.0,0.0,0.0,0.0,0.0,0.0,0.0,0.0,0.0,0.0,0.0,0.0,0.0,0.0,0.0,0.0,0.0,0.0,0.0,0.0,0.0,0.0,0.0,0.0,0.0,0.0,0.0,0.0,0.0,0.0,0.0,0.0,0.0,0.0,0.0,0.0,0.0,0.0,0.0,0.0,0.0,0.0,0.0,0.0,0.0,0.0,0.0,0.0,0.0,0.0,0.0,0.0,0.0,0.0,0.0,0.0,0.0,0.0,0.0,0.0,0.0,0.0,0.0,-1.9797,-1.9797,-1.9569,-1.9151,-1.8544,-1.7884,0.0,0.0,0.0,0.0,0.0,0.0,0.0,0.0,0.0,0.0,0.0,0.0,0.0,0.0,0.0,0.0,0.0,0.0,0.0,0.0,0.0,0.0,0.0,0.0,0.0,0.0,0.0,0.0,0.0,0.0,0.0,0.0,0.0,0.0,0.0,0.0,0.0,0.0,0.0,0.0,0.0,0.0,0.0,0.0,0.0,0.0,0.0,0.0,0.0,0.0,0.0,0.0,0.0,0.0,0.0,0.0,0.0,0.0,0.0,0.0,0.0,0.0,0.0,0.0,0.0,0.0,0.0,0.0,0.0,0.0,0.0,0.0,0.0,0.0,0.0,0.0,0.0,0.0,0.0,0.0,0.0,0.0,0.0,0.0,0.0,0.0,0.0,0.0,0.0,0.0,0.0,0.0,0.0,0.0,0.0,0.0,0.0,0.0,0.0,0.0,0.0,0.0,0.0,0.0,0.0,0.0,0.0,0.0,0.0,-1.9812,-1.9922,-1.9512,-1.8574,-1.8314,-1.7485,0.0,0.0,0.0,0.0,0.0,0.0,0.0,0.0,0.0,0.0,0.0,0.0,0.0,0.0,0.0,0.0,0.0,0.0,0.0,0.0,0.0,0.0,0.0,0.0,0.0,0.0,0.0,0.0,0.0,0.0,0.0,0.0,0.0,0.0,0.0,0.0,0.0,0.0,0.0,0.0,0.0,0.0,0.0,0.0,0.0,0.0,0.0,0.0,0.0,0.0,0.0,0.0,0.0,0.0,0.0,0.0,0.0,0.0,0.0,0.0,0.0,0.0,0.0,0.0,0.0,0.0,0.0,0.0,0.0,0.0,0.0,0.0,0.0,0.0,0.0,0.0,0.0,0.0,0.0,0.0,0.0,0.0,0.0,0.0,0.0,0.0,0.0,0.0,0.0,0.0,0.0,0.0,0.0,0.0,0.0,0.0,0.0,0.0,0.0,0.0,0.0,0.0,0.0,0.0,0.0,0.0,0.0,0.0,0.0,-1.9884,0.0,-1.974,-1.8915,-1.8222,-1.7347,0.0,0.0,0.0,0.0,0.0,0.0,0.0,0.0,0.0,0.0,0.0,0.0,0.0,0.0,0.0,0.0,0.0,0.0,0.0,0.0,0.0,0.0,0.0,0.0,0.0,0.0,0.0,0.0,0.0,0.0,0.0,0.0,0.0,0.0,0.0,0.0,0.0,0.0,0.0,0.0,0.0,0.0,0.0,0.0,0.0,0.0,0.0,0.0,0.0,0.0,0.0,0.0,0.0,0.0,0.0,0.0,0.0,0.0,0.0,0.0,0.0,0.0,0.0,0.0,0.0,0.0,0.0,0.0,0.0,0.0,0.0,0.0,0.0,0.0,0.0,0.0,0.0,0.0,0.0,0.0,0.0,0.0,0.0,0.0,0.0,0.0,0.0,0.0,0.0,0.0,0.0,0.0,0.0,0.0,0.0,0.0,0.0,0.0,0.0,0.0,0.0,0.0,0.0,0.0,0.0,0.0,0.0,0.0,-1.981,-1.999,-2.0168,-2.0195,-2.0195,-1.8253,-1.75,0.0,0.0,0.0,0.0,0.0,0.0,0.0,0.0,0.0,0.0,0.0,0.0,0.0,0.0,0.0,0.0,0.0,0.0,0.0,0.0,0.0,0.0,0.0,0.0,0.0,0.0,0.0,0.0,0.0,0.0,0.0,0.0,0.0,0.0,0.0,0.0,0.0,0.0,0.0,0.0,0.0,0.0,0.0,0.0,0.0,0.0,0.0,0.0,0.0,0.0,0.0,0.0,0.0,0.0,0.0,0.0,0.0,0.0,0.0,0.0,0.0,0.0,0.0,0.0,0.0,0.0,0.0,0.0,0.0,0.0,0.0,0.0,0.0,0.0,0.0,0.0,0.0,0.0,0.0,0.0,0.0,0.0,0.0,0.0,0.0,0.0,0.0,0.0,0.0,0.0,0.0,0.0,0.0,0.0,0.0,0.0,0.0,0.0,0.0,0.0,0.0,0.0,0.0,0.0,0.0,0.0,0.0,0.0,0.0,-1.9353,-1.9411,-1.9265,-1.8853,-1.7777,-1.7085,0.0,0.0,0.0,0.0,0.0,0.0,0.0,0.0,0.0,0.0,0.0,0.0,0.0,0.0,0.0,0.0,0.0,0.0,0.0,0.0,0.0,0.0,0.0,0.0,0.0,0.0,0.0,0.0,0.0,0.0,0.0,0.0,0.0,0.0,0.0,0.0,0.0,0.0,0.0,0.0,0.0,0.0,0.0,0.0,0.0,0.0,0.0,0.0,0.0,0.0,0.0,0.0,0.0,0.0,0.0,0.0,0.0,0.0,0.0,0.0,0.0,0.0,0.0,0.0,0.0,0.0,0.0,0.0,0.0,0.0,0.0,0.0,0.0,0.0,0.0,0.0,0.0,0.0,0.0,0.0,0.0,0.0,0.0,0.0,0.0,0.0,0.0,0.0,0.0,0.0,0.0,0.0,0.0,0.0,0.0,0.0,0.0,0.0,0.0,0.0,0.0,0.0,0.0,0.0,0.0,0.0,0.0,0.0,0.0,-1.9184,-1.9823,-1.9936,-1.9376,-1.8469,-1.7654,-1.6977,0.0,0.0,0.0,0.0,0.0,0.0,0.0,0.0,0.0,0.0,0.0,0.0,0.0,0.0,0.0,0.0,0.0,0.0,0.0,0.0,0.0,0.0,0.0,0.0,0.0,0.0,0.0,0.0,0.0,0.0,0.0,0.0,0.0,0.0,0.0,0.0,0.0,0.0,0.0,0.0,0.0,0.0,0.0,0.0,0.0,0.0,0.0,0.0,0.0,0.0,0.0,0.0,0.0,0.0,0.0,0.0,0.0,0.0,0.0,0.0,0.0,0.0,0.0,0.0,0.0,0.0,0.0,0.0,0.0,0.0,0.0,0.0,0.0,0.0,0.0,0.0,0.0,0.0,0.0,0.0,0.0,0.0,0.0,0.0,0.0,0.0,0.0,0.0,0.0,0.0,0.0,0.0,0.0,0.0,0.0,0.0,0.0,0.0,0.0,0.0,0.0,0.0,0.0,0.0,0.0,0.0,0.0,0.0,-1.9286,-2.1072,-2.1702,-2.1098,-1.9856,-1.8931,0.0,0.0,0.0,0.0,0.0,0.0,0.0,0.0,0.0,0.0,0.0,0.0,0.0,0.0,0.0,0.0,0.0,0.0,0.0,0.0,0.0,0.0,0.0,0.0,0.0,0.0,0.0,0.0,0.0,0.0,0.0,0.0,0.0,0.0,0.0,0.0,0.0,0.0,0.0,0.0,0.0,0.0,0.0,0.0,0.0,0.0,0.0,0.0,0.0,0.0,0.0,0.0,0.0,0.0,0.0,0.0,0.0,0.0,0.0,0.0,0.0,0.0,0.0,0.0,0.0,0.0,0.0,0.0,0.0,0.0,0.0,0.0,0.0,0.0,0.0,0.0,0.0,0.0,0.0,0.0,0.0,0.0,0.0,0.0,0.0,0.0,0.0,0.0,0.0,0.0,0.0,0.0,0.0,0.0,0.0,0.0,0.0,0.0,0.0,0.0,0.0,0.0,0.0,0.0,0.0,0.0,0.0,0.0,0.0,-2.0196,-2.086,-2.0665,-1.9481,-1.8816,-1.8526,0.0,0.0,0.0,0.0,0.0,0.0,0.0,0.0,0.0,0.0,0.0,0.0,0.0,0.0,0.0,0.0,0.0,0.0,0.0,0.0,0.0,0.0,0.0,0.0,0.0,0.0,0.0,0.0,0.0,0.0,0.0,0.0,0.0,0.0,0.0,0.0,0.0,0.0,0.0,0.0,0.0,0.0,0.0,0.0,0.0,0.0,0.0,0.0,0.0,0.0,0.0,0.0,0.0,0.0,0.0,0.0,0.0,0.0,0.0,0.0,0.0,0.0,0.0,0.0,0.0,0.0,0.0,0.0,0.0,0.0,0.0,0.0,0.0,0.0,0.0,0.0,0.0,0.0,0.0,0.0,0.0,0.0,0.0,0.0,0.0,0.0,0.0,0.0,0.0,0.0,0.0,0.0,0.0,0.0,0.0,0.0,0.0,0.0,0.0,0.0,0.0,0.0,0.0,0.0,0.0,0.0,0.0,0.0,-2.0128,-2.018,-2.0377,-2.0025,-1.9104,-1.9101,-1.9021,0.0,0.0,0.0,0.0,0.0,0.0,0.0,0.0,0.0,0.0,0.0,0.0,0.0,0.0,0.0,0.0,0.0,0.0,0.0,0.0,0.0,0.0,0.0,0.0,0.0,0.0,0.0,0.0,0.0,0.0,0.0,0.0,0.0,0.0,0.0,0.0,0.0,0.0,0.0,0.0,0.0,0.0,0.0,0.0,0.0,0.0,0.0,0.0,0.0,0.0,0.0,0.0,0.0,0.0,0.0,0.0,0.0,0.0,0.0,0.0,0.0,0.0,0.0,0.0,0.0,0.0,0.0,0.0,0.0,0.0,0.0,0.0,0.0,0.0,0.0,0.0,0.0,0.0,0.0,0.0,0.0,0.0,0.0,0.0,0.0,0.0,0.0,0.0,0.0,0.0,0.0,0.0,0.0,0.0,0.0,0.0,0.0,0.0,0.0,0.0,0.0,0.0,0.0,0.0,0.0,0.0,0.0,0.0,-1.9919,-1.9622,-1.9768,-1.9683,-1.9429,-1.9977,-1.9849,0.0,0.0,0.0,0.0,0.0,0.0,0.0,0.0,0.0,0.0,0.0,0.0,0.0,0.0,0.0,0.0,0.0,0.0,0.0,0.0,0.0,0.0,0.0,0.0,0.0,0.0,0.0,0.0,0.0,0.0,0.0,0.0,0.0,0.0,0.0,0.0,0.0,0.0,0.0,0.0,0.0,0.0,0.0,0.0,0.0,0.0,0.0,0.0,0.0,0.0,0.0,0.0,0.0,0.0,0.0,0.0,0.0,0.0,0.0,0.0,0.0,0.0,0.0,0.0,0.0,0.0,0.0,0.0,0.0,0.0,0.0,0.0,0.0,0.0,0.0,0.0,0.0,0.0,0.0,0.0,0.0,0.0,0.0,0.0,0.0,0.0,0.0,0.0,0.0,0.0,0.0,0.0,0.0,0.0,0.0,0.0,0.0,0.0,0.0,0.0,0.0,0.0,0.0,0.0,0.0,0.0,0.0,0.0,-1.9497,-1.909,-1.9311,-1.9173,-1.8658,-1.9275,-1.961,0.0,0.0,0.0,0.0,0.0,0.0,0.0,0.0,0.0,0.0,0.0,0.0,0.0,0.0,0.0,0.0,0.0,0.0,0.0,0.0,0.0,0.0,0.0,0.0,0.0,0.0,0.0,0.0,0.0,0.0,0.0,0.0,0.0,0.0,0.0,0.0,0.0,0.0,0.0,0.0,0.0,0.0,0.0,0.0,0.0,0.0,0.0,0.0,-1.0171,0.0,0.0,0.0,0.0,0.0,0.0,0.0,0.0,0.0,0.0,0.0,0.0,0.0,0.0,0.0,0.0,0.0,0.0,0.0,0.0,0.0,0.0,0.0,0.0,0.0,0.0,0.0,0.0,0.0,0.0,0.0,0.0,0.0,0.0,0.0,0.0,0.0,0.0,0.0,0.0,0.0,0.0,0.0,0.0,0.0,0.0,0.0,0.0,0.0,0.0,0.0,0.0,0.0,0.0,0.0,0.0,0.0,0.0,0.0,-1.9512,-1.9326,-1.9311,-1.9288,-1.9257,-1.9398,-1.9557,0.0,0.0,0.0,0.0,0.0,0.0,0.0,0.0,0.0,0.0,0.0,0.0,0.0,0.0,0.0,0.0,0.0,0.0,0.0,0.0,0.0,0.0,0.0,0.0,0.0,0.0,0.0,0.0,0.0,0.0,0.0,0.0,0.0,0.0,0.0,0.0,0.0,0.0,0.0,0.0,0.0,0.0,0.0,0.0,0.0,0.0,0.0,0.0,0.0,0.0,0.0,0.0,0.0,0.0,0.0,0.0,0.0,0.0,0.0,0.0,0.0,0.0,0.0,0.0,0.0,0.0,0.0,0.0,0.0,0.0,0.0,0.0,0.0,0.0,0.0,0.0,0.0,0.0,0.0,0.0,0.0,0.0,0.0,0.0,0.0,0.0,0.0,0.0,0.0,0.0,0.0,0.0,0.0,0.0,0.0,0.0,0.0,0.0,0.0,0.0,0.0,0.0,0.0,0.0,0.0,0.0,0.0,-1.9879,-1.9766,-1.9797,-1.9618,-1.9721,-2.0093,-1.9861,-1.9606,-1.9474,0.0,0.0,0.0,0.0,0.0,0.0,0.0,0.0,0.0,0.0,0.0,0.0,0.0,0.0,0.0,0.0,0.0,0.0,0.0,0.0,0.0,0.0,0.0,0.0,0.0,0.0,0.0,0.0,0.0,0.0,0.0,0.0,0.0,0.0,0.0,0.0,0.0,0.0,-1.1682,-1.2167,0.0,0.0,0.0,0.0,0.0,0.0,0.0,0.0,-1.0384,0.0,0.0,0.0,0.0,0.0,0.0,0.0,0.0,0.0,0.0,0.0,0.0,0.0,0.0,0.0,0.0,0.0,0.0,0.0,0.0,0.0,0.0,0.0,0.0,0.0,0.0,0.0,0.0,0.0,0.0,0.0,0.0,0.0,0.0,0.0,0.0,0.0,0.0,0.0,0.0,0.0,0.0,0.0,0.0,0.0,0.0,0.0,0.0,0.0,0.0,0.0,0.0,0.0,0.0,0.0,0.0,-2.0286,-2.0273,-2.0141,-1.9799,-2.0227,-2.0289,-1.9898,-1.9969,-1.9787,-1.9355,0.0,0.0,0.0,0.0,0.0,0.0,0.0,0.0,0.0,0.0,0.0,0.0,0.0,0.0,0.0,0.0,0.0,0.0,0.0,0.0,0.0,0.0,0.0,0.0,0.0,0.0,0.0,0.0,0.0,0.0,0.0,0.0,0.0,0.0,0.0,0.0,0.0,0.0,0.0,-1.2618,-1.3034,0.0,0.0,0.0,0.0,0.0,0.0,0.0,0.0,-1.0152,0.0,0.0,0.0,0.0,0.0,0.0,0.0,0.0,0.0,0.0,0.0,0.0,0.0,0.0,0.0,0.0,0.0,0.0,0.0,0.0,0.0,0.0,0.0,0.0,0.0,0.0,0.0,0.0,0.0,0.0,0.0,0.0,0.0,0.0,0.0,0.0,0.0,0.0,0.0,0.0,0.0,0.0,0.0,0.0,0.0,0.0,0.0,0.0,0.0,0.0,0.0,0.0,0.0,0.0,0.0,-2.0518,-2.1021,-2.1183,-2.1017,-2.1368,-2.1289,-2.0714,-2.0524,-2.0078,0.0,0.0,0.0,0.0,0.0,0.0,0.0,0.0,0.0,0.0,0.0,0.0,0.0,0.0,0.0,0.0,0.0,0.0,0.0,0.0,0.0,0.0,0.0,0.0,0.0,0.0,0.0,0.0,0.0,0.0,0.0,0.0,0.0,0.0,0.0,0.0,0.0,0.0,0.0,0.0,-1.2988,-1.3273,-1.3158,0.0,0.0,0.0,0.0,0.0,0.0,-1.1273,-1.0917,0.0,0.0,0.0,0.0,0.0,0.0,0.0,0.0,0.0,0.0,0.0,0.0,0.0,0.0,0.0,0.0,0.0,0.0,0.0,0.0,0.0,0.0,0.0,0.0,0.0,0.0,0.0,0.0,0.0,0.0,0.0,0.0,0.0,0.0,0.0,0.0,0.0,0.0,0.0,0.0,0.0,0.0,0.0,0.0,0.0,0.0,0.0,0.0,0.0,0.0,0.0,0.0,0.0,0.0,0.0,-2.0559,-2.1523,-2.204,-2.2102,-2.2265,-2.206,-2.1498,-2.1067,-2.0366,0.0,0.0,0.0,0.0,0.0,0.0,0.0,0.0,0.0,0.0,0.0,0.0,0.0,0.0,0.0,0.0,0.0,0.0,0.0,0.0,0.0,0.0,0.0,0.0,0.0,0.0,0.0,0.0,0.0,0.0,0.0,0.0,0.0,0.0,0.0,0.0,0.0,0.0,0.0,0.0,0.0,-1.3665,-1.3377,-1.3661,0.0,0.0,0.0,0.0,-1.1996,-1.199,0.0,0.0,0.0,0.0,0.0,0.0,0.0,0.0,0.0,0.0,0.0,0.0,0.0,0.0,0.0,0.0,0.0,0.0,0.0,0.0,0.0,0.0,0.0,0.0,0.0,0.0,0.0,0.0,0.0,0.0,0.0,0.0,0.0,0.0,0.0,0.0,0.0,0.0,0.0,0.0,0.0,0.0,0.0,0.0,0.0,0.0,0.0,0.0,0.0,0.0,0.0,0.0,0.0,0.0,0.0,0.0,-2.0065,-2.1141,-2.1851,-2.209,-2.2142,-2.1938,-2.1525,-2.1446,-2.0623,0.0,0.0,0.0,0.0,0.0,0.0,0.0,0.0,0.0,0.0,0.0,0.0,0.0,0.0,0.0,0.0,0.0,0.0,0.0,0.0,0.0,0.0,0.0,0.0,0.0,0.0,0.0,0.0,0.0,0.0,0.0,0.0,0.0,0.0,0.0,0.0,0.0,0.0,0.0,0.0,0.0,-1.4537,-1.4212,-1.4005,-1.3809,0.0,0.0,-1.3195,-1.2069,-1.2431,0.0,0.0,0.0,0.0,0.0,0.0,0.0,0.0,0.0,0.0,0.0,0.0,0.0,0.0,0.0,0.0,0.0,0.0,0.0,0.0,0.0,0.0,0.0,0.0,0.0,0.0,0.0,0.0,0.0,0.0,0.0,0.0,0.0,0.0,0.0,0.0,0.0,0.0,0.0,0.0,0.0,0.0,0.0,0.0,0.0,0.0,0.0,0.0,0.0,0.0,0.0,0.0,0.0,0.0,0.0,-2.0516,-2.0729,-2.2001,-2.274,-2.2828,-2.2927,-2.2547,-2.1754,-2.1497,-2.0575,0.0,0.0,0.0,0.0,0.0,0.0,0.0,0.0,0.0,0.0,0.0,0.0,0.0,0.0,0.0,0.0,0.0,0.0,0.0,0.0,0.0,0.0,0.0,0.0,0.0,0.0,0.0,0.0,0.0,0.0,0.0,0.0,0.0,0.0,0.0,0.0,0.0,0.0,0.0,0.0,0.0,0.0,-1.3795,-1.4226,0.0,0.0,0.0,-1.3638,-1.2654,0.0,0.0,0.0,0.0,0.0,0.0,0.0,0.0,0.0,0.0,0.0,0.0,0.0,0.0,0.0,0.0,0.0,0.0,0.0,0.0,0.0,0.0,0.0,0.0,0.0,0.0,0.0,0.0,0.0,0.0,0.0,0.0,0.0,0.0,0.0,0.0,0.0,0.0,0.0,0.0,0.0,0.0,0.0,0.0,0.0,0.0,0.0,0.0,0.0,0.0,0.0,0.0,0.0,0.0,0.0,0.0,0.0,-2.1158,-2.2585,-2.333,-2.3403,-2.3492,-2.3019,-2.195,-2.1595,0.0,0.0,0.0,0.0,0.0,0.0,0.0,0.0,0.0,0.0,0.0,0.0,0.0,0.0,0.0,0.0,0.0,0.0,0.0,0.0,0.0,0.0,0.0,0.0,0.0,0.0,0.0,-0.977,0.0,0.0,0.0,0.0,0.0,0.0,0.0,0.0,0.0,0.0,0.0,0.0,0.0,0.0,-1.4487,-1.343,-1.4054,-1.4204,0.0,0.0,-1.358,-1.2741,-1.2772,-1.2623,0.0,0.0,0.0,0.0,0.0,0.0,0.0,0.0,0.0,0.0,0.0,0.0,0.0,0.0,0.0,0.0,0.0,0.0,0.0,0.0,0.0,0.0,0.0,0.0,0.0,0.0,0.0,0.0,0.0,0.0,0.0,0.0,0.0,0.0,0.0,0.0,0.0,0.0,0.0,0.0,0.0,0.0,0.0,0.0,0.0,0.0,0.0,0.0,0.0,0.0,0.0,0.0,0.0,0.0,-2.0579,-2.077,-2.2326,-2.321,-2.3403,-2.3403,-2.2945,-2.1963,-2.1873,-2.0835,0.0,0.0,0.0,0.0,0.0,0.0,0.0,0.0,0.0,0.0,0.0,0.0,0.0,0.0,0.0,0.0,0.0,0.0,0.0,0.0,0.0,0.0,0.0,0.0,0.0,0.0,0.0,0.0,0.0,0.0,0.0,0.0,0.0,0.0,0.0,0.0,0.0,0.0,0.0,0.0,0.0,-1.4675,-1.3636,-1.3281,-1.2994,0.0,-1.2616,-1.2439,-1.1707,-1.2137,-1.2249,-1.1464,0.0,0.0,0.0,0.0,0.0,0.0,0.0,0.0,0.0,0.0,0.0,0.0,0.0,0.0,0.0,0.0,0.0,0.0,0.0,0.0,0.0,0.0,0.0,0.0,0.0,0.0,0.0,0.0,0.0,0.0,0.0,0.0,0.0,0.0,0.0,0.0,0.0,0.0,0.0,0.0,0.0,0.0,0.0,0.0,0.0,0.0,0.0,0.0,0.0,0.0,0.0,0.0,0.0,-2.0434,-2.1194,-2.2443,-2.3138,-2.321,-2.3198,-2.2862,-2.2166,-2.1909,-2.0895,0.0,0.0,0.0,0.0,0.0,0.0,0.0,0.0,0.0,0.0,0.0,0.0,0.0,0.0,0.0,0.0,0.0,0.0,0.0,0.0,0.0,0.0,0.0,0.0,0.0,0.0,0.0,0.0,-1.0989,-1.1156,-1.1607,0.0,0.0,0.0,0.0,0.0,0.0,0.0,0.0,0.0,0.0,-1.3617,-1.2873,-1.3139,0.0,0.0,-1.296,-1.3087,-1.2508,-1.2625,-1.256,-1.1836,-1.1791,0.0,0.0,0.0,0.0,0.0,0.0,0.0,0.0,0.0,0.0,0.0,0.0,0.0,0.0,0.0,0.0,0.0,0.0,0.0,0.0,0.0,0.0,0.0,0.0,0.0,0.0,0.0,0.0,0.0,0.0,0.0,0.0,0.0,0.0,0.0,0.0,0.0,0.0,0.0,0.0,0.0,0.0,0.0,0.0,0.0,0.0,0.0,0.0,0.0,0.0,0.0,0.0,-2.0231,-2.1341,-2.2455,-2.306,-2.3047,-2.3078,-2.2769,-2.2083,-2.1794,-2.0863,0.0,0.0,0.0,0.0,0.0,0.0,0.0,0.0,0.0,0.0,0.0,0.0,0.0,0.0,0.0,0.0,0.0,0.0,0.0,0.0,0.0,0.0,0.0,0.0,0.0,0.0,0.0,0.0,-1.1433,-1.1533,-1.1724,0.0,0.0,0.0,0.0,0.0,0.0,0.0,0.0,0.0,0.0,-1.2764,-1.2141,-1.2671,-1.2978,-1.249,-1.2866,-1.3116,-1.2879,-1.2837,-1.2708,-1.2211,0.0,0.0,0.0,0.0,0.0,0.0,0.0,0.0,0.0,0.0,0.0,0.0,0.0,0.0,0.0,0.0,0.0,0.0,0.0,0.0,0.0,0.0,0.0,0.0,0.0,0.0,0.0,-2.0864,0.0,0.0,-1.9732,0.0,0.0,0.0,0.0,0.0,0.0,0.0,0.0,0.0,0.0,0.0,0.0,0.0,0.0,0.0,0.0,0.0,0.0,0.0,0.0,0.0,0.0,-1.9961,-2.099,-2.2261,-2.2909,-2.2909,-2.3017,-2.2594,-2.1581,-2.1493,-2.0715,-1.9045,0.0,0.0,0.0,0.0,0.0,0.0,0.0,0.0,0.0,0.0,0.0,0.0,0.0,0.0,0.0,0.0,0.0,0.0,0.0,0.0,0.0,0.0,0.0,0.0,0.0,0.0,-1.1477,-1.1531,-1.1593,0.0,0.0,0.0,0.0,0.0,0.0,0.0,0.0,0.0,-1.162,-1.2057,-1.2258,-1.1623,-1.1696,-1.1974,-1.2157,-1.2115,-1.2153,-1.2467,-1.2504,-1.2502,0.0,0.0,0.0,0.0,0.0,0.0,0.0,0.0,0.0,0.0,0.0,0.0,0.0,0.0,0.0,0.0,0.0,0.0,0.0,0.0,0.0,0.0,0.0,0.0,0.0,0.0,0.0,-2.2853,-2.2521,0.0,0.0,0.0,0.0,0.0,0.0,0.0,0.0,0.0,0.0,0.0,-2.1241,-2.1831,0.0,0.0,0.0,0.0,0.0,0.0,0.0,0.0,0.0,0.0,0.0,0.0,-2.029,-2.1014,-2.2154,-2.2769,-2.2769,-2.28,-2.2484,-2.1795,-2.137,-2.0244,-1.8276,0.0,0.0,0.0,0.0,0.0,0.0,0.0,0.0,0.0,0.0,0.0,0.0,0.0,0.0,0.0,0.0,0.0,0.0,0.0,0.0,0.0,0.0,0.0,0.0,0.0,-1.2324,0.0,0.0,0.0,0.0,0.0,0.0,0.0,0.0,0.0,0.0,0.0,-1.1659,-1.147,-1.156,-1.1533,-1.1317,-1.1622,-1.1995,0.0,0.0,0.0,0.0,0.0,0.0,0.0,0.0,0.0,0.0,0.0,0.0,0.0,0.0,-1.1403,-1.0546,-1.0326,-0.9967,-0.8987,0.0,0.0,0.0,0.0,0.0,0.0,0.0,0.0,0.0,0.0,0.0,0.0,0.0,0.0,-2.3981,-2.3658,-2.2648,0.0,0.0,0.0,0.0,0.0,0.0,0.0,0.0,-2.2025,-2.1933,-2.1428,-2.1803,-2.1501,0.0,-2.0249,-1.9706,0.0,0.0,0.0,0.0,0.0,0.0,0.0,0.0,-2.0324,-2.0885,-2.2005,-2.2586,-2.2586,-2.2463,-2.2167,-2.1596,-2.083,-1.9689,-1.8142,-1.7185,-1.6512,0.0,0.0,0.0,0.0,0.0,0.0,0.0,0.0,0.0,0.0,0.0,0.0,0.0,0.0,0.0,0.0,0.0,0.0,0.0,0.0,0.0,0.0,0.0,-1.2613,0.0,0.0,0.0,0.0,0.0,0.0,0.0,0.0,0.0,-1.1897,-1.1545,-1.1322,-1.1454,-1.1467,-1.1431,-1.1465,0.0,0.0,0.0,0.0,0.0,0.0,0.0,-1.2403,-1.2256,-1.2199,-1.2161,-1.2074,-1.2354,-1.245,-1.2055,0.0,0.0,-1.0598,-1.0225,-0.9769,-0.8816,-0.8544,-0.8376,-0.8,-0.785,-0.7702,0.0,0.0,0.0,0.0,0.0,0.0,0.0,0.0,-2.5405,-2.4998,0.0,-2.3649,0.0,0.0,0.0,0.0,-2.2183,-2.214,0.0,0.0,-2.2159,-2.1921,-2.1452,-2.144,-2.1146,-2.0653,-2.0653,-2.0617,-2.0497,-1.9071,0.0,0.0,0.0,0.0,0.0,0.0,-2.0097,-2.0651,-2.1807,-2.2377,-2.2341,-2.2047,-2.1608,-2.0949,-1.9971,-1.9135,-1.8609,-1.8069,-1.7284,-1.6149,-1.5657,0.0,0.0,0.0,0.0,0.0,0.0,0.0,0.0,0.0,0.0,0.0,0.0,0.0,0.0,0.0,0.0,0.0,0.0,0.0,0.0,-1.2992,0.0,0.0,0.0,0.0,0.0,0.0,0.0,0.0,0.0,0.0,-1.1859,-1.1913,-1.1798,-1.1451,0.0,0.0,0.0,0.0,-1.2235,-1.2565,-1.2511,-1.2542,-1.2849,-1.2884,-1.2907,-1.2907,0.0,0.0,-1.2387,-1.2632,-1.2444,-1.135,-1.1371,-1.1614,-1.1545,-1.0621,-0.9735,-0.9181,-0.8816,-0.8563,-0.8129,-0.7931,-0.7931,-2.7896,0.0,0.0,0.0,0.0,-2.7131,-2.7328,-2.7695,-2.7258,-2.668,-2.5991,-2.4983,0.0,0.0,0.0,0.0,0.0,0.0,-2.1864,-2.1829,-2.1829,-2.1741,-2.1611,-2.1599,-2.1516,-2.1386,-2.1374,-2.1185,-2.0813,-2.0334,-1.9583,-1.8566,0.0,0.0,0.0,0.0,-2.0634,-2.1175,-2.1898,-2.2066,-2.1693,-2.1596,-2.1093,-2.0173,-1.947,-1.8877,-1.8356,-1.8162,-1.741,-1.6045,-1.5834,0.0,0.0,0.0,0.0,0.0,0.0,0.0,0.0,0.0,0.0,0.0,0.0,0.0,0.0,0.0,0.0,0.0,0.0,0.0,-1.2945,-1.3097,-1.2923,0.0,0.0,0.0,0.0,0.0,0.0,0.0,0.0,0.0,-1.1405,-1.1286,-1.1153,0.0,0.0,-1.1585,-1.1864,-1.1972,-1.2204,-1.2654,-1.2695,0.0,-1.306,-1.3047,-1.2941,-1.2852,-1.2631,-1.2278,-1.1605,-1.1658,-1.1482,-1.0476,-1.0088,-0.9879,-0.9787,-0.9542,-0.8936,-0.8032,-0.7832,-0.7809,-0.7664,-0.7626,-0.7664,-2.8951,-2.8705,-2.8163,-2.8063,-2.826,-2.8201,-2.8188,-2.8252,-2.7892,-2.734,-2.663,-2.556,-2.4673,-2.3898,-2.2875,0.0,0.0,0.0,-2.2173,-2.1981,-2.1985,-2.1898,-2.1722,-2.171,-2.171,-2.1698,-2.1475,-2.131,-2.1235,-2.1023,-2.0523,-1.9777,0.0,0.0,-1.9479,-2.0451,-2.1075,-2.1194,-2.1737,-2.1856,-2.1534,-2.1176,-2.0476,-1.9434,-1.9128,-1.8857,-1.8518,-1.8274,-1.7691,-1.6768,-1.6072,-1.5586,0.0,0.0,0.0,0.0,0.0,0.0,0.0,0.0,0.0,0.0,0.0,-1.4084,-1.3455,0.0,0.0,0.0,-1.3229,-1.2883,-1.2462,-1.2893,0.0,0.0,0.0,0.0,0.0,0.0,0.0,-1.0795,-1.0617,-1.0684,-1.1142,-1.1124,-1.1116,-1.133,-1.1488,-1.1704,-1.1961,0.0,-1.2299,-1.2622,-1.2693,-1.2791,-1.3022,-1.302,-1.2823,-1.2454,-1.2094,-1.1614,-1.0979,-1.0924,-1.0684,-0.986,-0.9388,-0.9072,-0.8671,-0.8488,-0.8215,-0.7574,-0.7559,-0.7565,-0.7543,-0.7518,-0.7518,-2.9602,-2.9518,-2.8394,-2.8283,-2.8759,-2.8729,-2.8318,-2.7656,-2.7606,-2.7173,-2.6414,-2.5672,-2.5243,-2.5039,-2.3749,0.0,-2.3151,-2.3179,-2.2854,-2.2374,-2.2341,-2.2104,-2.1679,-2.1667,-2.1667,-2.1655,-2.115,-2.1174,-2.162,-2.1162,-2.0927,-2.0916,-2.0902,-2.0644,-2.0223,-2.1061,-2.1362,-2.1,-2.1451,-2.1675,-2.1616,-2.0736,-1.98,-1.8812,-1.8908,-1.895,-1.8875,-1.8298,-1.7972,-1.7824,-1.6366,-1.5506,-1.5437,0.0,0.0,0.0,0.0,0.0,0.0,0.0,0.0,0.0,0.0,0.0,0.0,0.0,0.0,0.0,-1.3901,0.0,-1.1828,-1.242,0.0,0.0,0.0,-1.1413,-1.0841,-1.094,-1.0941,-1.0669,0.0,0.0,-1.1148,-1.1401,-1.1544,-1.1583,-1.1897,-1.2067,-1.2023,-1.2184,-1.2366,-1.2258,-1.2305,-1.2397,-1.2546,-1.2548,-1.2311,-1.1726,-1.1276,-1.0785,-1.0324,-1.0247,-0.9933,-0.9127,-0.9082,-0.8841,-0.8098,-0.7708,-0.7493,-0.7693,-0.774,-0.7679,-0.7553,-0.7559,-0.7559,-2.9602,-2.9574,-2.9293,-2.9251,-2.9347,-2.876,-2.8461,-2.8224,-2.7721,-2.7092,-2.6291,-2.5608,-2.4628,-2.3456,-2.3117,-2.2903,-2.2826,-2.2819,-2.2532,-2.2037,-2.2026,-2.1749,-2.1308,-2.1328,-2.1328,-2.1316,-2.1189,-2.1201,-2.1316,-2.1201,-2.1131,-2.1155,-2.1472,-2.1333,-2.0746,-2.0958,-2.1216,-2.151,-2.1639,-2.1487,-2.1087,-2.047,-1.9633,-1.8527,-1.8827,-1.8596,-1.7827,-1.7922,-1.7616,-1.6798,-1.6125,-1.556,-1.513,-1.3645,0.0,0.0,0.0,0.0,0.0,0.0,0.0,0.0,0.0,-1.4423,-1.3259,0.0,-1.422,0.0,-1.3243,-1.2499,-1.1844,-1.1966,0.0,0.0,-1.1865,-1.1724,-1.077,-1.1038,-1.1209,-1.1028,-1.1166,-1.1399,-1.1663,-1.1748,-1.1561,-1.0926,-1.1459,-1.1817,-1.1408,-1.1244,-1.1075,-1.0832,-1.0787,-1.0851,-1.1116,-1.0982,-1.0828,-1.0626,-1.0264,-0.9772,-0.9091,-0.911,-0.8877,-0.7974,-0.7879,-0.7861,-0.759,-0.745,-0.7427,-0.7457,-0.739,-0.743,-0.7667,-0.7735,-0.7735,-2.9369,-2.9022,-2.9008,-2.8771,-2.8376,-2.8409,-2.8051,-2.7398,-2.6942,-2.6316,-2.5599,-2.5144,-2.4387,-2.3491,-2.3479,-2.3456,-2.3362,-2.3351,-2.3087,-2.257,-2.233,-2.1996,-2.1491,-2.1305,-2.1201,-2.1201,-2.1201,-2.1201,-2.1201,-2.1201,-2.1201,-2.1201,-2.1143,-2.0899,-2.0557,-2.0782,-2.093,-2.0999,-2.0667,-2.025,-1.9761,-1.9513,-1.8884,-1.7879,-1.8115,-1.8019,-1.7408,-1.7532,-1.7333,-1.6706,-1.6007,-1.5495,-1.5153,-1.3849,-1.3341,0.0,0.0,0.0,0.0,0.0,0.0,0.0,0.0,0.0,0.0,0.0,-1.4493,-1.3776,-1.3029,-1.2334,-1.1747,-1.1825,-1.1746,-1.1368,-1.1709,-1.1678,-1.1058,-1.1371,-1.1589,-1.1473,-1.1612,-1.1766,-1.2018,-1.1682,-1.1314,-1.0912,-1.0923,-1.0885,-1.0501,-1.0383,-1.0292,-1.0111,-1.0046,-1.017,-1.0428,-1.0216,-0.9981,-0.9757,-0.9415,-0.8934,-0.835,-0.8256,-0.8074,-0.7579,-0.7483,-0.7472,-0.7424,-0.726,-0.7197,-0.7308,-0.7143,-0.7105,-0.7459,-0.7532,-0.7477,-2.9091,-2.832,-2.8335,-2.7756,-2.6963,-2.7624,-2.7237,-2.6045,-2.5789,-2.5335,-2.4754,-2.4538,-2.4345,-2.42,-2.4189,-2.4189,-2.4189,-2.4189,-2.3925,-2.3384,-2.2983,-2.2478,-2.1883,-2.1479,-2.1259,-2.1201,-2.1201,-2.1201,-2.1201,-2.1201,-2.1201,-2.1158,-2.0474,-2.0096,-2.0118,-2.0378,-2.0345,-1.9944,-1.9342,-1.8814,-1.8422,-1.856,-1.8124,-1.714,-1.7331,-1.739,-1.7186,-1.7069,-1.7041,-1.7042,-1.6039,-1.5458,-1.5496,-1.4522,-1.4119,0.0,-1.4428,0.0,0.0,0.0,0.0,0.0,0.0,0.0,0.0,-1.481,-1.4441,-1.3292,-1.2826,-1.233,-1.1592,-1.1722,-1.1621,-1.0949,-1.1254,-1.1543,-1.1549,-1.1772,-1.1934,-1.1928,-1.1958,-1.2079,-1.2248,-1.148,-1.0974,-1.0866,-1.0149,-0.9479,-0.9199,-0.9404,-0.9634,-0.9579,-0.9531,-0.9426,-0.9648,-0.9605,-0.9298,-0.8957,-0.8582,-0.8193,-0.7818,-0.7649,-0.7506,-0.7469,-0.7344,-0.7252,-0.7293,-0.6957,-0.6867,-0.7163,-0.69,-0.6781,-0.7215,-0.7222,-0.7118,-2.9092,-2.853,-2.8565,-2.7855,-2.6731,-2.6249,-2.5985,-2.5824,-2.5253,-2.4814,-2.4526,-2.4345,-2.4225,-2.4189,-2.4189,-2.4189,-2.4189,-2.4189,-2.3936,-2.3407,-2.3316,-2.2777,-2.1917,-2.1835,-2.156,-2.1224,-2.1201,-2.1201,-2.1201,-2.1201,-2.1201,-2.1201,-2.0463,-2.0096,-2.0074,0.0,0.0,0.0,-1.9077,-1.8969,-1.8897,-1.9194,-1.8583,-1.6964,-1.7538,0.0,-1.6126,-1.6303,-1.6618,-1.6876,-1.6104,0.0,0.0,0.0,0.0,0.0,0.0,0.0,0.0,0.0,0.0,0.0,-1.4804,-1.4655,-1.4388,-1.4313,-1.3616,-1.2109,-1.1716,-1.1471,-1.1211,-1.1224,-1.1402,-1.1642,-1.1748,-1.1848,-1.1854,-1.2042,-1.224,-1.224,-1.226,-1.2312,-1.2263,-1.1374,-1.0393,-0.9701,-0.8794,-0.7906,-0.7136,-0.8078,-0.8452,-0.7793,-0.7775,-0.7669,-0.7709,-0.7731,-0.7775,-0.7478,-0.7474,-0.7337,-0.718,-0.7096,-0.7006,-0.6899,-0.6781,-0.668,-0.6676,-0.6519,-0.6434,-0.6652,-0.6588,-0.6685,-0.7237,-0.7234,-0.7114,-2.8583,-2.7895,-2.788,-2.7088,0.0,-2.5397,-2.5123,-2.4969,-2.4658,-2.4465,-2.4345,-2.4236,-2.4189,-2.4189,-2.4189,-2.4189,-2.4189,-2.4189,-2.4051,-2.381,-2.3522,-2.3132,-2.2628,-2.2135,-2.1789,-2.1537,-2.1305,-2.1201,-2.1201,-2.0828,-2.0667,-2.0624,-1.9606,-1.9,-1.8877,-1.7755,-1.7432,-1.7935,-1.7969,-1.7944,-1.7988,-1.8159,-1.7721,-1.6645,-1.6945,0.0,0.0,0.0,0.0,0.0,0.0,0.0,0.0,0.0,0.0,-1.5492,-1.5092,-1.4854,-1.4965,-1.4816,-1.4821,-1.504,-1.4841,-1.4645,-1.4446,-1.3619,-1.2849,-1.2215,-1.1838,-1.159,-1.1518,-1.151,-1.1673,-1.2059,-1.1991,-1.1998,-1.2135,-1.2141,-1.2139,-1.215,-1.2159,-1.2069,-1.1574,-1.0572,-0.9575,-0.8619,-0.7702,-0.6959,-0.6567,-0.7067,-0.7358,-0.6985,-0.6953,-0.6953,-0.6953,-0.7086,-0.7177,-0.7181,-0.7135,-0.7076,-0.6951,-0.6778,-0.6618,-0.6412,-0.6247,-0.6134,-0.606,-0.5993,-0.5989,-0.6145,-0.6215,-0.6337,-0.6715,-0.6808,-0.6791,-2.8,-2.7113,-2.705,-2.6257,-2.5004,-2.4823,-2.4568,-2.4189,0.0,0.0,0.0,-2.4235,-2.4189,-2.4189,-2.4189,-2.4189,-2.4189,-2.4189,-2.4189,-2.4177,-2.374,-2.3499,-2.3373,-2.2467,-2.1986,-2.1871,-2.1443,-2.1172,-2.1092,-2.0443,-2.0085,-1.9877,-1.8607,-1.7808,-1.7432,-1.6691,-1.6456,-1.6769,-1.6804,-1.6804,-1.6804,-1.6868,-1.6677,-1.6221,-1.6251,-1.6285,-1.6187,-1.6026,-1.5875,-1.5647,-1.542,-1.5313,-1.5384,-1.5298,-1.5539,-1.621,-1.6175,-1.6105,-1.6061,-1.586,-1.553,-1.4988,-1.4494,-1.426,-1.4452,-1.3101,-1.2275,-1.2485,-1.2064,-1.1772,-1.1825,-1.1872,-1.1933,-1.2236,-1.2099,-1.2098,-1.2285,-1.216,-1.1983,-1.1995,-1.1817,-1.1424,-1.0664,-0.9536,-0.858,-0.779,-0.6915,-0.6284,-0.6361,-0.6506,-0.6725,-0.678,-0.6823,-0.6792,-0.6832,-0.6964,-0.7117,-0.7095,-0.7104,-0.7063,-0.6868,-0.6604,-0.6328,-0.6031,-0.5859,-0.5787,-0.5632,-0.5643,-0.5677,-0.5814,-0.5828,-0.5899,-0.6086,-0.6238,-0.6351,-2.7764,-2.6764,-2.6758,-2.6091,-2.4945,-2.45,-2.4258,-2.4189,-2.4189,-2.4418,-2.4786,-2.4372,-2.4189,-2.4189,-2.4189,-2.4189,-2.4189,-2.4189,-2.4189,-2.4189,-2.412,-2.3867,-2.3384,-2.2846,-2.234,-2.1883,-2.141,-2.1043,-2.0753,-2.0303,-1.9886,-1.9407,-1.8316,-1.7329,-1.6551,-1.6377,-1.6342,-1.6386,-1.6377,-1.6377,-1.6386,-1.6732,-1.6554,-1.5835,-1.6119,-1.6128,-1.579,-1.5748,-1.5881,-1.6156,-1.5845,-1.5785,-1.6112,-1.5693,-1.5651,-1.607,-1.5653,-1.5515,-1.5806,-1.4924,-1.4305,-1.4052,-1.3359,-1.3235,-1.3901,-1.3149,-1.2392,-1.182,-1.1513,-1.1404,-1.1599,-1.1675,-1.1778,-1.1977,-1.2029,-1.2003,-1.2037,-1.2037,-1.1957,-1.1957,-1.1122,-1.0554,-1.0154,-0.8627,-0.7448,-0.7098,-0.6427,-0.5896,-0.6135,-0.6318,-0.6539,-0.6712,-0.6694,-0.6679,-0.6744,-0.6844,-0.6862,-0.6838,-0.69,-0.6827,-0.6563,-0.6442,-0.6237,-0.5899,-0.5788,-0.5753,-0.5596,-0.5601,-0.5572,-0.5602,-0.561,-0.5652,-0.5719,-0.5716,-0.583,-2.7195,-2.6653,-2.6356,-2.5757,-2.4981,-2.4431,-2.4349,-2.4545,-2.4303,-2.4315,-2.4499,-2.4292,-2.4189,-2.4189,-2.4189,-2.4189,-2.4189,-2.4189,-2.4189,-2.4189,-2.4189,-2.4085,-2.3787,-2.3041,-2.2708,-2.2651,-2.195,-2.1429,-2.1065,-2.0226,-1.9455,-1.8765,-1.7483,-1.6612,-1.6211,-1.607,-1.6035,-1.6035,-1.6211,-1.6307,-1.6307,-1.6475,-1.6395,-1.6041,-1.6192,-1.6227,-1.6041,-1.5955,-1.5886,-1.586,-1.5616,-1.5496,-1.5696,-1.5488,-1.5532,-1.5895,-1.5695,-1.5425,-1.5152,-1.4281,-1.3756,-1.3683,-1.31,-1.2906,-1.3259,-1.2559,-1.1956,-1.1647,-1.1598,-1.1687,-1.1807,-1.1818,-1.1869,-1.1983,-1.1914,-1.1828,-1.1828,-1.1699,-1.1607,-1.1521,-1.0733,-0.9898,-0.9375,-0.8017,-0.6913,-0.6526,-0.6054,-0.5991,-0.6202,-0.6225,-0.6328,-0.6506,-0.652,-0.6509,-0.6603,-0.6717,-0.6769,-0.6818,-0.6756,-0.6685,-0.6458,-0.6284,-0.601,-0.5701,-0.5623,-0.5525,-0.5411,-0.533,-0.5299,-0.5287,-0.5365,-0.5401,-0.5401,-0.5204,-0.504,-2.6611,-2.6477,-2.5864,-2.5324,-2.479,-2.4486,-2.451,-2.4717,-2.4476,-2.4292,-2.42,-2.4189,-2.4189,-2.4189,-2.4189,-2.4189,-2.4189,-2.4189,-2.4189,-2.4189,-2.4189,-2.4189,-2.4085,-2.3155,-2.2937,-2.3224,-2.2205,-2.1442,-2.1059,-1.9855,-1.8715,-1.7797,-1.6625,-1.6035,-1.6035,-1.5867,-1.5805,-1.5841,-1.6079,-1.6167,-1.6175,-1.6175,-1.6202,-1.6175,-1.6211,-1.6211,-1.6175,-1.6096,-1.5904,-1.5583,-1.542,-1.5352,-1.5309,-1.5352,-1.548,-1.5771,-1.5805,-1.5352,-1.4447,-1.3728,-1.3253,-1.3067,-1.2762,-1.2563,-1.248,-1.1938,-1.1567,-1.1632,-1.1742,-1.1811,-1.1817,-1.1817,-1.1828,-1.1828,-1.1693,-1.1613,-1.157,-1.1435,-1.1311,-1.1176,-1.0294,-0.9297,-0.8544,-0.7539,-0.6625,-0.6115,-0.6051,-0.6165,-0.6287,-0.6198,-0.6257,-0.6363,-0.6418,-0.6393,-0.6376,-0.6581,-0.6678,-0.6689,-0.6631,-0.6546,-0.6367,-0.6114,-0.5814,-0.5589,-0.5469,-0.541,-0.5295,-0.5207,-0.5144,-0.5123,-0.5185,-0.5283,-0.5212,-0.4496,-0.4062,-2.6427,-2.5908,-2.5336,-2.4754,-2.4344,-2.4636,-2.4602,-2.4349,-2.4659,-2.4602,-2.4212,-2.4189,-2.4189,-2.4189,-2.4189,-2.4189,-2.4189,-2.4189,-2.4189,-2.4189,-2.4189,-2.4189,-2.4108,-2.3167,-2.2949,-2.3131,-2.1642,-2.0694,-2.0293,-1.8973,-1.7636,-1.6421,-1.599,-1.5841,-1.5832,-1.5797,-1.5805,-1.5805,-1.5832,-1.5867,-1.5841,-1.5841,-1.5841,-1.5867,-1.5841,-1.5832,-1.5876,-1.5841,-1.5823,-1.5789,-1.5737,-1.5745,-1.5737,-1.5737,-1.5762,-1.5797,-1.577,-1.5165,-1.376,-1.3121,-1.2525,-1.1881,-1.182,-1.1821,-1.1821,-1.1526,-1.1445,-1.1574,-1.1462,-1.1392,-1.1397,-1.1397,-1.1397,-1.144,-1.1397,-1.1311,-1.1354,-1.1311,-1.1311,-1.1267,-0.9738,-0.8601,-0.8409,-0.7154,-0.6173,-0.6098,-0.6176,-0.6306,-0.6333,-0.6339,-0.6372,-0.6404,-0.6361,-0.6344,-0.641,-0.6437,-0.6481,-0.6473,-0.6388,-0.6308,-0.6178,-0.6002,-0.5828,-0.5564,-0.5481,-0.5455,-0.5385,-0.5377,-0.5287,-0.5197,-0.5205,-0.5183,-0.4894,-0.3884,-0.31,-2.5884,-2.5335,-2.4778,-2.4394,-2.4235,-2.4407,-2.4384,-2.4235,-2.4395,-2.4372,-2.4212,-2.4189,-2.4189,-2.4189,-2.4189,-2.4189,-2.4189,-2.4189,-2.4189,-2.4189,-2.4189,-2.408,-2.3781,-2.3123,-2.2926,-2.3067,-2.2057,-2.1193,-2.0276,-1.8559,-1.7036,-1.6043,-1.5832,-1.5805,-1.5805,-1.5805,-1.5805,-1.5805,-1.5805,-1.5805,-1.5805,-1.5805,-1.5805,-1.5805,-1.5805,-1.5805,-1.5805,-1.5805,-1.5805,-1.5805,-1.5805,-1.5805,-1.5805,-1.5805,-1.5805,-1.5743,-1.4932,-1.4044,-1.3199,-1.2394,-1.1768,-1.1436,-1.1427,-1.1483,-1.1483,-1.1348,-1.1348,-1.144,-1.1348,-1.1311,-1.1311,-1.1311,-1.1311,-1.1311,-1.1311,-1.1311,-1.1311,-1.1311,-1.1132,-1.0526,-0.9389,-0.8397,-0.7864,-0.6864,-0.6222,-0.62,-0.6293,-0.6358,-0.6369,-0.641,-0.6381,-0.6431,-0.6393,-0.6388,-0.6379,-0.6387,-0.636,-0.6339,-0.6238,-0.6121,-0.5999,-0.5812,-0.561,-0.5521,-0.5515,-0.5458,-0.5418,-0.5413,-0.5391,-0.5295,-0.5336,-0.5317,-0.523,-0.3833,-0.2924,-2.5534,-2.4945,-2.4431,-2.4189,-2.4189,-2.4189,-2.4189,-2.4189,-2.4189,-2.4189,-2.4189,-2.4189,-2.4189,-2.4189,-2.4189,-2.4189,-2.42,-2.408,-2.4043,-2.4007,-2.3934,-2.3714,-2.339,-2.2883,-2.2761,-2.2826,-2.2009,-2.1015,-1.984,-1.8012,-1.662,-1.6002,-1.5857,-1.5805,-1.5805,-1.5805,-1.5805,-1.5805,-1.5805,-1.5805,-1.5805,-1.5805,-1.5805,-1.5805,-1.5805,-1.5805,-1.5805,-1.5805,-1.5805,-1.5805,-1.5682,-1.5611,-1.5611,-1.5513,-1.5449,-1.5234,-1.4104,-1.3181,-1.281,-1.1864,-1.129,-1.1306,-1.13,-1.1311,-1.1311,-1.1311,-1.1311,-1.1311,-1.1311,-1.1311,-1.1311,-1.1311,-1.1311,-1.1311,-1.1311,-1.1311,-1.1311,-1.1311,-1.0937,-1.007,-0.925,-0.8257,-0.7257,-0.6604,-0.6312,-0.6323,-0.638,-0.6415,-0.6407,-0.641,-0.6426,-0.6352,-0.641,-0.6384,-0.6387,-0.6387,-0.6385,-0.6285,-0.6226,-0.6059,-0.5926,-0.5725,-0.5564,-0.5588,-0.5521,-0.5488,-0.5518,-0.5496,-0.5445,-0.542,-0.5398,-0.5379,-0.538,-0.3864,-0.2936,-2.5534,-2.4945,-2.4431,-2.4189,-2.4189,-2.4189,-2.4189,-2.4189,-2.4189,-2.4189,-2.4189,-2.4189,-2.4189,-2.42,-2.4152,-2.4189,-2.4164,-2.3813,-2.3677,-2.3604,-2.3261,-2.3075,-2.2995,-2.2495,-2.2469,-2.2717,-2.1193,-1.9534,-1.8005,-1.6981,-1.6398,-1.6265,-1.6002,-1.5822,-1.5831,-1.5822,-1.5805,-1.5805,-1.5805,-1.5805,-1.5805,-1.5805,-1.5805,-1.5805,-1.5805,-1.5805,-1.5805,-1.5805,-1.5805,-1.5805,-1.5426,-1.524,-1.5204,-1.49,-1.4538,-1.4201,-1.3477,-1.2862,-1.2474,-1.1747,-1.1273,-1.1284,-1.1289,-1.1311,-1.1311,-1.1311,-1.1311,-1.1311,-1.1311,-1.1311,-1.1311,-1.1311,-1.1311,-1.1311,-1.1311,-1.1311,-1.1316,-1.1348,-1.0922,-1.0182,-0.9231,-0.8055,-0.6599,-0.6402,-0.6393,-0.6352,-0.6371,-0.6388,-0.6309,-0.6361,-0.6374,-0.6325,-0.6352,-0.6434,-0.6381,-0.6387,-0.6388,-0.6268,-0.6188,-0.6037,-0.5923,-0.5814,-0.5707,-0.5661,-0.5607,-0.5599,-0.565,-0.5642,-0.5586,-0.5524,-0.5384,-0.5349,-0.5376,-0.3886,-0.2989,-2.5335,-2.4467,-2.4261,-2.4189,-2.4189,-2.4189,-2.4189,-2.4189,-2.4189,-2.4189,-2.4189,-2.4189,-2.4189,-2.4189,-2.3934,-2.3813,-2.3787,-2.3666,-2.3482,-2.3224,-2.3075,-2.2852,-2.2606,-2.2408,-2.227,-2.2054,-2.1117,-1.9743,-1.821,-1.7459,-1.6982,-1.6679,-1.6283,-1.6139,-1.615,-1.5917,-1.5805,-1.5805,-1.5805,-1.5805,-1.5805,-1.5805,-1.5805,-1.5805,-1.5805,-1.5805,-1.5805,-1.5541,-1.5426,-1.5417,-1.5034,-1.482,-1.4764,-1.4467,-1.4209,-1.4,-1.3167,-1.2525,-1.2111,-1.1592,-1.1311,-1.1311,-1.1311,-1.1311,-1.1311,-1.1311,-1.1311,-1.1311,-1.1311,-1.1311,-1.1311,-1.1311,-1.1311,-1.1311,-1.1311,-1.137,-1.1493,-1.1531,-1.1251,-1.0405,-0.9102,-0.7675,-0.6744,-0.6352,-0.6328,-0.632,-0.6265,-0.6208,-0.6187,-0.6252,-0.6287,-0.6206,-0.6246,-0.6301,-0.6214,-0.6355,-0.6382,-0.6222,-0.6086,-0.5972,-0.5858,-0.5683,-0.5555,-0.5517,-0.5522,-0.5525,-0.5486,-0.5481,-0.5453,-0.5406,-0.5313,-0.5295,-0.5385,-0.4069,-0.3305,-2.4933,-2.4261,-2.4189,-2.4189,-2.4189,-2.4189,-2.4189,-2.4189,-2.4189,-2.4189,-2.4189,-2.4189,-2.4152,-2.397,-2.3714,-2.3409,-2.3224,-2.3187,-2.3075,-2.2815,-2.2665,-2.2478,-2.2252,-2.2214,-2.1987,-2.1454,-2.0673,-1.9567,-1.8353,-1.7752,-1.7317,-1.691,-1.6488,-1.6276,-1.6148,-1.5925,-1.5805,-1.5805,-1.5805,-1.5805,-1.5814,-1.5925,-1.5917,-1.584,-1.5917,-1.5917,-1.5822,-1.5426,-1.5196,-1.5125,-1.4705,-1.4274,-1.3971,-1.3837,-1.3589,-1.3199,-1.2638,-1.2141,-1.1733,-1.1428,-1.1311,-1.1311,-1.1311,-1.1311,-1.1311,-1.1311,-1.1311,-1.1311,-1.1311,-1.1311,-1.1311,-1.1311,-1.1311,-1.1311,-1.1311,-1.1407,-1.1661,-1.1693,-1.1196,-1.0143,-0.8821,-0.756,-0.6653,-0.6415,-0.6339,-0.6323,-0.6168,-0.6042,-0.6013,-0.6003,-0.5976,-0.5879,-0.5894,-0.5973,-0.5947,-0.598,-0.6082,-0.5989,-0.5988,-0.5872,-0.5687,-0.5551,-0.5447,-0.5393,-0.5344,-0.5344,-0.5326,-0.5331,-0.5265,-0.5233,-0.5164,-0.5129,-0.4881,-0.4428,-0.3649,-2.4236,-2.4189,-2.4189,-2.4189,-2.4189,-2.4189,-2.4189,-2.4189,-2.4189,-2.4189,-2.42,-2.42,-2.397,-2.3666,-2.353,-2.315,-2.259,-2.2478,-2.244,-2.2365,-2.2063,-2.1883,-2.1845,-2.1845,-2.1482,-2.0857,-1.9696,-1.8754,-1.8052,-1.772,-1.7355,-1.6923,-1.6556,-1.624,-1.5865,-1.5874,-1.5805,-1.5805,-1.5805,-1.5822,-1.5848,-1.615,-1.6158,-1.5908,-1.6139,-1.612,-1.5813,-1.5363,-1.5125,-1.5062,-1.4477,-1.3637,-1.3033,-1.2975,-1.2641,-1.2002,-1.1823,-1.1679,-1.1386,-1.13,-1.1311,-1.1311,-1.1311,-1.1311,-1.1311,-1.1311,-1.1311,-1.1311,-1.1311,-1.1311,-1.1311,-1.1311,-1.1321,-1.1316,-1.1332,-1.1407,-1.1682,-1.1736,-1.1061,-0.9651,-0.8597,-0.7614,-0.6781,-0.6354,-0.6336,-0.6267,-0.6046,-0.58,-0.5721,-0.5628,-0.5385,-0.5325,-0.5447,-0.5583,-0.5596,-0.5554,-0.5678,-0.5755,-0.5752,-0.5702,-0.5519,-0.5332,-0.5313,-0.5263,-0.5198,-0.5196,-0.5139,-0.5129,-0.5053,-0.5013,-0.4966,-0.4919,-0.4698,-0.4347,-0.368,-2.4189,-2.4189,-2.4189,-2.4189,-2.4189,-2.4189,-2.4189,-2.4189,-2.4189,-2.4189,-2.4164,-2.3897,-2.3714,-2.3482,-2.3038,-2.2628,-2.2365,-2.2138,-2.1997,-2.1987,-2.1845,-2.1807,-2.1807,-2.1769,-2.1262,-2.0333,-1.9825,-1.9054,-1.8167,-1.7871,-1.7783,-1.7555,-1.6992,-1.6658,-1.6507,-1.6079,-1.5805,-1.5805,-1.5805,-1.5917,-1.6077,-1.6036,-1.6028,-1.6182,-1.6029,-1.5838,-1.5738,-1.5129,-1.4677,-1.4505,-1.4176,-1.386,-1.3519,-1.3134,-1.2669,-1.2176,-1.1691,-1.1465,-1.1332,-1.1311,-1.1311,-1.1311,-1.1311,-1.1311,-1.1311,-1.1311,-1.1311,-1.1311,-1.1311,-1.1311,-1.1311,-1.1311,-1.1391,-1.1569,-1.1407,-1.1547,-1.2064,-1.2307,-1.1469,-0.9924,-0.9276,-0.8315,-0.6866,-0.6239,-0.609,-0.6028,-0.5749,-0.5465,-0.5436,-0.5325,-0.5287,-0.5155,-0.5222,-0.5201,-0.5228,-0.5221,-0.5233,-0.5352,-0.5448,-0.5476,-0.5299,-0.5194,-0.5177,-0.5098,-0.5036,-0.5013,-0.4958,-0.493,-0.4804,-0.4746,-0.4656,-0.4696,-0.4734,-0.4358,-0.376,-2.4189,-2.4189,-2.4189,-2.4189,-2.4189,-2.4189,-2.4189,-2.4189,-2.4189,-2.4189,-2.4116,-2.3776,-2.3519,-2.3261,-2.2665,-2.2338,-2.2187,-2.1921,-2.1807,-2.1807,-2.1807,-2.1807,-2.1731,-2.153,-2.0972,-2.0021,-1.9678,-1.9015,-1.804,-1.7991,-1.7923,-1.774,-1.7346,-1.6953,-1.6747,-1.6405,-1.6122,-1.5874,-1.5934,-1.6009,-1.6096,-1.6054,-1.6009,-1.5958,-1.583,-1.5593,-1.529,-1.4788,-1.4522,-1.4402,-1.4282,-1.3959,-1.346,-1.3052,-1.2593,-1.1939,-1.1552,-1.1305,-1.1311,-1.1311,-1.1311,-1.1311,-1.1311,-1.1311,-1.1311,-1.1311,-1.1311,-1.1311,-1.1396,-1.1434,-1.145,-1.1531,-1.162,-1.1663,-1.1544,-1.174,-1.2312,-1.2624,-1.1804,-1.0235,-0.9452,-0.8365,-0.686,-0.5991,-0.5787,-0.5723,-0.5453,-0.5243,-0.5179,-0.5079,-0.4964,-0.4853,-0.4817,-0.4824,-0.4858,-0.4846,-0.4799,-0.4907,-0.5068,-0.5072,-0.5043,-0.5007,-0.4982,-0.4864,-0.4767,-0.4665,-0.4647,-0.4602,-0.4523,-0.4433,-0.4433,-0.4476,-0.4514,-0.4495,-0.3986,-2.4189,-2.4189,-2.4189,-2.4189,-2.4189,-2.4189,-2.4189,-2.4189,-2.4189,-2.4152,-2.408,-2.3677,-2.3335,-2.2964,-2.2478,-2.2138,-2.1883,-2.1807,-2.1807,-2.1807,-2.1807,-2.1807,-2.1731,-2.1377,-2.0741,-1.9943,-1.9411,-1.8754,-1.8031,-1.7991,-1.786,-1.7603,-1.7483,-1.7179,-1.675,-1.6781,-1.6507,-1.6002,-1.6165,-1.6165,-1.5917,-1.6069,-1.602,-1.5392,-1.5483,-1.533,-1.481,-1.466,-1.4752,-1.4887,-1.4582,-1.3847,-1.2901,-1.2776,-1.229,-1.1284,-1.1235,-1.1284,-1.1311,-1.1311,-1.1311,-1.1311,-1.1311,-1.1311,-1.1311,-1.1311,-1.1311,-1.1321,-1.1498,-1.1677,-1.1709,-1.1855,-1.1907,-1.1687,-1.1681,-1.1921,-1.2261,-1.2571,-1.1741,-1.0119,-0.9235,-0.835,-0.6321,-0.5765,-0.5627,-0.5511,-0.5297,-0.511,-0.4999,-0.4823,-0.4519,-0.446,-0.4509,-0.4557,-0.4654,-0.461,-0.4565,-0.4616,-0.4782,-0.4792,-0.4835,-0.4869,-0.4842,-0.4712,-0.4578,-0.4474,-0.4375,-0.4383,-0.4397,-0.4344,-0.4344,-0.4297,-0.4336,-0.4321,-0.4225,-2.4189,-2.4189,-2.4189,-2.4189,-2.4189,-2.4189,-2.4189,-2.4189,-2.42,-2.4018,-2.3714,-2.3335,-2.2964,-2.2542,-2.2138,-2.1873,-2.1807,-2.1807,-2.1807,-2.1807,-2.1807,-2.1807,-2.1807,-2.1606,-2.0972,-2.0021,-1.9638,-1.9094,-1.8072,-1.7991,-1.7971,-1.7837,-1.7612,-1.7437,-1.7239,-1.7021,-1.6679,-1.6313,-1.6321,-1.6347,-1.6146,-1.5743,-1.556,-1.5642,-1.5155,-1.4917,-1.4873,-1.5066,-1.5054,-1.4889,-1.4361,-1.3825,-1.3195,-1.2752,-1.2161,-1.1417,-1.1257,-1.1311,-1.1311,-1.1311,-1.1311,-1.1311,-1.1311,-1.1311,-1.1311,-1.1311,-1.1311,-1.1348,-1.1514,-1.1715,-1.1741,-1.193,-1.1889,-1.1706,-1.1684,-1.1799,-1.1935,-1.232,-1.1861,-0.9732,-0.9221,-0.7946,-0.6339,-0.5438,-0.5275,-0.5268,-0.509,-0.4905,-0.4823,-0.4695,-0.4483,-0.442,-0.4416,-0.4373,-0.4389,-0.4342,-0.4342,-0.4387,-0.4469,-0.4534,-0.4657,-0.4733,-0.4756,-0.4728,-0.4612,-0.454,-0.4418,-0.4361,-0.4336,-0.431,-0.4297,-0.4297,-0.4297,-0.4334,-0.4334,-2.4189,-2.4189,-2.4189,-2.4189,-2.4189,-2.4189,-2.4189,-2.4164,-2.4018,-2.3824,-2.353,-2.3001,-2.2628,-2.2365,-2.1997,-2.1807,-2.1807,-2.1807,-2.1807,-2.1807,-2.1807,-2.1807,-2.1731,-2.1568,-2.0895,-1.9982,-1.9638,-1.8935,-1.8152,-1.7991,-1.7991,-1.7948,-1.7826,-1.7629,-1.7488,-1.7441,-1.7013,-1.6516,-1.6473,-1.6428,-1.5897,-1.5621,-1.5332,-1.5322,-1.4864,-1.4812,-1.4986,-1.5234,-1.5328,-1.5018,-1.4482,-1.3881,-1.3408,-1.279,-1.2069,-1.1354,-1.1311,-1.1311,-1.1311,-1.1311,-1.1311,-1.1311,-1.1311,-1.1311,-1.1311,-1.1311,-1.1327,-1.1472,-1.1709,-1.1871,-1.197,-1.1884,-1.1542,-1.1154,-1.1225,-1.1336,-1.1409,-1.1761,-1.0947,-0.9481,-0.8579,-0.7816,-0.5579,-0.5172,-0.4997,-0.4931,-0.4854,-0.473,-0.4691,-0.4569,-0.4498,-0.4424,-0.4363,-0.4318,-0.4344,-0.4297,-0.4297,-0.4297,-0.4441,-0.4449,-0.454,-0.47,-0.4738,-0.4722,-0.4632,-0.4596,-0.4469,-0.44,-0.4359,-0.4334,-0.4314,-0.4297,-0.4297,-0.4297,-0.4297,-2.4143,-2.4189,-2.4189,-2.4189,-2.4189,-2.4189,-2.4107,-2.4,-2.3754,-2.3511,-2.3209,-2.267,-2.2413,-2.2327,-2.1921,-2.1807,-2.1807,-2.1807,-2.1807,-2.1807,-2.1807,-2.1807,-2.1731,-2.1252,-2.0624,-1.9913,-1.9301,-1.8674,-1.8152,-1.7991,-1.7991,-1.7983,-1.7974,-1.786,-1.7689,-1.7795,-1.7424,-1.6735,-1.672,-1.64,-1.574,-1.5508,-1.5229,-1.4841,-1.4904,-1.4911,-1.4984,-1.5199,-1.5325,-1.5249,-1.4657,-1.3964,-1.3355,-1.2753,-1.2026,-1.1478,-1.1311,-1.1311,-1.1311,-1.1311,-1.1311,-1.1311,-1.1311,-1.1311,-1.1311,-1.1311,-1.1396,-1.1639,-1.1908,-1.2124,-1.2152,-1.1656,-1.1088,-1.0672,-1.0453,-1.056,-1.0867,-1.0975,-1.0266,-0.8549,-0.7976,-0.693,-0.5626,-0.4829,-0.4685,-0.4797,-0.4705,-0.4656,-0.4573,-0.451,-0.4453,-0.4402,-0.4349,-0.4306,-0.4297,-0.4297,-0.4297,-0.431,-0.4499,-0.4579,-0.4559,-0.4669,-0.4743,-0.4736,-0.4638,-0.4567,-0.4512,-0.4451,-0.4385,-0.4338,-0.4304,-0.4297,-0.4297,-0.4297,-0.4297,-2.3833,-2.4189,-2.4189,-2.4189,-2.4189,-2.4189,-2.379,-2.3234,-2.3472,-2.2992,-2.233,-2.2296,-2.2203,-2.1949,-2.1845,-2.1807,-2.1807,-2.1807,-2.1807,-2.1807,-2.1807,-2.1807,-2.1655,-2.1175,-2.0547,-1.9913,-1.9301,-1.8643,-1.8161,-1.7991,-1.7991,-1.7991,-1.7991,-1.7957,-1.7897,-1.7897,-1.78,-1.7273,-1.6985,-1.6536,-1.5932,-1.5445,-1.5111,-1.4888,-1.4946,-1.4925,-1.4984,-1.5214,-1.5117,-1.4608,-1.4019,-1.3561,-1.3179,-1.224,-1.1559,-1.1392,-1.1311,-1.1311,-1.1311,-1.1311,-1.1311,-1.1311,-1.1311,-1.1311,-1.1311,-1.1311,-1.1423,-1.1682,-1.1959,-1.2081,-1.2016,-1.1551,-1.0949,-1.0413,-1.0068,-0.9875,-1.0064,-1.0609,-0.9944,-0.8508,-0.7762,-0.7137,-0.5025,-0.4735,-0.4665,-0.4661,-0.4606,-0.4542,-0.4491,-0.4442,-0.4406,-0.4361,-0.4336,-0.4297,-0.4297,-0.4297,-0.4297,-0.4316,-0.4449,-0.459,-0.4571,-0.4649,-0.4724,-0.4708,-0.4638,-0.4585,-0.4565,-0.4442,-0.4367,-0.433,-0.4302,-0.4297,-0.4297,-0.4297,-0.4253,-2.3247,-2.35,-2.3705,-2.3844,-2.3843,-2.3857,-2.353,-2.293,-2.2724,-2.2327,-2.1822,-2.1792,-2.1789,-2.1797,-2.1807,-2.1807,-2.1807,-2.1807,-2.1807,-2.1807,-2.1807,-2.1807,-2.1568,-2.0934,-2.0226,-1.9777,-1.8935,-1.8322,-1.808,-1.7991,-1.7991,-1.7991,-1.7991,-1.7991,-1.7991,-1.7991,-1.7666,-1.7195,-1.694,-1.6462,-1.5707,-1.5459,-1.5217,-1.5203,-1.5153,-1.5126,-1.5163,-1.5287,-1.5026,-1.4398,-1.3773,-1.3222,-1.2839,-1.1946,-1.1354,-1.1311,-1.1311,-1.1311,-1.1311,-1.1311,-1.1311,-1.1311,-1.1311,-1.1311,-1.1311,-1.1311,-1.1488,-1.1785,-1.196,-1.2004,-1.1667,-1.1145,-1.0609,-1.0117,-0.9772,-0.9624,-0.9616,-0.9743,-0.9284,-0.777,-0.7033,-0.6141,-0.5147,-0.4726,-0.4583,-0.4553,-0.4469,-0.4408,-0.44,-0.4359,-0.4351,-0.4324,-0.4312,-0.4297,-0.4297,-0.4297,-0.4297,-0.433,-0.4406,-0.4467,-0.4496,-0.4598,-0.471,-0.4687,-0.4677,-0.4671,-0.4632,-0.4496,-0.4391,-0.4373,-0.4355,-0.432,-0.4297,-0.4297,-0.4297,-2.2616,-2.2708,-2.3109,-2.3258,-2.3232,-2.3413,-2.3095,-2.2515,-2.1995,-2.1769,-2.1523,-2.1162,-2.1275,-2.16,-2.1662,-2.1714,-2.1807,-2.1807,-2.1807,-2.1807,-2.1807,-2.1693,-2.1377,-2.0576,-1.9864,-1.962,-1.855,-1.7969,-1.8006,-1.798,-1.7897,-1.7965,-1.7991,-1.7991,-1.7991,-1.7902,-1.7622,-1.7083,-1.6732,-1.6309,-1.5488,-1.5418,-1.5409,-1.5374,-1.5357,-1.5338,-1.5338,-1.5333,-1.5048,-1.4314,-1.3688,-1.3009,-1.2283,-1.1731,-1.1311,-1.1311,-1.1311,-1.1311,-1.1311,-1.1311,-1.1311,-1.1311,-1.1364,-1.137,-1.138,-1.1472,-1.1731,-1.1927,-1.2117,-1.1795,-1.1151,-1.0757,-1.0212,-0.9772,-0.9628,-0.9624,-0.9399,-0.8694,-0.7858,-0.7266,-0.6591,-0.5705,-0.509,-0.4577,-0.4506,-0.439,-0.4355,-0.4297,-0.4297,-0.43,-0.4306,-0.4308,-0.4302,-0.4297,-0.4297,-0.4297,-0.4297,-0.4326,-0.4383,-0.4416,-0.4404,-0.4551,-0.4661,-0.4743,-0.4747,-0.4716,-0.4675,-0.4581,-0.4498,-0.4453,-0.4398,-0.4355,-0.4326,-0.4304,-0.4297,-2.2294,-2.2719,-2.2777,-2.2639,-2.2477,-2.2786,-2.2306,-2.1471,-2.156,-2.1497,-2.1152,-2.0721,-2.0757,-2.1135,-2.1228,-2.1435,-2.1735,-2.1807,-2.1807,-2.1807,-2.1769,-2.1606,-2.1021,-2.0343,-1.9668,-1.9003,-1.814,-1.7749,-1.7863,-1.7749,-1.7834,-1.7948,-1.7991,-1.7991,-1.787,-1.7668,-1.744,-1.7001,-1.6587,-1.6036,-1.5784,-1.5528,-1.5437,-1.5389,-1.5389,-1.5389,-1.5389,-1.5347,-1.4831,-1.3688,-1.3483,-1.2717,-1.1866,-1.1392,-1.1311,-1.1311,-1.1311,-1.1311,-1.1311,-1.1311,-1.1311,-1.1348,-1.1466,-1.1573,-1.1666,-1.1761,-1.1852,-1.2014,-1.1961,-1.1599,-1.0641,-1.0413,-1.0167,-0.9772,-0.9624,-0.9575,-0.927,-0.8389,-0.7389,-0.693,-0.6263,-0.5625,-0.4991,-0.4561,-0.4487,-0.4432,-0.4365,-0.4314,-0.4297,-0.4297,-0.43,-0.4302,-0.43,-0.4297,-0.4297,-0.4297,-0.43,-0.4316,-0.4359,-0.435,-0.4442,-0.452,-0.4606,-0.4657,-0.4683,-0.4653,-0.467,-0.4649,-0.454,-0.4449,-0.4412,-0.4381,-0.4338,-0.4297,-0.4297,-2.1675,-2.1916,-2.199,-2.1936,-2.18,-2.1842,-2.1566,-2.0998,-2.0811,-2.0724,-2.0612,-2.0317,-2.0338,-2.0721,-2.1041,-2.1362,-2.1683,-2.1807,-2.1807,-2.1807,-2.1769,-2.1482,-2.0867,-2.0187,-1.945,-1.8686,-1.7913,-1.7672,-1.7957,-1.7877,-1.7843,-1.7931,-1.7991,-1.791,-1.7716,-1.7514,-1.7147,-1.6779,-1.6335,-1.5963,-1.5763,-1.5472,-1.5431,-1.5389,-1.5389,-1.5389,-1.5347,-1.4999,-1.4405,-1.3561,-1.3094,-1.2326,-1.165,-1.1311,-1.1311,-1.1311,-1.1311,-1.1311,-1.1311,-1.1311,-1.1311,-1.1332,-1.1531,-1.1688,-1.1668,-1.1676,-1.1703,-1.1542,-1.1356,-1.0998,-1.0458,-1.0167,-0.9871,-0.9673,-0.9628,-0.943,-0.8882,-0.7885,-0.7239,-0.6672,-0.5723,-0.5118,-0.4871,-0.4585,-0.4489,-0.4422,-0.4373,-0.4344,-0.4322,-0.4324,-0.4336,-0.4316,-0.4316,-0.4308,-0.4304,-0.4297,-0.4297,-0.4314,-0.434,-0.4379,-0.4391,-0.4449,-0.4487,-0.453,-0.4545,-0.4563,-0.4573,-0.4555,-0.4496,-0.4398,-0.4393,-0.4351,-0.432,-0.4297,-0.4297,-2.1169,-2.1097,-2.1181,-2.1152,-2.1041,-2.0935,-2.0814,-2.0646,-2.0223,-2.0249,-2.0452,-2.0104,-2.0072,-2.04,-2.071,-2.1062,-2.1518,-2.1569,-2.1631,-2.1576,-2.1565,-2.1252,-2.0663,-1.9983,-1.9148,-1.8225,-1.7913,-1.7697,-1.7826,-1.7834,-1.7894,-1.784,-1.7865,-1.769,-1.7357,-1.709,-1.6665,-1.6335,-1.5963,-1.5763,-1.5514,-1.5389,-1.5389,-1.5389,-1.5389,-1.5389,-1.5347,-1.4824,-1.4146,-1.3428,-1.2796,-1.2069,-1.1435,-1.1311,-1.1311,-1.1311,-1.1311,-1.1311,-1.1311,-1.1311,-1.1337,-1.1418,-1.165,-1.1724,-1.1601,-1.1477,-1.1174,-1.0752,-1.0595,-1.0408,-1.0162,-0.9871,-0.9677,-0.9628,-0.9579,-0.9381,-0.873,-0.7932,-0.7135,-0.6298,-0.5248,-0.4806,-0.4702,-0.4661,-0.4575,-0.4538,-0.4491,-0.4444,-0.4422,-0.4406,-0.44,-0.4359,-0.4338,-0.4324,-0.4314,-0.43,-0.4297,-0.4304,-0.4336,-0.4375,-0.4359,-0.4351,-0.4398,-0.4406,-0.4447,-0.4467,-0.4487,-0.4518,-0.4493,-0.4449,-0.4375,-0.4328,-0.431,-0.43,-0.4297,-2.0999,-2.0679,-2.0714,-2.0368,-1.9974,-2.0234,-2.022,-2.0031,-2.0197,-2.0607,-2.0855,-2.0218,-2.0006,-2.0255,-2.0058,-2.0245,-2.0627,-2.1021,-2.1191,-2.1246,-2.1078,-2.0691,-2.007,-1.9371,-1.8632,-1.7904,-1.7837,-1.7757,-1.7629,-1.7552,-1.7586,-1.7576,-1.75,-1.726,-1.6854,-1.6594,-1.6211,-1.6046,-1.5673,-1.5465,-1.5423,-1.5389,-1.5389,-1.5389,-1.5389,-1.5347,-1.5222,-1.4615,-1.3977,-1.3349,-1.2705,-1.2026,-1.1435,-1.1311,-1.1311,-1.1311,-1.1311,-1.1311,-1.1311,-1.1343,-1.1418,-1.1623,-1.186,-1.1856,-1.152,-1.1263,-1.0921,-1.0507,-1.0355,-1.0162,-0.9871,-0.9673,-0.9624,-0.9624,-0.9579,-0.9476,-0.9027,-0.7885,-0.7089,-0.6216,-0.5223,-0.4901,-0.4738,-0.473,-0.4671,-0.4643,-0.4606,-0.4555,-0.455,-0.4473,-0.4447,-0.44,-0.4346,-0.4328,-0.4314,-0.4302,-0.432,-0.4314,-0.4349,-0.4387,-0.44,-0.4391,-0.4359,-0.4398,-0.4393,-0.441,-0.4453,-0.4481,-0.4491,-0.4447,-0.4367,-0.433,-0.431,-0.4304,-0.4297,-2.1023,-2.0571,-2.0377,-2.0053,-1.9637,-1.9638,-1.969,-1.9837,-1.9965,-2.0307,-2.0545,-2.0104,-1.9907,-1.9965,-1.9855,-2.0062,-2.0364,-2.0612,-2.086,-2.0899,-2.0695,-2.0274,-1.9866,-1.9274,-1.8461,-1.7752,-1.7608,-1.7441,-1.7312,-1.7398,-1.7465,-1.7374,-1.7151,-1.6831,-1.6461,-1.6209,-1.5948,-1.5714,-1.5514,-1.5431,-1.5389,-1.5389,-1.5389,-1.5389,-1.5389,-1.5215,-1.4783,-1.4201,-1.3512,-1.2839,-1.2155,-1.1688,-1.1392,-1.1311,-1.1311,-1.1311,-1.1311,-1.1311,-1.1321,-1.1423,-1.1547,-1.1629,-1.1706,-1.1497,-1.1076,-1.0791,-1.0507,-1.0015,-0.9969,-0.9821,-0.9673,-0.9624,-0.9624,-0.9628,-0.9529,-0.8928,-0.8581,-0.7836,-0.6883,-0.6064,-0.5307,-0.5016,-0.4756,-0.473,-0.4675,-0.4651,-0.4628,-0.4596,-0.4536,-0.4481,-0.441,-0.4386,-0.4375,-0.4324,-0.4312,-0.43,-0.4357,-0.4369,-0.4398,-0.4438,-0.4481,-0.4475,-0.4451,-0.4418,-0.4374,-0.4434,-0.4444,-0.4416,-0.4395,-0.4377,-0.4357,-0.4328,-0.4304,-0.4302,-0.4297,-2.1185,-2.05,-2.014,-1.9791,-1.9473,-1.9198,-1.9295,-1.9606,-1.9761,-1.999,-2.0089,-1.9927,-1.9741,-1.9637,-1.9627,-1.9741,-2.0058,-2.0271,-2.0463,-2.051,-2.0329,-1.9957,-1.9485,-1.8957,-1.8272,-1.7514,-1.754,-1.7294,-1.7098,-1.7042,-1.7089,-1.7128,-1.6766,-1.638,-1.6075,-1.5869,-1.5714,-1.5472,-1.5431,-1.5389,-1.5389,-1.5389,-1.5389,-1.5389,-1.5347,-1.5082,-1.4398,-1.3773,-1.3137,-1.2448,-1.1774,-1.1348,-1.1311,-1.1311,-1.1311,-1.1311,-1.1311,-1.1311,-1.1375,-1.1488,-1.1649,-1.154,-1.1346,-1.1023,-1.06,-1.0314,-1.0117,-0.9673,-0.9673,-0.9677,-0.9624,-0.9624,-0.9624,-0.9529,-0.9331,-0.8482,-0.7736,-0.7188,-0.6689,-0.6029,-0.5372,-0.4977,-0.4746,-0.4716,-0.4671,-0.4655,-0.4638,-0.4632,-0.4602,-0.4509,-0.4501,-0.4497,-0.4477,-0.4426,-0.4402,-0.4391,-0.442,-0.4438,-0.4469,-0.4493,-0.4538,-0.4565,-0.4561,-0.4477,-0.4431,-0.44,-0.4449,-0.4371,-0.43,-0.4316,-0.4326,-0.4314,-0.43,-0.4257,-0.4168,-2.1425,-2.0266,-1.9819,-1.944,-1.9164,-1.9131,-1.9119,-1.9253,-1.9627,-1.9813,-1.9896,-1.9813,-1.9627,-1.9295,-1.9285,-1.9305,-1.9285,-2.0048,-2.0094,-1.9902,-1.9773,-1.9567,-1.9116,-1.8541,-1.794,-1.76,-1.7444,-1.7167,-1.681,-1.6495,-1.6453,-1.6319,-1.6245,-1.5913,-1.568,-1.5576,-1.5541,-1.5389,-1.5389,-1.5389,-1.5389,-1.5389,-1.5389,-1.5389,-1.5347,-1.509,-1.444,-1.373,-1.2973,-1.2326,-1.1645,-1.1305,-1.1311,-1.1311,-1.1311,-1.1311,-1.1311,-1.1283,-1.132,-1.1446,-1.1507,-1.1251,-1.0882,-1.0556,-1.0256,-0.9875,-0.9677,-0.9624,-0.9624,-0.9624,-0.9624,-0.9624,-0.9624,-0.9529,-0.9229,-0.8581,-0.7733,-0.6739,-0.6289,-0.5892,-0.5438,-0.4935,-0.4782,-0.4716,-0.4747,-0.4734,-0.4738,-0.4734,-0.4753,-0.4673,-0.4663,-0.4639,-0.4614,-0.4567,-0.4547,-0.4538,-0.4522,-0.4547,-0.4583,-0.4589,-0.4602,-0.4624,-0.4665,-0.461,-0.4559,-0.4504,-0.4358,-0.4225,-0.4184,-0.4273,-0.4255,-0.4084,-0.4008,-0.3929,-0.3789,-2.0861,-1.9968,-1.9463,-1.9208,-1.9098,-1.9098,-1.9098,-1.9181,-1.9585,-1.9793,-1.9803,-2.0041,-1.9758,-1.9336,-1.9409,-1.9357,-1.9222,-1.9696,-1.9733,-1.9584,-1.9448,-1.9269,-1.8836,-1.8376,-1.7914,-1.7695,-1.7367,-1.7027,-1.6789,-1.6188,-1.5874,-1.5786,-1.5794,-1.5657,-1.5494,-1.5426,-1.5409,-1.5389,-1.5389,-1.5389,-1.5389,-1.5389,-1.5389,-1.5389,-1.5389,-1.479,-1.3935,-1.3561,-1.2753,-1.1989,-1.1478,-1.1348,-1.1311,-1.1311,-1.1267,-1.1267,-1.1262,-1.1158,-1.1084,-1.124,-1.1241,-1.081,-1.052,-1.0265,-1.0019,-0.9727,-0.9628,-0.9624,-0.9624,-0.9624,-0.9624,-0.9624,-0.9575,-0.9529,-0.913,-0.8482,-0.7683,-0.6637,-0.5839,-0.5438,-0.5186,-0.4834,-0.4782,-0.4776,-0.4772,-0.4772,-0.478,-0.4786,-0.4796,-0.4804,-0.4784,-0.4822,-0.4755,-0.4714,-0.4694,-0.4657,-0.462,-0.4659,-0.4702,-0.4696,-0.4698,-0.4738,-0.4709,-0.47,-0.4542,-0.4345,-0.4201,-0.4016,-0.4009,-0.4038,-0.3924,-0.3697,-0.3622,-0.3559,-0.338,-2.0505,-1.9917,-1.9357,-1.9098,-1.9098,-1.9098,-1.9098,-1.916,-1.943,-1.9596,-1.9606,-1.9862,-1.9706,-1.9336,-1.9378,-1.9544,-1.9414,-1.9602,-1.9549,-1.9401,-1.924,-1.8996,-1.8625,-1.8273,-1.7893,-1.7705,-1.7213,-1.6768,-1.6517,-1.5862,-1.5597,-1.5521,-1.5453,-1.5453,-1.5433,-1.5389,-1.5389,-1.5389,-1.5389,-1.5389,-1.5389,-1.5389,-1.5389,-1.5347,-1.5173,-1.4538,-1.3646,-1.3137,-1.246,-1.1736,-1.1311,-1.1311,-1.1311,-1.1267,-1.1219,-1.1127,-1.1067,-1.0981,-1.0845,-1.0767,-1.0764,-1.0506,-1.0239,-0.9974,-0.9727,-0.9624,-0.9624,-0.9624,-0.9624,-0.9624,-0.9624,-0.9624,-0.9624,-0.9529,-0.863,-0.7935,-0.7235,-0.6337,-0.5636,-0.5035,-0.4834,-0.4788,-0.4808,-0.4813,-0.4819,-0.4808,-0.4784,-0.4808,-0.4902,-0.4912,-0.4918,-0.491,-0.4894,-0.4865,-0.4841,-0.4816,-0.4796,-0.4798,-0.4826,-0.4806,-0.4814,-0.4792,-0.4634,-0.4379,-0.4226,-0.4128,-0.3899,-0.3583,-0.3645,-0.3737,-0.3564,-0.3312,-0.3285,-0.3218,-0.2986,-2.0389,-2.0276,-1.9492,-1.9129,-1.9108,-1.9098,-1.9098,-1.9108,-1.916,-1.9181,-1.9212,-1.9305,-1.9251,-1.9158,-1.931,-1.9425,-1.9506,-1.9489,-1.937,-1.9118,-1.9049,-1.8643,-1.8296,-1.7991,-1.7829,-1.7422,-1.6999,-1.6565,-1.6191,-1.5708,-1.5487,-1.5408,-1.5418,-1.5413,-1.5431,-1.5389,-1.5389,-1.5389,-1.5389,-1.5389,-1.5389,-1.5389,-1.5389,-1.5305,-1.4866,-1.4195,-1.3519,-1.2875,-1.2203,-1.1478,-1.1311,-1.1311,-1.1311,-1.1219,-1.1041,-1.0727,-1.0661,-1.0519,-1.0286,-1.0202,-1.0197,-1.0226,-0.9969,-0.9727,-0.9628,-0.9624,-0.9624,-0.9624,-0.9624,-0.9624,-0.9624,-0.9624,-0.9624,-0.9327,-0.8432,-0.7633,-0.6986,-0.5987,-0.5236,-0.4897,-0.4845,-0.4845,-0.4877,-0.49,-0.4908,-0.4894,-0.48,-0.4827,-0.4951,-0.5002,-0.5024,-0.5045,-0.5047,-0.5041,-0.502,-0.499,-0.4971,-0.4967,-0.4947,-0.4869,-0.4731,-0.4671,-0.4455,-0.413,-0.3896,-0.3752,-0.344,-0.3082,-0.3022,-0.2971,-0.3058,-0.293,-0.2945,-0.281,-0.2525,-2.0152,-1.999,-1.9689,-1.9388,-1.9129,-1.9098,-1.9098,-1.9098,-1.9098,-1.9098,-1.9243,-1.9644,-1.9572,-1.939,-1.9499,-1.9545,-1.9233,-1.9314,-1.9146,-1.8704,-1.8822,-1.855,-1.8152,-1.7959,-1.7757,-1.7367,-1.696,-1.6482,-1.6113,-1.5666,-1.5457,-1.5416,-1.5389,-1.5389,-1.5389,-1.5389,-1.5389,-1.5389,-1.5389,-1.5389,-1.5389,-1.5389,-1.5389,-1.5389,-1.4741,-1.4019,-1.3392,-1.2711,-1.1983,-1.1392,-1.1311,-1.1311,-1.1219,-1.1127,-1.0776,-1.0556,-1.0489,-1.0284,-1.011,-0.9992,-0.9792,-0.9756,-0.9772,-0.9624,-0.9624,-0.9624,-0.9624,-0.9624,-0.9624,-0.9624,-0.9624,-0.9624,-0.9575,-0.9377,-0.868,-0.7832,-0.6983,-0.5734,-0.4836,-0.4861,-0.4869,-0.4947,-0.4996,-0.5012,-0.5016,-0.5032,-0.501,-0.5004,-0.5059,-0.5075,-0.5118,-0.5202,-0.5214,-0.5214,-0.5198,-0.5149,-0.5039,-0.4903,-0.4884,-0.481,-0.4721,-0.442,-0.4034,-0.3616,-0.3439,-0.3313,-0.2883,-0.2516,-0.2172,-0.2059,-0.2332,-0.237,-0.2281,-0.2139,-0.1945,-1.9567,-1.9554,-1.9554,-1.9388,-1.9119,-1.9098,-1.9098,-1.9098,-1.9098,-1.9098,-1.9233,-1.9696,-1.9758,-1.9483,-1.949,-1.9838,-1.922,-1.8929,-1.9016,-1.8527,-1.8541,-1.8336,-1.808,-1.7838,-1.7514,-1.7147,-1.6738,-1.6252,-1.5797,-1.5548,-1.5423,-1.5423,-1.5389,-1.5389,-1.5389,-1.5389,-1.5389,-1.5389,-1.5389,-1.5389,-1.5389,-1.5389,-1.5389,-1.5131,-1.4573,-1.3815,-1.3258,-1.2583,-1.1817,-1.144,-1.1267,-1.1267,-1.1181,-1.0911,-1.0589,-1.0431,-1.0117,-0.9948,-0.9801,-0.975,-0.9649,-0.9624,-0.9624,-0.9624,-0.9624,-0.9624,-0.9624,-0.9624,-0.9624,-0.9624,-0.9624,-0.9624,-0.9426,-0.9229,-0.8432,-0.7584,-0.6692,-0.5393,-0.4879,-0.49,-0.4963,-0.5043,-0.5108,-0.5132,-0.5143,-0.5161,-0.5177,-0.5118,-0.5105,-0.5102,-0.5103,-0.5076,-0.5204,-0.5194,-0.5243,-0.5286,-0.5118,-0.484,-0.4761,-0.4693,-0.4169,-0.3816,-0.3476,-0.3141,-0.2975,-0.2749,-0.2253,-0.1889,-0.1797,-0.1796,-0.1883,-0.183,-0.1587,-0.1585,-0.1583,-1.8683,-1.9067,-1.9119,-1.915,-1.9108,-1.9098,-1.9098,-1.9098,-1.9098,-1.9098,-1.9129,-1.9212,-1.945,-1.9613,-1.9163,-1.9288,-1.9605,-1.8811,-1.865,-1.8581,-1.8336,-1.808,-1.787,-1.7595,-1.7229,-1.6738,-1.6327,-1.6004,-1.5472,-1.5431,-1.5431,-1.5389,-1.5389,-1.5389,-1.5389,-1.5389,-1.5389,-1.5389,-1.5389,-1.5433,-1.5484,-1.5418,-1.5356,-1.5028,-1.4289,-1.3606,-1.2918,-1.2201,-1.1592,-1.1283,-1.1267,-1.1273,-1.11,-1.0829,-1.049,-1.0098,-0.969,-0.9573,-0.9554,-0.9571,-0.9608,-0.9624,-0.9624,-0.9624,-0.9624,-0.9624,-0.9624,-0.9624,-0.9624,-0.9624,-0.9624,-0.9476,-0.9278,-0.863,-0.7836,-0.7045,-0.6208,-0.5484,-0.5082,-0.4981,-0.5057,-0.5128,-0.5171,-0.5204,-0.5184,-0.5202,-0.5158,-0.4996,-0.4984,-0.4974,-0.4915,-0.4845,-0.4972,-0.5146,-0.5142,-0.5014,-0.4825,-0.4428,-0.4475,-0.4348,-0.3816,-0.3245,-0.2961,-0.268,-0.256,-0.2274,-0.1934,-0.1771,-0.1672,-0.1667,-0.1708,-0.1656,-0.1607,-0.1606,-0.1605,-1.8868,-1.9129,-1.945,-1.9399,-1.9119,-1.9098,-1.9098,-1.9098,-1.9098,-1.9098,-1.9119,-1.9461,-1.9582,-1.9765,-1.9304,-1.9275,-1.9002,-1.8668,-1.8294,-1.8126,-1.8095,-1.7829,-1.7635,-1.7392,-1.6943,-1.65,-1.6087,-1.5846,-1.5514,-1.5389,-1.5389,-1.5389,-1.5389,-1.5389,-1.5389,-1.5396,-1.5403,-1.5425,-1.5433,-1.5535,-1.5586,-1.552,-1.536,-1.4886,-1.417,-1.3459,-1.2696,-1.2063,-1.1532,-1.1321,-1.1013,-1.0865,-1.0972,-1.0272,-0.9705,-0.9635,-0.9467,-0.9449,-0.9527,-0.9596,-0.9624,-0.9624,-0.9624,-0.9624,-0.9624,-0.9624,-0.9624,-0.9624,-0.9624,-0.9624,-0.9624,-0.9476,-0.9076,-0.8283,-0.7537,-0.6792,-0.6012,-0.5406,-0.5006,-0.5067,-0.5145,-0.5216,-0.5257,-0.5286,-0.5318,-0.5228,-0.5069,-0.4845,-0.4673,-0.4657,-0.4604,-0.4474,-0.4428,-0.454,-0.4484,-0.436,-0.4188,-0.4007,-0.3992,-0.3807,-0.3169,-0.2708,-0.2478,-0.23,-0.2173,-0.1991,-0.1758,-0.1652,-0.1654,-0.1637,-0.1678,-0.1626,-0.1625,-0.162,-0.1566,-1.8437,-1.862,-1.9264,-1.9357,-1.9129,-1.9098,-1.9098,-1.9098,-1.9098,-1.9098,-1.9129,-1.9367,-1.9479,-1.9358,-1.893,-1.8667,-1.859,-1.8108,-1.7806,-1.7831,-1.79,-1.774,-1.7514,-1.7188,-1.6746,-1.6252,-1.588,-1.5639,-1.5472,-1.5389,-1.5389,-1.5389,-1.5389,-1.5389,-1.5389,-1.5403,-1.5484,-1.5542,-1.5615,-1.5703,-1.5717,-1.5703,-1.5419,-1.4895,-1.4151,-1.3361,-1.2686,-1.2137,-1.1686,-1.1379,-1.0948,-1.082,-1.0773,-1.0095,-0.9575,-0.9531,-0.9486,-0.951,-0.9596,-0.9612,-0.9624,-0.9624,-0.9624,-0.9624,-0.9624,-0.9624,-0.9624,-0.9624,-0.9624,-0.9624,-0.9624,-0.9476,-0.8779,-0.8035,-0.7385,-0.6686,-0.5979,-0.5218,-0.5118,-0.5137,-0.5226,-0.5304,-0.5351,-0.5373,-0.5268,-0.4979,-0.4639,-0.4249,-0.408,-0.3965,-0.3961,-0.392,-0.3867,-0.3811,-0.3755,-0.3755,-0.3639,-0.3467,-0.3409,-0.3114,-0.2488,-0.2256,-0.2131,-0.195,-0.1823,-0.1697,-0.1677,-0.1686,-0.1686,-0.1665,-0.1644,-0.1638,-0.163,-0.1619,-0.1566,-1.7647,-1.774,-1.864,-1.9077,-1.9098,-1.9098,-1.9098,-1.9098,-1.9098,-1.9098,-1.9108,-1.9108,-1.9083,-1.8944,-1.8488,-1.8136,-1.8041,-1.773,-1.7569,-1.7501,-1.7726,-1.7627,-1.7229,-1.6861,-1.6376,-1.6004,-1.5722,-1.5514,-1.5431,-1.5389,-1.5389,-1.5389,-1.5389,-1.5389,-1.5389,-1.5389,-1.5513,-1.5796,-1.5906,-1.6016,-1.5994,-1.5908,-1.5639,-1.5041,-1.4218,-1.3393,-1.292,-1.2369,-1.1835,-1.1492,-1.1058,-1.0813,-1.0408,-1.0116,-0.974,-0.9606,-0.9571,-0.9575,-0.9616,-0.9624,-0.9624,-0.9624,-0.9624,-0.9624,-0.9624,-0.9624,-0.9624,-0.9624,-0.9624,-0.9624,-0.9624,-0.9476,-0.8931,-0.8058,-0.7272,-0.6406,-0.5457,-0.5043,-0.514,-0.52,-0.5286,-0.5357,-0.5367,-0.5382,-0.5156,-0.4761,-0.4257,-0.3867,-0.3475,-0.3307,-0.3251,-0.3307,-0.3139,-0.3027,-0.3139,-0.3139,-0.3085,-0.2971,-0.2861,-0.2578,-0.2173,-0.1944,-0.1773,-0.1759,-0.1745,-0.172,-0.1704,-0.1717,-0.1715,-0.1682,-0.1663,-0.1651,-0.1638,-0.1625,-0.1566,-1.7182,-1.7265,-1.8175,-1.8776,-1.9077,-1.9098,-1.9098,-1.9098,-1.9098,-1.9098,-1.9098,-1.9062,-1.8954,-1.863,-1.8151,-1.7832,-1.772,-1.7421,-1.7484,-1.74,-1.7496,-1.7219,-1.6878,-1.6429,-1.6023,-1.568,-1.5431,-1.5389,-1.5389,-1.5389,-1.5389,-1.5389,-1.5389,-1.5389,-1.5389,-1.5396,-1.5599,-1.595,-1.6126,-1.6316,-1.6423,-1.5744,-1.5174,-1.4689,-1.397,-1.3123,-1.257,-1.2014,-1.1615,-1.1307,-1.0487,-1.0039,-0.9664,-0.9704,-0.9645,-0.9571,-0.9592,-0.9616,-0.9624,-0.9624,-0.9624,-0.9624,-0.9624,-0.9624,-0.9624,-0.9624,-0.9624,-0.9624,-0.9624,-0.9624,-0.9525,-0.9377,-0.9034,-0.8075,-0.7166,-0.6078,-0.4954,-0.5056,-0.5163,-0.5255,-0.5341,-0.5367,-0.538,-0.5214,-0.5044,-0.4596,-0.4035,-0.3531,-0.2915,-0.2635,-0.2467,-0.2411,-0.2243,-0.2243,-0.2467,-0.2579,-0.258,-0.258,-0.2468,-0.2187,-0.1851,-0.1845,-0.1783,-0.1786,-0.1776,-0.1748,-0.174,-0.1761,-0.175,-0.1763,-0.169,-0.168,-0.1654,-0.1637,-0.1625,-1.6987,-1.713,-1.8009,-1.8559,-1.8797,-1.9015,-1.9098,-1.9098,-1.9098,-1.8975,-1.8764,-1.8684,-1.8432,-1.7983,-1.7502,-1.7223,-1.7096,-1.6977,-1.6745,-1.675,-1.6851,-1.6596,-1.6267,-1.6011,-1.579,-1.5455,-1.5423,-1.5389,-1.5389,-1.5389,-1.5389,-1.5389,-1.5389,-1.5389,-1.5389,-1.546,-1.5657,-1.6104,-1.6287,-1.6459,-1.6564,-1.5835,-1.5238,-1.4773,-1.3942,-1.3017,-1.231,-1.1791,-1.1464,-1.0934,-1.0166,-0.9809,-0.962,-0.9608,-0.9612,-0.9616,-0.962,-0.9624,-0.9624,-0.9624,-0.9624,-0.9624,-0.9624,-0.9624,-0.9624,-0.9624,-0.9624,-0.9624,-0.9624,-0.9624,-0.943,-0.9229,-0.8482,-0.7606,-0.6856,-0.5977,-0.5324,-0.5135,-0.5243,-0.5316,-0.5314,-0.515,-0.51,-0.4875,-0.4538,-0.3701,-0.3253,-0.3027,-0.2467,-0.2188,-0.1963,-0.1795,-0.1795,-0.1795,-0.2019,-0.2131,-0.2131,-0.2131,-0.2132,-0.2019,-0.1851,-0.1795,-0.1794,-0.1787,-0.1782,-0.1774,-0.1774,-0.1784,-0.1828,-0.1789,-0.1774,-0.1712,-0.1734,-0.1654,-0.1596,-1.6987,-1.7141,-1.7874,-1.832,-1.8465,-1.8828,-1.9036,-1.9098,-1.9098,-1.8731,-1.8236,-1.8168,-1.751,-1.6915,-1.6568,-1.6202,-1.6102,-1.6416,-1.6193,-1.6051,-1.6173,-1.5982,-1.5762,-1.5511,-1.542,-1.5433,-1.5423,-1.5389,-1.5389,-1.5389,-1.5389,-1.5389,-1.5389,-1.5389,-1.5389,-1.5447,-1.563,-1.6082,-1.6279,-1.6276,-1.6109,-1.5791,-1.5283,-1.4678,-1.3909,-1.2899,-1.2254,-1.178,-1.1287,-1.0681,-0.996,-0.9719,-0.9579,-0.9612,-0.9616,-0.9624,-0.9624,-0.9624,-0.9624,-0.9624,-0.9624,-0.9624,-0.9624,-0.9624,-0.9624,-0.9624,-0.9624,-0.9624,-0.9624,-0.9525,-0.9331,-0.8882,-0.8084,-0.7222,-0.653,-0.5946,-0.5531,-0.5184,-0.5296,-0.5363,-0.5152,-0.4987,-0.4761,-0.4536,-0.3867,-0.3029,-0.2525,-0.2244,-0.2019,-0.2019,-0.1851,-0.1795,-0.1795,-0.1795,-0.1795,-0.1851,-0.1907,-0.1907,-0.1963,-0.1851,-0.1795,-0.1795,-0.1789,-0.1776,-0.1827,-0.1778,-0.178,-0.1785,-0.1824,-0.1811,-0.1796,-0.1782,-0.171,-0.1686,-0.1573,-1.6987,-1.7007,-1.7213,-1.7698,-1.8309,-1.8517,-1.8756,-1.9067,-1.9088,-1.8529,-1.7852,-1.7545,-1.7166,-1.6603,-1.6603,-1.6307,-1.5919,-1.6095,-1.6038,-1.5869,-1.5716,-1.5504,-1.5317,-1.5248,-1.5227,-1.5313,-1.5389,-1.5389,-1.5389,-1.5389,-1.5389,-1.5389,-1.5389,-1.5389,-1.5389,-1.5462,-1.56,-1.6038,-1.625,-1.6249,-1.5761,-1.5357,-1.4797,-1.4106,-1.3343,-1.2673,-1.2073,-1.159,-1.1047,-1.0458,-0.992,-0.9673,-0.9624,-0.9624,-0.9624,-0.9624,-0.9624,-0.9624,-0.9624,-0.9624,-0.9624,-0.9624,-0.9624,-0.9624,-0.9624,-0.9624,-0.9624,-0.9624,-0.9624,-0.9624,-0.9377,-0.868,-0.7939,-0.6911,-0.6138,-0.5767,-0.5379,-0.5279,-0.5241,-0.5123,-0.4929,-0.465,-0.437,-0.4033,-0.3475,-0.2806,-0.2581,-0.2244,-0.1907,-0.1851,-0.1795,-0.1795,-0.1795,-0.1795,-0.1795,-0.1795,-0.1851,-0.1795,-0.1795,-0.1795,-0.1795,-0.1795,-0.1788,-0.178,-0.1782,-0.1789,-0.179,-0.1787,-0.1787,-0.1776,-0.1813,-0.1796,-0.178,-0.1716,-0.16]},{"header":{"parameterUnit":"m.s-1","parameterCategory":1,"la1":31.0,"la2":29.5877,"lo1":-88.7671,"lo2":-86.6584,"dy":0.0162,"dx":0.0185,"nx":115,"ny":88,"refTime":"2026-05-12T12:00:00:Z","depth":0,"parameterNumber":3,"parameterNumberName":"V-component_of_WINDS"},"data":[0.0,0.0,0.0,0.0,0.0,0.0,0.0,0.0,0.0,0.0,0.0,0.0,0.0,0.0,0.0,0.0,0.0,0.0,0.0,0.0,0.0,0.0,0.0,0.0,0.0,0.0,0.0,0.0,0.0,0.0,0.0,0.0,0.0,0.0,0.0,0.0,0.0,0.0,0.0,0.0,0.0,0.0,0.0,0.0,0.0,0.0,0.0,0.0,0.0,0.0,0.0,0.0,0.0,0.0,0.0,0.0,0.0,0.0,0.0,0.0,0.0,0.0,0.0,0.0,0.0,0.0,0.0,0.0,0.0,0.0,0.0,0.0,0.0,0.0,0.0,0.0,0.0,0.0,0.0,0.0,0.0,0.0,0.0,0.0,0.0,0.0,0.0,0.0,0.0,0.0,0.0,0.0,0.0,0.0,0.0,0.0,0.0,0.0,0.0,0.0,0.0,0.0,0.0,0.0,0.0,0.0,0.0,0.0,0.0,0.0,0.0,0.0,0.0,0.0,0.0,0.0,0.0,0.0,0.0,0.0,0.0,0.0,0.0,0.0,0.0,0.0,0.0,0.0,0.0,0.0,0.0,0.0,0.0,0.0,0.0,0.0,0.0,0.0,0.0,0.0,0.0,0.0,0.0,0.0,0.0,0.0,0.0,0.0,0.0,0.0,0.0,0.0,0.0,0.0,0.0,0.0,0.0,0.0,0.0,0.0,0.0,0.0,0.0,0.0,0.0,0.0,0.0,0.0,0.0,0.0,0.0,0.0,0.0,0.0,0.0,0.0,0.0,0.0,0.0,0.0,0.0,0.0,0.0,0.0,0.0,0.0,0.0,0.0,0.0,0.0,0.0,0.0,0.0,0.0,0.0,0.0,0.0,0.0,0.0,0.0,0.0,0.0,0.0,0.0,0.0,0.0,0.0,0.0,0.0,0.0,0.0,0.0,0.0,0.0,0.0,0.0,0.0,0.0,0.0,0.0,0.0,0.0,0.0,0.0,0.0,0.0,0.0,0.0,0.0,0.0,0.0,0.0,0.0,0.0,0.0,0.0,0.0,0.0,0.0,0.0,0.0,0.0,0.0,0.0,0.0,0.0,0.0,0.0,0.0,0.0,0.0,0.0,0.0,0.0,0.0,0.0,0.0,0.0,0.0,0.0,0.0,0.0,0.0,0.0,0.0,0.0,0.0,0.0,0.0,0.0,0.0,0.0,0.0,0.0,0.0,0.0,0.0,0.0,0.0,0.0,0.0,0.0,0.0,0.0,0.0,0.0,0.0,0.0,0.0,0.0,0.0,0.0,0.0,0.0,0.0,0.0,0.0,0.0,0.0,0.0,0.0,0.0,0.0,0.0,0.0,0.0,0.0,0.0,0.0,0.0,0.0,0.0,0.0,0.0,0.0,0.0,0.0,0.0,0.0,0.0,0.0,0.0,0.0,0.0,0.0,0.0,0.0,0.0,0.0,0.0,0.0,0.0,0.0,0.0,0.0,0.0,0.0,0.0,0.0,0.0,0.0,0.0,0.0,0.0,0.0,0.0,0.0,0.0,0.0,0.0,0.0,0.0,0.0,0.0,0.0,0.0,0.0,0.0,0.0,0.0,0.0,0.0,0.0,0.0,0.0,0.0,0.0,0.0,0.0,0.0,0.0,0.0,0.0,0.0,0.0,0.0,0.0,0.0,0.0,0.0,0.0,0.0,0.0,0.0,0.0,0.0,0.0,0.0,0.0,0.0,0.0,0.0,0.0,0.0,0.0,0.0,0.0,0.0,0.0,0.0,0.0,0.0,0.0,0.0,0.0,0.0,0.0,0.0,0.0,0.0,0.0,0.0,0.0,0.0,0.0,0.0,0.0,0.0,0.0,0.0,0.0,0.0,0.0,0.0,0.0,0.0,0.0,0.0,0.0,0.0,0.0,0.0,0.0,0.0,0.0,0.0,0.0,0.0,0.0,0.0,0.0,0.0,0.0,0.0,0.0,0.0,0.0,0.0,0.0,0.0,0.0,0.0,0.0,0.0,0.0,0.0,0.0,0.0,0.0,0.0,0.0,0.0,0.0,0.0,0.0,0.0,0.0,0.0,0.0,0.0,0.0,0.0,0.0,0.0,0.0,0.0,0.0,0.0,0.0,0.0,0.0,0.0,0.0,0.0,0.0,0.0,0.0,0.0,0.0,0.0,0.0,0.0,0.0,0.0,0.0,0.0,0.0,0.0,0.0,0.0,0.0,0.0,0.0,0.0,0.0,0.0,0.0,0.0,0.0,0.0,0.0,0.0,0.0,0.0,0.0,0.0,0.0,0.0,0.0,0.0,0.0,0.0,0.0,0.0,0.0,0.0,0.0,0.0,0.0,0.0,0.0,0.0,0.0,0.0,0.0,0.0,0.0,0.0,0.0,0.0,0.0,0.0,0.0,0.0,0.0,0.0,0.0,0.0,0.0,0.0,0.0,0.0,0.0,0.0,0.0,0.0,0.0,0.0,0.0,0.0,0.0,0.0,0.0,0.0,0.0,0.0,0.0,0.0,0.0,0.0,0.0,0.0,0.0,0.0,0.0,0.0,0.0,0.0,0.0,0.0,0.0,0.0,0.0,0.0,0.0,0.0,0.0,0.0,0.0,0.0,0.0,0.0,0.0,0.0,0.0,0.0,0.0,0.0,0.0,0.0,0.0,0.0,0.0,0.0,0.0,0.0,0.0,0.0,0.0,0.0,0.0,0.0,0.0,0.0,0.0,0.0,0.0,0.0,0.0,0.0,0.0,0.0,0.0,0.0,0.0,0.0,0.0,0.0,0.0,0.0,0.0,0.0,0.0,0.0,0.0,0.0,0.0,0.0,0.0,0.0,0.0,0.0,0.0,0.0,0.0,0.0,0.0,0.0,0.0,0.0,0.0,0.0,0.0,0.0,0.0,0.0,0.0,0.0,0.0,0.0,0.0,0.0,0.0,0.0,0.0,0.0,0.0,0.0,0.0,0.0,0.0,0.0,0.0,0.0,0.0,0.0,0.0,0.0,0.0,0.0,0.0,0.0,0.0,0.0,0.0,0.0,0.0,0.0,0.0,0.0,0.0,0.0,0.0,0.0,0.0,0.0,0.0,0.0,0.0,0.0,0.0,0.0,0.0,0.0,0.0,0.0,0.0,0.0,0.0,0.0,0.0,0.0,0.0,0.0,0.0,0.0,0.0,0.0,0.0,0.0,0.0,0.0,0.0,0.0,0.0,0.0,0.0,0.0,0.0,0.0,0.0,0.0,0.0,0.0,0.0,0.0,0.0,0.0,0.0,0.0,0.0,0.0,0.0,0.0,0.0,0.0,0.0,0.0,0.0,0.0,0.0,0.0,0.0,0.0,0.0,0.0,0.0,0.0,0.0,0.0,0.0,0.0,0.0,0.0,0.0,0.0,0.0,0.0,0.0,0.0,0.0,0.0,0.0,0.0,0.0,0.0,0.0,0.0,0.0,0.0,0.0,0.0,0.0,0.0,0.0,0.0,0.0,0.0,0.0,0.0,0.0,0.0,0.0,0.0,0.0,0.0,0.0,0.0,0.0,0.0,0.0,0.0,0.0,0.0,0.0,0.0,0.0,0.0,0.0,0.0,0.0,0.0,0.0,0.0,0.0,0.0,0.0,0.0,0.0,0.0,0.0,0.0,0.0,0.0,0.0,0.0,0.0,0.0,0.0,0.0,0.0,0.0,0.0,0.0,0.0,0.0,0.0,0.0,0.0,0.0,0.0,0.0,0.0,0.0,0.0,0.0,0.0,0.0,0.0,0.0,0.0,0.0,0.0,0.0,0.0,0.0,0.0,0.0,0.0,0.0,0.0,0.0,0.0,0.0,0.0,0.0,0.0,0.0,0.0,0.0,0.0,0.0,0.0,0.0,0.0,0.0,0.0,0.0,0.0,0.0,0.0,0.0,0.0,0.0,0.0,0.0,0.0,0.0,0.0,0.0,0.0,0.0,0.0,0.0,0.0,0.0,0.0,0.0,0.0,0.0,0.0,0.0,0.0,0.0,0.0,0.0,0.0,0.0,0.0,0.0,0.0,0.0,0.0,0.0,0.0,0.0,0.0,0.0,0.0,0.0,0.0,0.0,0.0,0.0,0.0,0.0,0.0,0.0,0.0,0.0,0.0,0.0,0.0,0.0,0.0,0.0,0.0,0.0,0.0,0.0,0.0,0.0,0.0,0.0,0.0,0.0,0.0,0.0,0.0,0.0,0.0,0.0,0.0,0.0,0.0,0.0,0.0,0.0,0.0,0.0,0.0,0.0,0.0,0.0,0.0,0.0,1.187,0.0,0.0,0.0,0.0,0.0,0.0,0.0,0.0,0.0,0.0,0.0,0.0,0.0,0.0,0.0,0.0,0.0,0.0,0.0,0.0,0.0,0.0,0.0,0.0,0.0,0.0,0.0,0.0,0.0,0.0,0.0,0.0,0.0,0.0,0.0,0.0,0.0,0.0,0.0,0.0,0.0,0.0,0.0,0.0,0.0,0.0,0.0,0.0,0.0,0.0,0.0,0.0,0.0,0.0,0.0,0.0,0.0,0.0,0.0,0.0,0.0,0.0,0.0,0.0,0.0,0.0,0.0,0.0,0.0,0.0,0.0,0.0,0.0,0.0,0.0,0.0,0.0,0.0,0.0,0.0,0.0,0.0,0.0,0.0,0.0,0.0,0.0,0.0,0.0,0.0,0.0,0.0,0.0,0.0,0.0,0.0,0.0,0.0,0.0,0.0,0.0,0.0,0.0,0.0,0.0,0.0,0.0,0.0,0.0,0.0,1.5637,1.4708,1.4318,1.3563,1.2396,0.0,0.0,0.0,0.0,0.0,0.0,0.0,0.0,0.0,0.0,0.0,0.0,0.0,0.0,0.0,0.0,0.0,0.0,0.0,0.0,0.0,0.0,0.0,0.0,0.0,0.0,0.0,0.0,0.0,0.0,0.0,0.0,0.0,0.0,0.0,0.0,0.0,0.0,0.0,0.0,0.0,0.0,0.0,0.0,0.0,0.0,0.0,0.0,0.0,0.0,0.0,0.0,0.0,0.0,0.0,0.0,0.0,0.0,0.0,0.0,0.0,0.0,0.0,0.0,0.0,0.0,0.0,0.0,0.0,0.0,0.0,0.0,0.0,0.0,0.0,0.0,0.0,0.0,0.0,0.0,0.0,0.0,0.0,0.0,0.0,0.0,0.0,0.0,0.0,0.0,0.0,0.0,0.0,0.0,0.0,0.0,0.0,0.0,0.0,0.0,0.0,0.0,0.0,0.0,0.0,0.0,0.0,0.0,0.0,0.0,0.0,0.0,1.478,1.3897,1.2758,0.0,0.0,0.0,0.0,0.0,0.0,0.0,0.0,0.0,0.0,0.0,0.0,0.0,0.0,0.0,0.0,0.0,0.0,0.0,0.0,0.0,0.0,0.0,0.0,0.0,0.0,0.0,0.0,0.0,0.0,0.0,0.0,0.0,0.0,0.0,0.0,0.0,0.0,0.0,0.0,0.0,0.0,0.0,0.0,0.0,0.0,0.0,0.0,0.0,0.0,0.0,0.0,0.0,0.0,0.0,0.0,0.0,0.0,0.0,0.0,0.0,0.0,0.0,0.0,0.0,0.0,0.0,0.0,0.0,0.0,0.0,0.0,0.0,0.0,0.0,0.0,0.0,0.0,0.0,0.0,0.0,0.0,0.0,0.0,0.0,0.0,0.0,0.0,0.0,0.0,0.0,0.0,0.0,0.0,0.0,0.0,0.0,0.0,0.0,0.0,0.0,0.0,0.0,0.0,0.0,0.0,0.0,0.0,0.0,0.0,1.6143,1.5422,1.486,0.0,1.2811,0.0,0.0,0.0,0.0,0.0,0.0,0.0,0.0,0.0,0.0,0.0,0.0,0.0,0.0,0.0,0.0,0.0,0.0,0.0,0.0,0.0,0.0,0.0,0.0,0.0,0.0,0.0,0.0,0.0,0.0,0.0,0.0,0.0,0.0,0.0,0.0,0.0,0.0,0.0,0.0,0.0,0.0,0.0,0.0,0.0,0.0,0.0,0.0,0.0,0.0,0.0,0.0,0.0,0.0,0.0,0.0,0.0,0.0,0.0,0.0,0.0,0.0,0.0,0.0,0.0,0.0,0.0,0.0,0.0,0.0,0.0,0.0,0.0,0.0,0.0,0.0,0.0,0.0,0.0,0.0,0.0,0.0,0.0,0.0,0.0,0.0,0.0,0.0,0.0,0.0,0.0,0.0,0.0,0.0,0.0,0.0,0.0,0.0,0.0,0.0,0.0,0.0,0.0,0.0,0.0,0.0,0.0,0.0,0.0,0.0,1.625,1.5868,1.4919,1.389,0.0,0.0,0.0,0.0,0.0,0.0,0.0,0.0,0.0,0.0,0.0,0.0,0.0,0.0,0.0,0.0,0.0,0.0,0.0,0.0,0.0,0.0,0.0,0.0,0.0,0.0,0.0,0.0,0.0,0.0,0.0,0.0,0.0,0.0,0.0,0.0,0.0,0.0,0.0,0.0,0.0,0.0,0.0,0.0,0.0,0.0,0.0,0.0,0.0,0.0,0.0,0.0,0.0,0.0,0.0,0.0,0.0,0.0,0.0,0.0,0.0,0.0,0.0,0.0,0.0,0.0,0.0,0.0,0.0,0.0,0.0,0.0,0.0,0.0,0.0,0.0,0.0,0.0,0.0,0.0,0.0,0.0,0.0,0.0,0.0,0.0,0.0,0.0,0.0,0.0,0.0,0.0,0.0,0.0,0.0,0.0,0.0,0.0,0.0,0.0,0.0,0.0,0.0,0.0,0.0,0.0,0.0,0.0,0.0,0.0,1.6414,1.6244,1.5908,1.4874,1.3867,1.295,0.0,0.0,0.0,0.0,0.0,0.0,0.0,0.0,0.0,0.0,0.0,0.0,0.0,0.0,0.0,0.0,0.0,0.0,0.0,0.0,0.0,0.0,0.0,0.0,0.0,0.0,0.0,0.0,0.0,0.0,0.0,0.0,0.0,0.0,0.0,0.0,0.0,0.0,0.0,0.0,0.0,0.0,0.0,0.0,0.0,0.0,0.0,0.0,0.0,0.0,0.0,0.0,0.0,0.0,0.0,0.0,0.0,0.0,0.0,0.0,0.0,0.0,0.0,0.0,0.0,0.0,0.0,0.0,0.0,0.0,0.0,0.0,0.0,0.0,0.0,0.0,0.0,0.0,0.0,0.0,0.0,0.0,0.0,0.0,0.0,0.0,0.0,0.0,0.0,0.0,0.0,0.0,0.0,0.0,0.0,0.0,0.0,0.0,0.0,0.0,0.0,0.0,0.0,0.0,0.0,0.0,0.0,0.0,1.6392,1.6392,1.6024,1.5268,1.4619,1.4036,0.0,0.0,0.0,0.0,0.0,0.0,0.0,0.0,0.0,0.0,0.0,0.0,0.0,0.0,0.0,0.0,0.0,0.0,0.0,0.0,0.0,0.0,0.0,0.0,0.0,0.0,0.0,0.0,0.0,0.0,0.0,0.0,0.0,0.0,0.0,0.0,0.0,0.0,0.0,0.0,0.0,0.0,0.0,0.0,0.0,0.0,0.0,0.0,0.0,0.0,0.0,0.0,0.0,0.0,0.0,0.0,0.0,0.0,0.0,0.0,0.0,0.0,0.0,0.0,0.0,0.0,0.0,0.0,0.0,0.0,0.0,0.0,0.0,0.0,0.0,0.0,0.0,0.0,0.0,0.0,0.0,0.0,0.0,0.0,0.0,0.0,0.0,0.0,0.0,0.0,0.0,0.0,0.0,0.0,0.0,0.0,0.0,0.0,0.0,0.0,0.0,0.0,0.0,0.0,0.0,0.0,0.0,0.0,0.0,1.6405,1.6241,1.566,1.4675,1.4405,1.3722,0.0,0.0,0.0,0.0,0.0,0.0,0.0,0.0,0.0,0.0,0.0,0.0,0.0,0.0,0.0,0.0,0.0,0.0,0.0,0.0,0.0,0.0,0.0,0.0,0.0,0.0,0.0,0.0,0.0,0.0,0.0,0.0,0.0,0.0,0.0,0.0,0.0,0.0,0.0,0.0,0.0,0.0,0.0,0.0,0.0,0.0,0.0,0.0,0.0,0.0,0.0,0.0,0.0,0.0,0.0,0.0,0.0,0.0,0.0,0.0,0.0,0.0,0.0,0.0,0.0,0.0,0.0,0.0,0.0,0.0,0.0,0.0,0.0,0.0,0.0,0.0,0.0,0.0,0.0,0.0,0.0,0.0,0.0,0.0,0.0,0.0,0.0,0.0,0.0,0.0,0.0,0.0,0.0,0.0,0.0,0.0,0.0,0.0,0.0,0.0,0.0,0.0,0.0,0.0,0.0,0.0,0.0,0.0,0.0,1.6318,0.0,1.5562,1.4811,1.4301,1.3614,0.0,0.0,0.0,0.0,0.0,0.0,0.0,0.0,0.0,0.0,0.0,0.0,0.0,0.0,0.0,0.0,0.0,0.0,0.0,0.0,0.0,0.0,0.0,0.0,0.0,0.0,0.0,0.0,0.0,0.0,0.0,0.0,0.0,0.0,0.0,0.0,0.0,0.0,0.0,0.0,0.0,0.0,0.0,0.0,0.0,0.0,0.0,0.0,0.0,0.0,0.0,0.0,0.0,0.0,0.0,0.0,0.0,0.0,0.0,0.0,0.0,0.0,0.0,0.0,0.0,0.0,0.0,0.0,0.0,0.0,0.0,0.0,0.0,0.0,0.0,0.0,0.0,0.0,0.0,0.0,0.0,0.0,0.0,0.0,0.0,0.0,0.0,0.0,0.0,0.0,0.0,0.0,0.0,0.0,0.0,0.0,0.0,0.0,0.0,0.0,0.0,0.0,0.0,0.0,0.0,0.0,0.0,0.0,1.6439,1.6188,1.5935,1.5742,1.5742,1.4293,1.3734,0.0,0.0,0.0,0.0,0.0,0.0,0.0,0.0,0.0,0.0,0.0,0.0,0.0,0.0,0.0,0.0,0.0,0.0,0.0,0.0,0.0,0.0,0.0,0.0,0.0,0.0,0.0,0.0,0.0,0.0,0.0,0.0,0.0,0.0,0.0,0.0,0.0,0.0,0.0,0.0,0.0,0.0,0.0,0.0,0.0,0.0,0.0,0.0,0.0,0.0,0.0,0.0,0.0,0.0,0.0,0.0,0.0,0.0,0.0,0.0,0.0,0.0,0.0,0.0,0.0,0.0,0.0,0.0,0.0,0.0,0.0,0.0,0.0,0.0,0.0,0.0,0.0,0.0,0.0,0.0,0.0,0.0,0.0,0.0,0.0,0.0,0.0,0.0,0.0,0.0,0.0,0.0,0.0,0.0,0.0,0.0,0.0,0.0,0.0,0.0,0.0,0.0,0.0,0.0,0.0,0.0,0.0,0.0,0.0,1.5672,1.5475,1.5187,1.4763,1.3951,1.3409,0.0,0.0,0.0,0.0,0.0,0.0,0.0,0.0,0.0,0.0,0.0,0.0,0.0,0.0,0.0,0.0,0.0,0.0,0.0,0.0,0.0,0.0,0.0,0.0,0.0,0.0,0.0,0.0,0.0,0.0,0.0,0.0,0.0,0.0,0.0,0.0,0.0,0.0,0.0,0.0,0.0,0.0,0.0,0.0,0.0,0.0,0.0,0.0,0.0,0.0,0.0,0.0,0.0,0.0,0.0,0.0,0.0,0.0,0.0,0.0,0.0,0.0,0.0,0.0,0.0,0.0,0.0,0.0,0.0,0.0,0.0,0.0,0.0,0.0,0.0,0.0,0.0,0.0,0.0,0.0,0.0,0.0,0.0,0.0,0.0,0.0,0.0,0.0,0.0,0.0,0.0,0.0,0.0,0.0,0.0,0.0,0.0,0.0,0.0,0.0,0.0,0.0,0.0,0.0,0.0,0.0,0.0,0.0,0.0,1.6061,1.6053,1.5787,1.5172,1.443,1.3824,1.3294,0.0,0.0,0.0,0.0,0.0,0.0,0.0,0.0,0.0,0.0,0.0,0.0,0.0,0.0,0.0,0.0,0.0,0.0,0.0,0.0,0.0,0.0,0.0,0.0,0.0,0.0,0.0,0.0,0.0,0.0,0.0,0.0,0.0,0.0,0.0,0.0,0.0,0.0,0.0,0.0,0.0,0.0,0.0,0.0,0.0,0.0,0.0,0.0,0.0,0.0,0.0,0.0,0.0,0.0,0.0,0.0,0.0,0.0,0.0,0.0,0.0,0.0,0.0,0.0,0.0,0.0,0.0,0.0,0.0,0.0,0.0,0.0,0.0,0.0,0.0,0.0,0.0,0.0,0.0,0.0,0.0,0.0,0.0,0.0,0.0,0.0,0.0,0.0,0.0,0.0,0.0,0.0,0.0,0.0,0.0,0.0,0.0,0.0,0.0,0.0,0.0,0.0,0.0,0.0,0.0,0.0,0.0,0.0,1.7138,1.7487,1.7301,1.6521,1.5478,1.4758,0.0,0.0,0.0,0.0,0.0,0.0,0.0,0.0,0.0,0.0,0.0,0.0,0.0,0.0,0.0,0.0,0.0,0.0,0.0,0.0,0.0,0.0,0.0,0.0,0.0,0.0,0.0,0.0,0.0,0.0,0.0,0.0,0.0,0.0,0.0,0.0,0.0,0.0,0.0,0.0,0.0,0.0,0.0,0.0,0.0,0.0,0.0,0.0,0.0,0.0,0.0,0.0,0.0,0.0,0.0,0.0,0.0,0.0,0.0,0.0,0.0,0.0,0.0,0.0,0.0,0.0,0.0,0.0,0.0,0.0,0.0,0.0,0.0,0.0,0.0,0.0,0.0,0.0,0.0,0.0,0.0,0.0,0.0,0.0,0.0,0.0,0.0,0.0,0.0,0.0,0.0,0.0,0.0,0.0,0.0,0.0,0.0,0.0,0.0,0.0,0.0,0.0,0.0,0.0,0.0,0.0,0.0,0.0,0.0,1.8751,1.866,1.7727,1.5916,1.4967,1.4736,0.0,0.0,0.0,0.0,0.0,0.0,0.0,0.0,0.0,0.0,0.0,0.0,0.0,0.0,0.0,0.0,0.0,0.0,0.0,0.0,0.0,0.0,0.0,0.0,0.0,0.0,0.0,0.0,0.0,0.0,0.0,0.0,0.0,0.0,0.0,0.0,0.0,0.0,0.0,0.0,0.0,0.0,0.0,0.0,0.0,0.0,0.0,0.0,0.0,0.0,0.0,0.0,0.0,0.0,0.0,0.0,0.0,0.0,0.0,0.0,0.0,0.0,0.0,0.0,0.0,0.0,0.0,0.0,0.0,0.0,0.0,0.0,0.0,0.0,0.0,0.0,0.0,0.0,0.0,0.0,0.0,0.0,0.0,0.0,0.0,0.0,0.0,0.0,0.0,0.0,0.0,0.0,0.0,0.0,0.0,0.0,0.0,0.0,0.0,0.0,0.0,0.0,0.0,0.0,0.0,0.0,0.0,0.0,1.8565,1.9702,1.9044,1.807,1.6902,1.6099,1.5645,0.0,0.0,0.0,0.0,0.0,0.0,0.0,0.0,0.0,0.0,0.0,0.0,0.0,0.0,0.0,0.0,0.0,0.0,0.0,0.0,0.0,0.0,0.0,0.0,0.0,0.0,0.0,0.0,0.0,0.0,0.0,0.0,0.0,0.0,0.0,0.0,0.0,0.0,0.0,0.0,0.0,0.0,0.0,0.0,0.0,0.0,0.0,0.0,0.0,0.0,0.0,0.0,0.0,0.0,0.0,0.0,0.0,0.0,0.0,0.0,0.0,0.0,0.0,0.0,0.0,0.0,0.0,0.0,0.0,0.0,0.0,0.0,0.0,0.0,0.0,0.0,0.0,0.0,0.0,0.0,0.0,0.0,0.0,0.0,0.0,0.0,0.0,0.0,0.0,0.0,0.0,0.0,0.0,0.0,0.0,0.0,0.0,0.0,0.0,0.0,0.0,0.0,0.0,0.0,0.0,0.0,0.0,0.0,1.8903,2.0231,1.9089,1.8556,1.8681,1.7948,1.7028,0.0,0.0,0.0,0.0,0.0,0.0,0.0,0.0,0.0,0.0,0.0,0.0,0.0,0.0,0.0,0.0,0.0,0.0,0.0,0.0,0.0,0.0,0.0,0.0,0.0,0.0,0.0,0.0,0.0,0.0,0.0,0.0,0.0,0.0,0.0,0.0,0.0,0.0,0.0,0.0,0.0,0.0,0.0,0.0,0.0,0.0,0.0,0.0,0.0,0.0,0.0,0.0,0.0,0.0,0.0,0.0,0.0,0.0,0.0,0.0,0.0,0.0,0.0,0.0,0.0,0.0,0.0,0.0,0.0,0.0,0.0,0.0,0.0,0.0,0.0,0.0,0.0,0.0,0.0,0.0,0.0,0.0,0.0,0.0,0.0,0.0,0.0,0.0,0.0,0.0,0.0,0.0,0.0,0.0,0.0,0.0,0.0,0.0,0.0,0.0,0.0,0.0,0.0,0.0,0.0,0.0,0.0,0.0,2.0189,2.0787,2.0394,1.9985,1.9533,1.7935,1.7273,0.0,0.0,0.0,0.0,0.0,0.0,0.0,0.0,0.0,0.0,0.0,0.0,0.0,0.0,0.0,0.0,0.0,0.0,0.0,0.0,0.0,0.0,0.0,0.0,0.0,0.0,0.0,0.0,0.0,0.0,0.0,0.0,0.0,0.0,0.0,0.0,0.0,0.0,0.0,0.0,0.0,0.0,0.0,0.0,0.0,0.0,0.0,0.0,1.7266,0.0,0.0,0.0,0.0,0.0,0.0,0.0,0.0,0.0,0.0,0.0,0.0,0.0,0.0,0.0,0.0,0.0,0.0,0.0,0.0,0.0,0.0,0.0,0.0,0.0,0.0,0.0,0.0,0.0,0.0,0.0,0.0,0.0,0.0,0.0,0.0,0.0,0.0,0.0,0.0,0.0,0.0,0.0,0.0,0.0,0.0,0.0,0.0,0.0,0.0,0.0,0.0,0.0,0.0,0.0,0.0,0.0,0.0,0.0,2.0741,2.1417,2.0982,2.0684,2.0605,1.9272,1.8518,0.0,0.0,0.0,0.0,0.0,0.0,0.0,0.0,0.0,0.0,0.0,0.0,0.0,0.0,0.0,0.0,0.0,0.0,0.0,0.0,0.0,0.0,0.0,0.0,0.0,0.0,0.0,0.0,0.0,0.0,0.0,0.0,0.0,0.0,0.0,0.0,0.0,0.0,0.0,0.0,0.0,0.0,0.0,0.0,0.0,0.0,0.0,0.0,0.0,0.0,0.0,0.0,0.0,0.0,0.0,0.0,0.0,0.0,0.0,0.0,0.0,0.0,0.0,0.0,0.0,0.0,0.0,0.0,0.0,0.0,0.0,0.0,0.0,0.0,0.0,0.0,0.0,0.0,0.0,0.0,0.0,0.0,0.0,0.0,0.0,0.0,0.0,0.0,0.0,0.0,0.0,0.0,0.0,0.0,0.0,0.0,0.0,0.0,0.0,0.0,0.0,0.0,0.0,0.0,0.0,0.0,0.0,2.0362,2.1012,2.1939,2.1362,2.1241,2.1642,2.0975,2.0083,1.8971,0.0,0.0,0.0,0.0,0.0,0.0,0.0,0.0,0.0,0.0,0.0,0.0,0.0,0.0,0.0,0.0,0.0,0.0,0.0,0.0,0.0,0.0,0.0,0.0,0.0,0.0,0.0,0.0,0.0,0.0,0.0,0.0,0.0,0.0,0.0,0.0,0.0,0.0,2.0183,2.0759,0.0,0.0,0.0,0.0,0.0,0.0,0.0,0.0,1.9275,0.0,0.0,0.0,0.0,0.0,0.0,0.0,0.0,0.0,0.0,0.0,0.0,0.0,0.0,0.0,0.0,0.0,0.0,0.0,0.0,0.0,0.0,0.0,0.0,0.0,0.0,0.0,0.0,0.0,0.0,0.0,0.0,0.0,0.0,0.0,0.0,0.0,0.0,0.0,0.0,0.0,0.0,0.0,0.0,0.0,0.0,0.0,0.0,0.0,0.0,0.0,0.0,0.0,0.0,0.0,0.0,2.1191,2.1177,2.141,2.1989,2.2366,2.2337,2.1954,2.165,2.1126,2.0352,0.0,0.0,0.0,0.0,0.0,0.0,0.0,0.0,0.0,0.0,0.0,0.0,0.0,0.0,0.0,0.0,0.0,0.0,0.0,0.0,0.0,0.0,0.0,0.0,0.0,0.0,0.0,0.0,0.0,0.0,0.0,0.0,0.0,0.0,0.0,0.0,0.0,0.0,0.0,2.1582,2.2017,0.0,0.0,0.0,0.0,0.0,0.0,0.0,0.0,1.9553,0.0,0.0,0.0,0.0,0.0,0.0,0.0,0.0,0.0,0.0,0.0,0.0,0.0,0.0,0.0,0.0,0.0,0.0,0.0,0.0,0.0,0.0,0.0,0.0,0.0,0.0,0.0,0.0,0.0,0.0,0.0,0.0,0.0,0.0,0.0,0.0,0.0,0.0,0.0,0.0,0.0,0.0,0.0,0.0,0.0,0.0,0.0,0.0,0.0,0.0,0.0,0.0,0.0,0.0,0.0,2.1293,2.2592,2.3372,2.3599,2.3784,2.3592,2.3006,2.2546,2.1815,0.0,0.0,0.0,0.0,0.0,0.0,0.0,0.0,0.0,0.0,0.0,0.0,0.0,0.0,0.0,0.0,0.0,0.0,0.0,0.0,0.0,0.0,0.0,0.0,0.0,0.0,0.0,0.0,0.0,0.0,0.0,0.0,0.0,0.0,0.0,0.0,0.0,0.0,0.0,0.0,2.2383,2.2647,2.2171,0.0,0.0,0.0,0.0,0.0,0.0,2.0548,2.0585,0.0,0.0,0.0,0.0,0.0,0.0,0.0,0.0,0.0,0.0,0.0,0.0,0.0,0.0,0.0,0.0,0.0,0.0,0.0,0.0,0.0,0.0,0.0,0.0,0.0,0.0,0.0,0.0,0.0,0.0,0.0,0.0,0.0,0.0,0.0,0.0,0.0,0.0,0.0,0.0,0.0,0.0,0.0,0.0,0.0,0.0,0.0,0.0,0.0,0.0,0.0,0.0,0.0,0.0,0.0,2.1336,2.3591,2.4911,2.5091,2.4946,2.4554,2.3929,2.3397,2.2372,0.0,0.0,0.0,0.0,0.0,0.0,0.0,0.0,0.0,0.0,0.0,0.0,0.0,0.0,0.0,0.0,0.0,0.0,0.0,0.0,0.0,0.0,0.0,0.0,0.0,0.0,0.0,0.0,0.0,0.0,0.0,0.0,0.0,0.0,0.0,0.0,0.0,0.0,0.0,0.0,0.0,2.3549,2.2767,2.2962,0.0,0.0,0.0,0.0,2.1979,2.2026,0.0,0.0,0.0,0.0,0.0,0.0,0.0,0.0,0.0,0.0,0.0,0.0,0.0,0.0,0.0,0.0,0.0,0.0,0.0,0.0,0.0,0.0,0.0,0.0,0.0,0.0,0.0,0.0,0.0,0.0,0.0,0.0,0.0,0.0,0.0,0.0,0.0,0.0,0.0,0.0,0.0,0.0,0.0,0.0,0.0,0.0,0.0,0.0,0.0,0.0,0.0,0.0,0.0,0.0,0.0,0.0,2.1801,2.3172,2.4268,2.5023,2.5082,2.4688,2.3905,2.3818,2.2904,0.0,0.0,0.0,0.0,0.0,0.0,0.0,0.0,0.0,0.0,0.0,0.0,0.0,0.0,0.0,0.0,0.0,0.0,0.0,0.0,0.0,0.0,0.0,0.0,0.0,0.0,0.0,0.0,0.0,0.0,0.0,0.0,0.0,0.0,0.0,0.0,0.0,0.0,0.0,0.0,0.0,2.5053,2.4247,2.3599,2.3442,0.0,0.0,2.3323,2.3816,2.4332,0.0,0.0,0.0,0.0,0.0,0.0,0.0,0.0,0.0,0.0,0.0,0.0,0.0,0.0,0.0,0.0,0.0,0.0,0.0,0.0,0.0,0.0,0.0,0.0,0.0,0.0,0.0,0.0,0.0,0.0,0.0,0.0,0.0,0.0,0.0,0.0,0.0,0.0,0.0,0.0,0.0,0.0,0.0,0.0,0.0,0.0,0.0,0.0,0.0,0.0,0.0,0.0,0.0,0.0,0.0,2.2049,2.3123,2.4868,2.5987,2.6376,2.6316,2.5766,2.4643,2.4244,2.3104,0.0,0.0,0.0,0.0,0.0,0.0,0.0,0.0,0.0,0.0,0.0,0.0,0.0,0.0,0.0,0.0,0.0,0.0,0.0,0.0,0.0,0.0,0.0,0.0,0.0,0.0,0.0,0.0,0.0,0.0,0.0,0.0,0.0,0.0,0.0,0.0,0.0,0.0,0.0,0.0,0.0,0.0,2.4823,2.4578,0.0,0.0,0.0,2.4105,2.4635,0.0,0.0,0.0,0.0,0.0,0.0,0.0,0.0,0.0,0.0,0.0,0.0,0.0,0.0,0.0,0.0,0.0,0.0,0.0,0.0,0.0,0.0,0.0,0.0,0.0,0.0,0.0,0.0,0.0,0.0,0.0,0.0,0.0,0.0,0.0,0.0,0.0,0.0,0.0,0.0,0.0,0.0,0.0,0.0,0.0,0.0,0.0,0.0,0.0,0.0,0.0,0.0,0.0,0.0,0.0,0.0,0.0,2.4179,2.6327,2.7437,2.7401,2.7325,2.6598,2.525,2.4679,0.0,0.0,0.0,0.0,0.0,0.0,0.0,0.0,0.0,0.0,0.0,0.0,0.0,0.0,0.0,0.0,0.0,0.0,0.0,0.0,0.0,0.0,0.0,0.0,0.0,0.0,0.0,1.614,0.0,0.0,0.0,0.0,0.0,0.0,0.0,0.0,0.0,0.0,0.0,0.0,0.0,0.0,2.6136,2.5729,2.5684,2.569,0.0,0.0,2.5141,2.5555,2.5757,2.5526,0.0,0.0,0.0,0.0,0.0,0.0,0.0,0.0,0.0,0.0,0.0,0.0,0.0,0.0,0.0,0.0,0.0,0.0,0.0,0.0,0.0,0.0,0.0,0.0,0.0,0.0,0.0,0.0,0.0,0.0,0.0,0.0,0.0,0.0,0.0,0.0,0.0,0.0,0.0,0.0,0.0,0.0,0.0,0.0,0.0,0.0,0.0,0.0,0.0,0.0,0.0,0.0,0.0,0.0,2.3517,2.4589,2.6548,2.7539,2.7401,2.7401,2.6688,2.5265,2.5162,2.3968,0.0,0.0,0.0,0.0,0.0,0.0,0.0,0.0,0.0,0.0,0.0,0.0,0.0,0.0,0.0,0.0,0.0,0.0,0.0,0.0,0.0,0.0,0.0,0.0,0.0,0.0,0.0,0.0,0.0,0.0,0.0,0.0,0.0,0.0,0.0,0.0,0.0,0.0,0.0,0.0,0.0,2.7966,2.7574,2.6857,2.6715,0.0,2.7132,2.6676,2.7005,2.7584,2.7193,2.4867,0.0,0.0,0.0,0.0,0.0,0.0,0.0,0.0,0.0,0.0,0.0,0.0,0.0,0.0,0.0,0.0,0.0,0.0,0.0,0.0,0.0,0.0,0.0,0.0,0.0,0.0,0.0,0.0,0.0,0.0,0.0,0.0,0.0,0.0,0.0,0.0,0.0,0.0,0.0,0.0,0.0,0.0,0.0,0.0,0.0,0.0,0.0,0.0,0.0,0.0,0.0,0.0,0.0,2.3978,2.5202,2.6806,2.7575,2.7539,2.7524,2.7066,2.6069,2.5595,2.4303,0.0,0.0,0.0,0.0,0.0,0.0,0.0,0.0,0.0,0.0,0.0,0.0,0.0,0.0,0.0,0.0,0.0,0.0,0.0,0.0,0.0,0.0,0.0,0.0,0.0,0.0,0.0,0.0,1.9275,1.9719,2.0832,0.0,0.0,0.0,0.0,0.0,0.0,0.0,0.0,0.0,0.0,2.7997,2.8003,2.7469,0.0,0.0,2.8521,2.8227,2.851,2.8778,2.8294,2.6351,2.6328,0.0,0.0,0.0,0.0,0.0,0.0,0.0,0.0,0.0,0.0,0.0,0.0,0.0,0.0,0.0,0.0,0.0,0.0,0.0,0.0,0.0,0.0,0.0,0.0,0.0,0.0,0.0,0.0,0.0,0.0,0.0,0.0,0.0,0.0,0.0,0.0,0.0,0.0,0.0,0.0,0.0,0.0,0.0,0.0,0.0,0.0,0.0,0.0,0.0,0.0,0.0,0.0,2.4379,2.5716,2.6999,2.7665,2.765,2.7625,2.7195,2.6318,2.5744,2.4536,0.0,0.0,0.0,0.0,0.0,0.0,0.0,0.0,0.0,0.0,0.0,0.0,0.0,0.0,0.0,0.0,0.0,0.0,0.0,0.0,0.0,0.0,0.0,0.0,0.0,0.0,0.0,0.0,2.0415,2.0806,2.137,0.0,0.0,0.0,0.0,0.0,0.0,0.0,0.0,0.0,0.0,2.8417,2.8689,2.8459,2.8642,2.9877,2.9589,2.9373,2.9797,2.9879,2.9402,2.8,0.0,0.0,0.0,0.0,0.0,0.0,0.0,0.0,0.0,0.0,0.0,0.0,0.0,0.0,0.0,0.0,0.0,0.0,0.0,0.0,0.0,0.0,0.0,0.0,0.0,0.0,0.0,1.9035,0.0,0.0,1.836,0.0,0.0,0.0,0.0,0.0,0.0,0.0,0.0,0.0,0.0,0.0,0.0,0.0,0.0,0.0,0.0,0.0,0.0,0.0,0.0,0.0,0.0,2.465,2.5978,2.7185,2.779,2.779,2.7675,2.6986,2.5719,2.5615,2.4687,2.2748,0.0,0.0,0.0,0.0,0.0,0.0,0.0,0.0,0.0,0.0,0.0,0.0,0.0,0.0,0.0,0.0,0.0,0.0,0.0,0.0,0.0,0.0,0.0,0.0,0.0,0.0,2.0233,2.0964,2.1464,0.0,0.0,0.0,0.0,0.0,0.0,0.0,0.0,0.0,2.7128,2.8491,2.9593,2.989,2.9882,3.0109,3.096,3.0368,3.0079,3.0858,3.0948,3.0654,0.0,0.0,0.0,0.0,0.0,0.0,0.0,0.0,0.0,0.0,0.0,0.0,0.0,0.0,0.0,0.0,0.0,0.0,0.0,0.0,0.0,0.0,0.0,0.0,0.0,0.0,0.0,2.1171,2.0955,0.0,0.0,0.0,0.0,0.0,0.0,0.0,0.0,0.0,0.0,0.0,2.4598,2.5224,0.0,0.0,0.0,0.0,0.0,0.0,0.0,0.0,0.0,0.0,0.0,0.0,2.5112,2.6009,2.7297,2.793,2.793,2.7905,2.7457,2.6557,2.6097,2.4722,2.2319,0.0,0.0,0.0,0.0,0.0,0.0,0.0,0.0,0.0,0.0,0.0,0.0,0.0,0.0,0.0,0.0,0.0,0.0,0.0,0.0,0.0,0.0,0.0,0.0,0.0,2.1617,0.0,0.0,0.0,0.0,0.0,0.0,0.0,0.0,0.0,0.0,0.0,2.7302,2.8037,2.9159,2.9946,3.007,3.0476,3.1045,0.0,0.0,0.0,0.0,0.0,0.0,0.0,0.0,0.0,0.0,0.0,0.0,0.0,0.0,3.1329,2.8585,2.8084,2.8047,2.7761,0.0,0.0,0.0,0.0,0.0,0.0,0.0,0.0,0.0,0.0,0.0,0.0,0.0,0.0,2.251,2.2255,2.1305,0.0,0.0,0.0,0.0,0.0,0.0,0.0,0.0,2.5392,2.6138,2.6226,2.6626,2.667,0.0,2.5918,2.483,0.0,0.0,0.0,0.0,0.0,0.0,0.0,0.0,2.5436,2.6138,2.7418,2.8079,2.8079,2.7801,2.7312,2.6669,2.5781,2.4368,2.2404,2.1269,2.0482,0.0,0.0,0.0,0.0,0.0,0.0,0.0,0.0,0.0,0.0,0.0,0.0,0.0,0.0,0.0,0.0,0.0,0.0,0.0,0.0,0.0,0.0,0.0,2.2932,0.0,0.0,0.0,0.0,0.0,0.0,0.0,0.0,0.0,2.7944,2.8133,2.856,2.9453,3.0368,3.0986,3.0973,0.0,0.0,0.0,0.0,0.0,0.0,0.0,3.1997,3.2032,3.1573,3.1273,3.1558,3.2288,3.2753,3.2567,0.0,0.0,3.0455,3.0231,3.0403,3.0123,3.081,3.126,3.0794,3.1195,3.1474,0.0,0.0,0.0,0.0,0.0,0.0,0.0,0.0,2.3847,2.3567,0.0,2.2491,0.0,0.0,0.0,0.0,2.3376,2.5525,0.0,0.0,2.7795,2.8057,2.7457,2.7442,2.7126,2.6495,2.6495,2.6449,2.6294,2.441,0.0,0.0,0.0,0.0,0.0,0.0,2.5665,2.6373,2.76,2.8195,2.8149,2.7409,2.6684,2.5986,2.4717,2.3736,2.3031,2.2363,2.144,2.0122,1.9465,0.0,0.0,0.0,0.0,0.0,0.0,0.0,0.0,0.0,0.0,0.0,0.0,0.0,0.0,0.0,0.0,0.0,0.0,0.0,0.0,2.3682,0.0,0.0,0.0,0.0,0.0,0.0,0.0,0.0,0.0,0.0,2.9818,2.986,3.0241,3.1249,0.0,0.0,0.0,0.0,3.2833,3.3607,3.3022,3.278,3.3583,3.3674,3.3623,3.3623,0.0,0.0,3.2588,3.3122,3.3506,3.2964,3.3617,3.4092,3.4012,3.3431,3.313,3.3248,3.276,3.2383,3.2454,3.2564,3.2564,2.6415,0.0,0.0,0.0,0.0,2.5859,2.6161,2.6512,2.6094,2.5596,2.5044,2.4874,0.0,0.0,0.0,0.0,0.0,0.0,2.6879,2.6957,2.8129,2.8591,2.842,2.8404,2.8295,2.8124,2.8109,2.786,2.7309,2.6741,2.5521,2.3763,0.0,0.0,0.0,0.0,2.6411,2.7103,2.7902,2.8117,2.7641,2.7394,2.6696,2.5531,2.4643,2.3892,2.3233,2.3038,2.2435,2.134,2.1108,0.0,0.0,0.0,0.0,0.0,0.0,0.0,0.0,0.0,0.0,0.0,0.0,0.0,0.0,0.0,0.0,0.0,0.0,0.0,2.3596,2.4248,2.476,0.0,0.0,0.0,0.0,0.0,0.0,0.0,0.0,0.0,3.1765,3.1434,3.117,0.0,0.0,3.2716,3.2596,3.3117,3.376,3.4532,3.4412,0.0,3.5402,3.5011,3.4613,3.4604,3.4124,3.3733,3.3702,3.4345,3.4692,3.4132,3.5326,3.6236,3.5593,3.485,3.4244,3.3945,3.4092,3.4338,3.4391,3.4399,3.4391,2.7714,2.718,2.6843,2.6806,2.7053,2.7114,2.752,2.8068,2.771,2.746,2.7337,2.7172,2.6691,2.6023,2.649,0.0,0.0,0.0,2.8381,2.8134,2.8847,2.906,2.8826,2.881,2.881,2.8794,2.8498,2.828,2.8116,2.7836,2.6989,2.5716,0.0,0.0,2.5329,2.6652,2.7403,2.7558,2.82,2.8355,2.7937,2.735,2.6385,2.5043,2.4538,2.4081,2.3702,2.3496,2.3107,2.2507,2.2122,2.175,0.0,0.0,0.0,0.0,0.0,0.0,0.0,0.0,0.0,0.0,0.0,2.3324,2.3129,0.0,0.0,0.0,2.4176,2.4229,2.4995,2.5719,0.0,0.0,0.0,0.0,0.0,0.0,0.0,3.1461,3.1501,3.1932,3.3179,3.3247,3.2982,3.2558,3.3247,3.3751,3.3661,0.0,3.5095,3.5519,3.5598,3.5749,3.6268,3.5895,3.5593,3.5661,3.5,3.471,3.5223,3.5731,3.5925,3.5857,3.6629,3.7251,3.6825,3.6045,3.5407,3.507,3.5373,3.5592,3.5297,3.5182,3.5182,2.8587,2.8505,2.742,2.7253,2.7773,2.7804,2.8195,2.8764,2.8838,2.914,2.9595,2.9209,2.9039,2.906,2.9197,0.0,2.9301,3.0344,3.0467,2.9826,2.985,2.9467,2.8834,2.8818,2.8818,2.8803,2.8131,2.8162,2.8756,2.8147,2.7835,2.7819,2.7927,2.7583,2.6898,2.8076,2.8412,2.7805,2.8467,2.8763,2.8685,2.7269,2.592,2.4683,2.4586,2.4529,2.4488,2.4118,2.385,2.3815,2.2945,2.2404,2.2356,0.0,0.0,0.0,0.0,0.0,0.0,0.0,0.0,0.0,0.0,0.0,0.0,0.0,0.0,0.0,2.6143,0.0,2.7123,2.7651,0.0,0.0,0.0,2.8881,2.8997,2.9855,3.079,3.1772,0.0,0.0,3.4309,3.5089,3.5268,3.437,3.4924,3.5423,3.5417,3.6022,3.6559,3.6636,3.6641,3.6652,3.6828,3.6703,3.666,3.6769,3.6174,3.5977,3.6761,3.7107,3.7233,3.7298,3.747,3.7547,3.7695,3.7058,3.6624,3.6583,3.6413,3.6126,3.5534,3.5373,3.5373,2.8587,2.856,2.8288,2.8248,2.8402,2.8886,2.9153,2.9355,2.9857,2.9957,2.9782,3.0116,3.0346,3.05,3.0538,3.0601,3.0707,3.0979,3.073,3.0124,3.0108,2.973,2.906,2.9021,2.9021,2.9006,2.8832,2.8848,2.9006,2.8848,2.8754,2.8785,2.9351,2.8896,2.7531,2.7812,2.8155,2.8545,2.8716,2.8514,2.7983,2.7103,2.6412,2.5914,2.6395,2.6558,2.6306,2.676,2.6869,2.6559,2.5806,2.5145,2.463,2.3108,0.0,0.0,0.0,0.0,0.0,0.0,0.0,0.0,0.0,2.6772,2.5135,0.0,2.6814,0.0,2.6854,2.7036,2.7988,2.819,0.0,0.0,3.1011,3.1356,3.1057,3.2286,3.3259,3.3567,3.4364,3.5213,3.603,3.629,3.6391,3.6302,3.6342,3.637,3.646,3.6634,3.7093,3.7774,3.793,3.8155,3.8607,3.83,3.7918,3.7995,3.7325,3.6952,3.7327,3.7945,3.8261,3.7921,3.8299,3.8423,3.794,3.7669,3.7554,3.7488,3.6526,3.572,3.6069,3.6194,3.6194,2.8798,2.9149,2.9135,2.9341,2.9642,2.9611,2.995,3.0496,3.0925,3.1154,3.1192,3.161,3.1854,3.2037,3.2021,3.2063,3.2155,3.2139,3.1776,3.1137,3.0805,3.0275,2.958,2.9256,2.9114,2.9114,2.9114,2.9114,2.9114,2.9114,2.9114,2.9114,2.971,2.9571,2.8688,2.8935,2.9141,2.9236,2.9448,2.9191,2.8485,2.8062,2.7476,2.6695,2.6983,2.7095,2.6934,2.7388,2.7538,2.7329,2.6839,2.6371,2.5982,2.4793,2.4381,0.0,0.0,0.0,0.0,0.0,0.0,0.0,0.0,0.0,0.0,0.0,2.8368,2.8245,2.8426,2.8883,2.9631,3.002,3.0701,3.1881,3.3066,3.3677,3.3413,3.4482,3.5274,3.5312,3.5739,3.6346,3.7127,3.7336,3.7592,3.8056,3.8094,3.7962,3.7706,3.7921,3.8411,3.8923,3.902,3.915,3.9607,3.8976,3.8593,3.8953,3.8474,3.8127,3.8659,3.8839,3.8818,3.8539,3.8498,3.8441,3.7972,3.7567,3.7459,3.7597,3.6535,3.5925,3.687,3.6815,3.6548,2.9218,2.9777,2.9924,3.0357,3.0881,3.0345,3.0718,3.1736,3.1918,3.2355,3.2924,3.3085,3.3203,3.3309,3.3293,3.3293,3.3293,3.3293,3.2929,3.226,3.1634,3.0939,3.0188,2.9564,2.9193,2.9114,2.9114,2.9114,2.9114,2.9114,2.9114,2.9121,2.9582,2.9793,2.9826,3.0498,3.052,2.9919,3.0288,3.0182,2.9553,2.9558,2.8864,2.7429,2.7401,2.7363,2.7238,2.745,2.7605,2.7674,2.7297,2.7114,2.7182,2.6607,2.6624,0.0,2.7279,0.0,0.0,0.0,0.0,0.0,0.0,0.0,0.0,2.9542,2.9855,2.9422,3.0308,3.1102,3.1634,3.2315,3.2931,3.3449,3.4767,3.5659,3.5677,3.6365,3.6866,3.6848,3.6941,3.7312,3.7976,3.8297,3.8749,3.9347,3.9599,3.9483,3.9068,3.9361,3.9747,3.9901,3.9893,3.9837,3.9804,3.9252,3.9105,3.9785,3.9528,3.9391,3.9985,3.958,3.9071,3.8879,3.8227,3.7747,3.7739,3.7087,3.6826,3.7506,3.6562,3.6147,3.7336,3.7156,3.6619,2.9929,2.9738,3.0566,3.1004,3.116,3.1491,3.1734,3.189,3.2468,3.2854,3.3069,3.3203,3.3266,3.3293,3.3293,3.3293,3.3293,3.3293,3.2945,3.2291,3.2165,3.1422,3.0236,3.0054,2.9674,2.9146,2.9114,2.9114,2.9114,2.9114,2.9114,2.9114,2.9566,2.9793,2.9832,0.0,0.0,0.0,3.0456,3.0431,3.0315,3.0866,3.0325,2.8656,2.97,0.0,2.9091,2.964,3.0292,3.0841,2.966,0.0,0.0,0.0,0.0,0.0,0.0,0.0,0.0,0.0,0.0,0.0,2.9611,2.9314,2.8858,3.0349,3.1222,3.0937,3.113,3.1948,3.3506,3.379,3.4451,3.5832,3.629,3.6463,3.6482,3.7201,3.7671,3.7671,3.83,3.8755,3.8894,3.9183,3.9475,3.9832,4.0082,4.0206,4.0212,4.0152,4.0195,4.0328,4.0471,4.0392,4.0364,4.0241,4.0232,4.0348,4.0329,4.0076,3.9707,3.9485,3.8985,3.8389,3.7497,3.694,3.6921,3.6274,3.6031,3.6786,3.6659,3.674,3.767,3.7214,3.66,3.012,3.0309,3.1375,3.1857,0.0,3.2801,3.2963,3.2614,3.2947,3.3139,3.3203,3.3282,3.3293,3.3293,3.3293,3.3293,3.3293,3.3293,3.3103,3.2771,3.2449,3.1912,3.1216,3.0536,2.999,2.9643,2.9256,2.9114,2.9114,2.9335,2.9448,2.9454,3.0118,3.0481,3.058,3.1223,3.1449,3.1142,3.1123,3.1159,3.1157,3.1532,3.1085,2.9875,3.0491,0.0,0.0,0.0,0.0,0.0,0.0,0.0,0.0,0.0,0.0,3.016,2.9619,2.9389,2.9771,2.9474,2.9646,3.0497,3.1114,3.1229,3.0804,3.1987,3.2829,3.3111,3.3663,3.4388,3.5318,3.5423,3.5925,3.7113,3.732,3.7482,3.791,3.8359,3.8646,3.8683,3.9008,3.9322,3.9389,3.963,3.9882,4.012,4.0326,4.05,4.0605,4.0858,4.1204,4.1744,4.1828,4.1828,4.1828,4.1786,4.1771,4.179,4.1798,4.1451,4.0719,4.0234,3.9548,3.8315,3.7332,3.6658,3.6215,3.5811,3.5791,3.6478,3.6407,3.6406,3.7132,3.6956,3.6642,3.0291,3.0984,3.2094,3.257,3.266,3.37,3.3814,3.3293,0.0,0.0,0.0,3.3356,3.3293,3.3293,3.3293,3.3293,3.3293,3.3293,3.3293,3.3277,3.275,3.2418,3.2244,3.0995,3.033,3.0172,2.9446,2.9208,2.9434,2.9675,2.9918,3.0174,3.0814,3.1237,3.1449,3.1893,3.2036,3.1873,3.1855,3.1855,3.1855,3.1976,3.1613,3.0749,3.0888,3.087,3.0767,3.0785,3.0578,3.0058,3.0021,3.0054,3.0193,3.0106,3.0662,3.1986,3.2004,3.2039,3.2214,3.2161,3.2018,3.178,3.2842,3.3391,3.3138,3.38,3.4544,3.5257,3.6186,3.6775,3.6942,3.6948,3.7277,3.8082,3.8229,3.8516,3.9112,3.9315,3.9349,3.9386,3.9419,3.9514,3.9625,3.9912,4.0148,4.0309,4.0508,4.0828,4.1033,4.1366,4.1866,4.2806,4.2779,4.2883,4.3134,4.3054,4.3108,4.2973,4.3031,4.278,4.1882,4.1114,3.9951,3.808,3.7257,3.6537,3.581,3.563,3.5842,3.6453,3.6036,3.5727,3.6369,3.6542,3.6483,3.1243,3.1337,3.2388,3.2728,3.2656,3.3186,3.3388,3.3293,3.3293,3.3609,3.4115,3.3546,3.3293,3.3293,3.3293,3.3293,3.3293,3.3293,3.3293,3.3293,3.3198,3.285,3.226,3.1444,3.0749,3.0188,2.9469,2.9637,3.048,3.0101,3.0332,3.1286,3.1328,3.1506,3.1965,3.2055,3.2073,3.2072,3.2055,3.2055,3.2072,3.2663,3.2315,3.0994,3.155,3.1568,3.0907,3.0907,3.1168,3.1707,3.1098,3.1063,3.1707,3.1219,3.1306,3.2057,3.1654,3.1635,3.2318,3.2004,3.2414,3.3924,3.5144,3.54,3.4407,3.5286,3.6117,3.6513,3.6795,3.7156,3.7791,3.7891,3.8226,3.9024,3.9192,3.9261,3.9373,3.9373,3.9418,3.9418,3.9601,3.9735,3.9799,4.0158,4.0433,4.0516,4.0865,4.13,4.2311,4.1652,4.1579,4.2678,4.2563,4.2466,4.3188,4.3211,4.3327,4.3173,4.3262,4.2799,4.1437,4.0961,3.9946,3.7508,3.707,3.6582,3.5835,3.5617,3.5681,3.5874,3.5675,3.5688,3.5855,3.5836,3.5798,3.1353,3.1483,3.2766,3.3041,3.2629,3.3091,3.3514,3.3783,3.3451,3.3467,3.3719,3.3435,3.3293,3.3293,3.3293,3.3293,3.3293,3.3293,3.3293,3.3293,3.3293,3.3151,3.274,3.1713,3.1255,3.1248,3.0212,3.0321,3.1378,3.0997,3.121,3.2015,3.1867,3.1912,3.2161,3.2232,3.2249,3.2249,3.2161,3.209,3.209,3.2421,3.2265,3.1568,3.1951,3.1934,3.1568,3.1568,3.1603,3.1551,3.1236,3.1252,3.1567,3.1321,3.1496,3.2231,3.2003,3.2069,3.2587,3.3042,3.3623,3.4516,3.6115,3.6827,3.6307,3.6865,3.7352,3.7511,3.7935,3.8377,3.8769,3.8807,3.8975,3.9349,3.9431,3.9457,3.9457,3.9495,3.9502,3.9527,3.9708,3.9884,4.001,4.0304,4.0766,4.1205,4.1751,4.2628,4.3782,4.293,4.2658,4.4192,4.4288,4.4211,4.4513,4.4614,4.4626,4.4619,4.4213,4.3434,4.2263,4.1736,4.0514,3.8723,3.7905,3.7249,3.6476,3.5935,3.5722,3.5645,3.5633,3.5608,3.5608,3.5618,3.5582,3.1365,3.1554,3.2883,3.3153,3.2823,3.3318,3.3735,3.402,3.3688,3.3435,3.3309,3.3293,3.3293,3.3293,3.3293,3.3293,3.3293,3.3293,3.3293,3.3293,3.3293,3.3293,3.3151,3.1871,3.1571,3.2038,3.0774,3.0765,3.1968,3.1697,3.1773,3.2273,3.2279,3.2249,3.2249,3.2354,3.2406,3.2388,3.2249,3.2161,3.2179,3.2179,3.2144,3.2179,3.2161,3.2161,3.2179,3.2197,3.1987,3.1427,3.1442,3.1475,3.1474,3.1475,3.1739,3.2335,3.2406,3.2644,3.3225,3.4519,3.533,3.542,3.7064,3.8099,3.8126,3.83,3.8434,3.8496,3.9013,3.94,3.9419,3.9419,3.9457,3.9457,3.9476,3.952,3.9533,3.9552,3.9608,3.9626,3.9804,4.0068,4.0415,4.0674,4.1249,4.2176,4.3053,4.3866,4.4381,4.4098,4.4523,4.5278,4.5664,4.549,4.5729,4.574,4.5706,4.5783,4.5042,4.4126,4.3245,4.2492,4.1371,3.9765,3.8914,3.8193,3.7381,3.6762,3.6317,3.6162,3.6035,3.5883,3.5676,3.5655,3.5648,3.1495,3.1923,3.2502,3.2924,3.3277,3.3909,3.3862,3.3514,3.3941,3.3862,3.3324,3.3293,3.3293,3.3293,3.3293,3.3293,3.3293,3.3293,3.3293,3.3293,3.3293,3.3293,3.3182,3.1887,3.1586,3.2057,3.0553,3.0898,3.2713,3.1733,3.1492,3.2142,3.2336,3.2388,3.2371,3.2388,3.2406,3.2406,3.2371,3.2354,3.2388,3.2388,3.2388,3.2354,3.2388,3.2371,3.2371,3.2388,3.2353,3.2283,3.2265,3.2283,3.2265,3.2265,3.2318,3.2388,3.2423,3.299,3.438,3.6295,3.7433,3.7826,3.8663,3.9275,3.9275,3.9383,3.9427,3.9389,3.9483,3.9564,3.9583,3.9583,3.9583,3.9571,3.9583,3.9608,3.9596,3.9608,3.9608,3.962,3.9984,4.0463,4.1102,4.1636,4.2247,4.3047,4.3943,4.4516,4.471,4.5104,4.5336,4.5568,4.5258,4.5142,4.5606,4.58,4.5754,4.5696,4.5097,4.4181,4.3272,4.237,4.1467,3.9907,3.9307,3.8818,3.8315,3.7961,3.7618,3.698,3.6742,3.6588,3.5958,3.5825,3.5882,3.1892,3.2355,3.2807,3.3118,3.3356,3.3593,3.3561,3.3356,3.3577,3.3546,3.3324,3.3293,3.3293,3.3293,3.3293,3.3293,3.3293,3.3293,3.3293,3.3293,3.3293,3.3372,3.3417,3.2567,3.2515,3.3251,3.2168,3.2557,3.3912,3.3481,3.2814,3.2354,3.2371,3.2406,3.2406,3.2406,3.2406,3.2406,3.2406,3.2406,3.2406,3.2406,3.2406,3.2406,3.2406,3.2406,3.2406,3.2406,3.2406,3.2406,3.2406,3.2406,3.2406,3.2406,3.2406,3.2458,3.3246,3.4011,3.4724,3.6776,3.8046,3.8147,3.9046,3.9558,3.9558,3.9577,3.9577,3.9571,3.9577,3.9608,3.9608,3.9608,3.9608,3.9608,3.9608,3.9608,3.9608,3.9608,3.9638,3.9804,4.0468,4.1044,4.1667,4.2733,4.3581,4.4117,4.4775,4.5239,4.5316,4.5606,4.5768,4.5761,4.549,4.5452,4.5749,4.5807,4.5613,4.5104,4.4388,4.3556,4.2686,4.1351,4.0236,3.9597,3.9243,3.8837,3.8251,3.8212,3.8057,3.7677,3.7671,3.7535,3.7212,3.6852,3.6641,3.2173,3.2656,3.3091,3.3293,3.3293,3.3293,3.3293,3.3293,3.3293,3.3293,3.3293,3.3293,3.3293,3.3293,3.3293,3.3293,3.3309,3.3372,3.3398,3.3424,3.3477,3.3633,3.3716,3.314,3.3272,3.3841,3.3331,3.3713,3.489,3.4508,3.3703,3.2809,3.2511,3.2406,3.2406,3.2406,3.2406,3.2406,3.2406,3.2406,3.2406,3.2406,3.2406,3.2406,3.2406,3.2406,3.2406,3.2406,3.2406,3.2406,3.2422,3.2456,3.2456,3.2525,3.2664,3.3044,3.4261,3.5253,3.568,3.7484,3.8577,3.8633,3.9245,3.9608,3.9608,3.9608,3.9608,3.9608,3.9608,3.9608,3.9608,3.9608,3.9608,3.9608,3.9608,3.9608,3.9608,3.9608,3.9774,4.0203,4.088,4.175,4.251,4.3861,4.491,4.4987,4.5394,4.5645,4.5587,4.5606,4.5722,4.5555,4.5606,4.5787,4.5807,4.5807,4.5432,4.4717,4.3956,4.3111,4.2164,4.0732,3.9907,4.0081,3.9282,3.905,3.9262,3.9108,3.874,3.8566,3.8411,3.8276,3.798,3.7556,3.7306,3.2173,3.2656,3.3091,3.3293,3.3293,3.3293,3.3293,3.3293,3.3293,3.3293,3.3293,3.3293,3.3293,3.3309,3.3319,3.3293,3.3335,3.3539,3.3658,3.371,3.3924,3.405,3.4011,3.3429,3.347,3.4079,3.3509,3.3579,3.4313,3.3873,3.3529,3.3442,3.2809,3.2441,3.2458,3.2441,3.2406,3.2406,3.2406,3.2406,3.2406,3.2406,3.2406,3.2406,3.2406,3.2406,3.2406,3.2406,3.2406,3.2406,3.2523,3.2589,3.2606,3.2789,3.3335,3.4285,3.5455,3.6574,3.7553,3.8726,3.9477,3.9514,3.9533,3.9608,3.9608,3.9608,3.9608,3.9608,3.9608,3.9608,3.9608,3.9608,3.9608,3.9608,3.9608,3.9608,3.9627,3.9739,4.0061,4.084,4.1425,4.2426,4.4158,4.5193,4.549,4.5555,4.5691,4.5452,4.4891,4.5258,4.5355,4.5007,4.52,4.578,4.5768,4.5807,4.5452,4.4601,4.3685,4.2957,4.2144,4.1371,4.0932,4.0603,4.0216,4.0158,4.0526,4.0468,4.0062,3.9617,3.8926,3.8675,3.8868,3.7769,3.7459,3.2355,3.3065,3.324,3.3293,3.3293,3.3293,3.3293,3.3293,3.3293,3.3293,3.3293,3.3293,3.3293,3.3293,3.3477,3.3539,3.3581,3.3642,3.3771,3.3949,3.405,3.4201,3.4317,3.4097,3.421,3.4535,3.4545,3.4631,3.4889,3.4922,3.4722,3.4196,3.3477,3.309,3.302,3.2634,3.2406,3.2406,3.2406,3.2406,3.2406,3.2406,3.2406,3.2406,3.2406,3.2406,3.2406,3.249,3.2523,3.2506,3.2706,3.2804,3.2872,3.3472,3.4303,3.5314,3.6548,3.7433,3.7979,3.8977,3.9608,3.9608,3.9608,3.9608,3.9608,3.9608,3.9608,3.9608,3.9608,3.9608,3.9608,3.9608,3.9608,3.9608,3.9608,3.9815,4.0247,4.0378,4.0741,4.173,4.2593,4.3805,4.4788,4.52,4.5026,4.4968,4.4581,4.4175,4.402,4.4485,4.4736,4.4156,4.4446,4.4833,4.4214,4.522,4.5413,4.4272,4.3305,4.2492,4.168,4.0758,4.0164,4.0209,4.0248,4.0267,4.0312,4.0608,4.0395,4.0382,3.9685,3.9549,3.9892,3.8712,3.8256,3.2715,3.324,3.3293,3.3293,3.3293,3.3293,3.3293,3.3293,3.3293,3.3293,3.3293,3.3293,3.3319,3.345,3.3633,3.3822,3.3949,3.3975,3.405,3.4226,3.4325,3.4448,3.4594,3.4618,3.4763,3.5095,3.5538,3.5758,3.5826,3.5801,3.5406,3.467,3.3898,3.3371,3.3108,3.2651,3.2406,3.2406,3.2406,3.2406,3.2423,3.2651,3.2634,3.2476,3.2634,3.2634,3.2441,3.2523,3.2588,3.2621,3.2834,3.3024,3.3216,3.4033,3.5056,3.6142,3.723,3.8072,3.8526,3.9208,3.9608,3.9608,3.9608,3.9608,3.9608,3.9608,3.9608,3.9608,3.9608,3.9608,3.9608,3.9608,3.9608,3.9608,3.9608,3.9946,4.0666,4.0778,4.1424,4.2658,4.3848,4.4875,4.5532,4.529,4.5104,4.4987,4.424,4.3686,4.3473,4.375,4.3912,4.3195,4.3666,4.3892,4.3699,4.4305,4.4331,4.3299,4.2944,4.2112,4.1448,4.0461,4.0022,3.995,3.9917,3.9917,4.0117,4.049,4.0676,4.0779,4.0591,4.0319,4.0114,3.9636,3.9245,3.3282,3.3293,3.3293,3.3293,3.3293,3.3293,3.3293,3.3293,3.3293,3.3293,3.3309,3.3309,3.345,3.3642,3.3761,3.4,3.4374,3.4448,3.4472,3.4521,3.4715,3.4851,3.4875,3.4875,3.5055,3.5407,3.6088,3.6609,3.6808,3.6231,3.5583,3.4794,3.4039,3.3389,3.2529,3.2546,3.2406,3.2406,3.2406,3.2441,3.2493,3.302,3.3038,3.2616,3.309,3.3143,3.2511,3.2574,3.2621,3.2672,3.2999,3.3334,3.3952,3.4704,3.5575,3.6803,3.764,3.8502,3.9383,3.957,3.9608,3.9608,3.9608,3.9608,3.9608,3.9608,3.9608,3.9608,3.9608,3.9608,3.9608,3.9608,3.9646,3.9627,3.9683,3.9946,4.0741,4.0929,4.1642,4.3533,4.4748,4.55,4.5711,4.5575,4.5439,4.5311,4.4789,4.4053,4.3453,4.3485,4.3083,4.2598,4.2819,4.3136,4.3233,4.3278,4.2769,4.2286,4.2267,4.1899,4.1569,4.0845,4.1044,4.1011,4.0862,4.0843,4.0751,4.1028,4.0782,4.0826,4.0812,4.0798,4.0451,4.0097,4.0046,3.3293,3.3293,3.3293,3.3293,3.3293,3.3293,3.3293,3.3293,3.3293,3.3293,3.3335,3.3503,3.3633,3.3771,3.4075,3.4349,3.4521,3.4667,3.478,3.4763,3.4875,3.4899,3.4899,3.4923,3.5211,3.5666,3.595,3.6409,3.6838,3.6744,3.6461,3.6094,3.4935,3.425,3.3845,3.2967,3.2406,3.2406,3.2406,3.2634,3.3055,3.288,3.2862,3.3178,3.3512,3.3581,3.3369,3.3006,3.2868,3.2965,3.3702,3.474,3.5919,3.6581,3.7322,3.8327,3.8845,3.9177,3.9521,3.9608,3.9608,3.9608,3.9608,3.9608,3.9608,3.9608,3.9608,3.9608,3.9608,3.9608,3.9608,3.9608,3.989,4.0347,3.9946,4.0434,4.2074,4.2919,4.3756,4.4533,4.5091,4.5417,4.5599,4.5472,4.5118,4.5028,4.4415,4.3722,4.349,4.3366,4.3055,4.2363,4.2532,4.2358,4.2197,4.2139,4.1862,4.1709,4.1736,4.1949,4.1656,4.1552,4.179,4.1898,4.1768,4.1574,4.1502,4.1269,4.0969,4.0858,4.0868,4.0824,4.0761,4.0607,4.0431,3.3293,3.3293,3.3293,3.3293,3.3293,3.3293,3.3293,3.3293,3.3293,3.3293,3.3346,3.3565,3.3745,3.3924,3.4325,3.4562,3.4659,3.4828,3.4899,3.4899,3.4899,3.4899,3.4947,3.5048,3.5339,3.5842,3.6054,3.643,3.6987,3.6989,3.6849,3.6373,3.5565,3.4758,3.4337,3.3634,3.3055,3.2546,3.2669,3.2915,3.3003,3.2915,3.2915,3.3178,3.3564,3.3825,3.3942,3.3609,3.3598,3.4031,3.4695,3.5666,3.6857,3.7376,3.8048,3.8749,3.9314,3.9589,3.9608,3.9608,3.9608,3.9608,3.9608,3.9608,3.9608,3.9608,3.9608,3.9608,3.9908,4.004,4.0096,4.0378,4.086,4.1701,4.076,4.111,4.2938,4.4026,4.4637,4.5003,4.5194,4.5408,4.5561,4.5506,4.5099,4.4989,4.4412,4.3887,4.3757,4.3316,4.274,4.2183,4.1872,4.1537,4.1042,4.0945,4.093,4.1075,4.1272,4.1685,4.1826,4.1909,4.2089,4.228,4.2251,4.1752,4.1597,4.1189,4.0883,4.0893,4.0893,4.0869,4.0806,4.0631,4.0468,3.3293,3.3293,3.3293,3.3293,3.3293,3.3293,3.3293,3.3293,3.3293,3.3319,3.3372,3.3658,3.3873,3.4126,3.4448,3.4667,3.4851,3.4899,3.4899,3.4899,3.4899,3.4899,3.4947,3.5142,3.5476,3.5885,3.622,3.6609,3.697,3.6989,3.6619,3.6092,3.5846,3.5125,3.4248,3.4407,3.3845,3.2809,3.3143,3.3143,3.2634,3.3038,3.3213,3.282,3.3489,3.4031,3.4367,3.4643,3.4965,3.5501,3.5754,3.6191,3.6684,3.7368,3.8106,3.8558,3.9183,3.9514,3.9608,3.9608,3.9608,3.9608,3.9608,3.9608,3.9608,3.9608,3.9608,3.9646,4.0265,4.0722,4.0835,4.1342,4.222,4.3051,4.2121,4.2094,4.3115,4.4021,4.4594,4.4949,4.5139,4.5331,4.5698,4.5712,4.5828,4.5704,4.5179,4.4846,4.4309,4.3601,4.2554,4.199,4.1592,4.1194,4.0849,4.0854,4.0859,4.0912,4.1168,4.1659,4.244,4.2731,4.2911,4.3024,4.2665,4.2126,4.1626,4.1272,4.0976,4.0903,4.0903,4.0888,4.0825,4.0689,4.0621,3.3293,3.3293,3.3293,3.3293,3.3293,3.3293,3.3293,3.3293,3.3309,3.344,3.3633,3.3873,3.4126,3.4382,3.4667,3.4835,3.4899,3.4899,3.4899,3.4899,3.4899,3.4899,3.4899,3.5001,3.5339,3.5842,3.6075,3.6388,3.695,3.6989,3.6847,3.6673,3.611,3.5652,3.5248,3.4898,3.4196,3.3353,3.3371,3.3424,3.3196,3.2913,3.3086,3.3544,3.3938,3.4512,3.5253,3.6484,3.6911,3.662,3.681,3.7348,3.805,3.853,3.8864,3.9171,3.942,3.9608,3.9608,3.9608,3.9608,3.9608,3.9608,3.9608,3.9608,3.9608,3.9608,3.9739,4.0322,4.0854,4.0947,4.1605,4.2509,4.3309,4.3416,4.3466,4.3591,4.4052,4.4461,4.4355,4.4823,4.5066,4.5104,4.5516,4.585,4.5792,4.5556,4.5243,4.4485,4.3753,4.2656,4.2053,4.1582,4.1175,4.0898,4.0883,4.0883,4.0878,4.1223,4.1825,4.2951,4.4102,4.4316,4.4515,4.3428,4.2748,4.2034,4.149,4.1257,4.1005,4.0888,4.0888,4.0888,4.0806,4.0806,3.3293,3.3293,3.3293,3.3293,3.3293,3.3293,3.3293,3.3335,3.344,3.3555,3.3761,3.4101,3.4349,3.4521,3.478,3.4899,3.4899,3.4899,3.4899,3.4899,3.4899,3.4899,3.4947,3.5024,3.5385,3.5864,3.6075,3.6471,3.6911,3.6989,3.6989,3.6902,3.6549,3.6145,3.5757,3.5759,3.4881,3.3863,3.3775,3.3775,3.3142,3.3122,3.345,3.4013,3.4492,3.5215,3.6179,3.7471,3.7938,3.7642,3.7726,3.8138,3.8803,3.9073,3.9322,3.9596,3.9608,3.9608,3.9608,3.9608,3.9608,3.9608,3.9608,3.9608,3.9608,3.9608,3.9664,4.0171,4.0835,4.1398,4.1918,4.2673,4.3454,4.412,4.4605,4.4638,4.4115,4.4083,4.4111,4.413,4.4393,4.4613,4.4239,4.4957,4.5174,4.5024,4.4777,4.4535,4.4166,4.3471,4.2792,4.2092,4.151,4.1082,4.0903,4.0888,4.0888,4.0888,4.1816,4.2325,4.3199,4.4715,4.5084,4.4928,4.4074,4.3272,4.252,4.1859,4.1471,4.1238,4.1043,4.0888,4.0888,4.0888,4.0888,3.323,3.3293,3.3293,3.3293,3.3293,3.3293,3.3256,3.3261,3.3533,3.3656,3.377,3.4251,3.4513,3.4546,3.4828,3.4899,3.4899,3.4899,3.4899,3.4899,3.4899,3.4899,3.4947,3.5195,3.5543,3.5924,3.6301,3.665,3.6911,3.6989,3.6989,3.6972,3.6954,3.6619,3.6268,3.6586,3.5723,3.4408,3.4567,3.4287,3.3563,3.3735,3.4204,3.4544,3.5325,3.5999,3.6855,3.7738,3.8171,3.8223,3.8433,3.8628,3.8925,3.9106,3.9335,3.954,3.9608,3.9608,3.9608,3.9608,3.9608,3.9608,3.9608,3.9608,3.9608,3.9608,3.9908,4.0591,4.1529,4.228,4.3267,4.4272,4.468,4.4881,4.5053,4.5068,4.4834,4.4225,4.3813,4.3981,4.4109,4.4068,4.384,4.4092,4.4579,4.4704,4.4302,4.3835,4.351,4.2908,4.2364,4.1879,4.1374,4.0966,4.0888,4.0888,4.0888,4.1005,4.2359,4.3117,4.3374,4.4423,4.5122,4.5064,4.4132,4.3452,4.2928,4.2345,4.1723,4.1276,4.0946,4.0888,4.0888,4.0888,4.0888,3.2803,3.3293,3.3293,3.3293,3.3293,3.3293,3.3123,3.28,3.3444,3.3611,3.3657,3.417,3.4602,3.4787,3.4875,3.4899,3.4899,3.4899,3.4899,3.4899,3.4899,3.4899,3.4994,3.5241,3.5588,3.5924,3.6301,3.6687,3.6928,3.6989,3.6989,3.6989,3.6989,3.6919,3.6796,3.6796,3.6496,3.5514,3.561,3.526,3.4658,3.4792,3.5172,3.5395,3.6196,3.6711,3.7087,3.7774,3.8254,3.843,3.8649,3.8833,3.8964,3.9269,3.9496,3.9564,3.9608,3.9608,3.9608,3.9608,3.9608,3.9608,3.9608,3.9608,3.9608,3.9608,4.0002,4.0741,4.1535,4.2658,4.4075,4.4663,4.4955,4.5103,4.5181,4.5243,4.5162,4.4836,4.4168,4.377,4.4306,4.4747,4.3677,4.4122,4.4384,4.4345,4.3821,4.3219,4.2733,4.2267,4.1917,4.149,4.1257,4.0888,4.0888,4.0888,4.0888,4.1063,4.2325,4.3214,4.3491,4.4229,4.4948,4.4792,4.4132,4.3627,4.3433,4.2267,4.1548,4.1199,4.0927,4.0888,4.0888,4.0888,4.0893,3.1997,3.2345,3.2703,3.2819,3.2892,3.3292,3.3141,3.2823,3.3297,3.3494,3.3523,3.3961,3.4449,3.4883,3.4899,3.4899,3.4899,3.4899,3.4899,3.4899,3.4899,3.4899,3.5024,3.5362,3.5749,3.5955,3.6471,3.6849,3.6968,3.6989,3.6989,3.6989,3.6989,3.6989,3.6989,3.6989,3.6626,3.605,3.602,3.5812,3.5381,3.5767,3.64,3.6702,3.7272,3.7557,3.7647,3.7955,3.8269,3.851,3.8758,3.895,3.9078,3.938,3.9596,3.9608,3.9608,3.9608,3.9608,3.9608,3.9608,3.9608,3.9608,3.9608,3.9608,3.9608,4.0228,4.1098,4.188,4.2741,4.4512,4.4907,4.5057,4.517,4.5246,4.5277,4.5239,4.4872,4.4391,4.3788,4.4091,4.4046,4.3898,4.4044,4.3607,4.3316,4.252,4.1937,4.1859,4.1471,4.1393,4.114,4.1024,4.0888,4.0888,4.0888,4.0888,4.1199,4.1917,4.25,4.2772,4.3743,4.4812,4.4598,4.4501,4.4443,4.4074,4.2772,4.1781,4.1607,4.1432,4.1102,4.0888,4.0888,4.0888,3.1128,3.1255,3.188,3.2159,3.2346,3.3128,3.3136,3.2683,3.3152,3.3441,3.3461,3.3621,3.3965,3.4568,3.4667,3.475,3.4899,3.4899,3.4899,3.4899,3.4899,3.497,3.5142,3.5549,3.5929,3.6041,3.6406,3.674,3.6917,3.6865,3.6796,3.6937,3.6989,3.6989,3.6989,3.7011,3.6842,3.6427,3.6504,3.6417,3.6158,3.6655,3.7315,3.7814,3.8011,3.8082,3.8082,3.8189,3.8323,3.8541,3.8788,3.9021,3.9256,3.9445,3.9608,3.9608,3.9608,3.9608,3.9608,3.9608,3.9608,3.9608,3.9796,3.9815,3.9852,4.0171,4.091,4.1768,4.2607,4.3265,4.4724,4.5022,4.5129,4.5246,4.5297,4.5277,4.5185,4.4729,4.4566,4.431,4.4436,4.446,4.3826,4.3549,4.2869,4.2214,4.1432,4.0888,4.0888,4.0907,4.0966,4.0985,4.0927,4.0888,4.0888,4.0888,4.0888,4.116,4.1704,4.2015,4.235,4.3297,4.4345,4.5122,4.5161,4.487,4.4481,4.3588,4.2792,4.2364,4.184,4.1432,4.116,4.0946,4.0888,3.0686,3.1198,3.1349,3.1521,3.1804,3.2542,3.2684,3.2516,3.3041,3.3501,3.3604,3.316,3.3299,3.3822,3.3972,3.4303,3.4783,3.4899,3.4899,3.4899,3.4923,3.5001,3.5333,3.5683,3.6037,3.6215,3.6284,3.6391,3.6726,3.6391,3.6566,3.6902,3.6989,3.6989,3.7048,3.7145,3.7188,3.709,3.7255,3.7326,3.7412,3.7604,3.7852,3.8209,3.8209,3.8209,3.8209,3.8225,3.8387,3.8788,3.8881,3.9138,3.9425,3.9564,3.9608,3.9608,3.9608,3.9608,3.9608,3.9608,3.9608,3.9739,4.0153,4.0528,4.0685,4.1186,4.185,4.2778,4.3685,4.4449,4.4969,4.5103,4.5159,4.5246,4.5277,4.5288,4.5311,4.5264,4.5062,4.47,4.4917,4.5001,4.4231,4.3394,4.2694,4.217,4.1529,4.1043,4.0888,4.0888,4.0907,4.0927,4.0907,4.0888,4.0888,4.0888,4.0907,4.1063,4.1471,4.1825,4.2267,4.3005,4.3821,4.4307,4.4559,4.4268,4.3971,4.3777,4.3199,4.2325,4.1976,4.1684,4.1276,4.0888,4.0888,2.9832,3.0164,3.0616,3.0895,3.1206,3.2079,3.2429,3.2335,3.2432,3.2766,3.2906,3.2514,3.2547,3.316,3.3673,3.4187,3.47,3.4899,3.4899,3.4899,3.4923,3.5055,3.5424,3.5771,3.5822,3.5896,3.583,3.6233,3.6919,3.6654,3.6584,3.6867,3.6989,3.7029,3.7143,3.7239,3.741,3.7576,3.7793,3.7951,3.8056,3.8175,3.8192,3.8209,3.8209,3.8209,3.8225,3.8322,3.8528,3.8833,3.8993,3.9242,3.9489,3.9608,3.9608,3.9608,3.9608,3.9608,3.9608,3.9608,3.9608,3.9683,4.0378,4.076,4.1029,4.1575,4.2561,4.3454,4.431,4.4943,4.5072,4.5159,4.5224,4.5267,4.5297,4.5338,4.5429,4.5593,4.5383,4.4977,4.4595,4.4492,4.448,4.3627,4.2714,4.2073,4.1607,4.1335,4.1121,4.114,4.1257,4.1063,4.1063,4.0985,4.0946,4.0888,4.0888,4.1043,4.1296,4.1665,4.1781,4.2325,4.2694,4.3102,4.3238,4.3413,4.351,4.3335,4.2772,4.2291,4.1801,4.1393,4.1102,4.0888,4.0888,2.9137,2.9238,2.997,3.0348,3.0615,3.1629,3.2128,3.2097,3.1973,3.2326,3.2729,3.2095,3.2045,3.2646,3.3143,3.3707,3.4435,3.4518,3.4618,3.4698,3.4934,3.5195,3.5521,3.5774,3.5918,3.5673,3.6027,3.6285,3.6549,3.6566,3.6689,3.6781,3.6833,3.6983,3.7011,3.7285,3.7541,3.7793,3.7951,3.8056,3.8158,3.8209,3.8209,3.8209,3.8209,3.8209,3.8225,3.8368,3.8603,3.8859,3.9092,3.9322,3.9552,3.9608,3.9608,3.9608,3.9608,3.9608,3.9608,3.9608,3.9702,3.9984,4.0628,4.1054,4.1657,4.2461,4.3207,4.3938,4.4558,4.5084,4.514,4.5224,4.5286,4.5297,4.5307,4.5348,4.5438,4.5565,4.5696,4.5168,4.4339,4.433,4.4734,4.4345,4.353,4.318,4.2733,4.2287,4.2073,4.1917,4.1859,4.1471,4.1276,4.114,4.1043,4.0907,4.0888,4.0946,4.1257,4.1626,4.1471,4.1393,4.184,4.2369,4.2306,4.25,4.2694,4.2986,4.2753,4.2325,4.1626,4.1179,4.1005,4.0907,4.0888,2.9236,2.9464,2.9582,2.9845,3.0321,3.1084,3.1512,3.1748,3.2243,3.2978,3.3375,3.2277,3.2017,3.2415,3.21,3.2398,3.3011,3.364,3.3995,3.4167,3.4821,3.5391,3.5837,3.6241,3.6079,3.5813,3.6369,3.6408,3.6145,3.5987,3.6057,3.6236,3.6792,3.7013,3.677,3.7381,3.7846,3.7916,3.8072,3.8157,3.8174,3.8209,3.8209,3.8209,3.8209,3.8225,3.8276,3.8449,3.8664,3.8906,3.9101,3.9335,3.9552,3.9608,3.9608,3.9608,3.9608,3.9608,3.9608,3.9721,3.9984,4.0534,4.136,4.2214,4.2995,4.3749,4.4419,4.484,4.5076,4.514,4.5224,4.5267,4.5277,4.5277,4.5307,4.5309,4.538,4.5593,4.5723,4.5673,4.4971,4.5204,4.5555,4.5006,4.4443,4.4171,4.3821,4.3335,4.2845,4.2558,4.2306,4.1859,4.1354,4.1179,4.1043,4.0927,4.1102,4.1043,4.1374,4.1743,4.1859,4.1781,4.1471,4.184,4.1801,4.1956,4.2364,4.2636,4.2733,4.2306,4.1548,4.1199,4.1005,4.0946,4.0888,2.9747,2.9515,2.9649,2.987,3.0238,3.0678,3.1132,3.1593,3.1951,3.2497,3.2878,3.2095,3.178,3.1951,3.1697,3.2028,3.2669,3.3066,3.3464,3.3854,3.4527,3.5204,3.5839,3.6249,3.6232,3.5997,3.6003,3.5759,3.5495,3.5671,3.6007,3.6528,3.6676,3.6932,3.6863,3.7613,3.7915,3.8055,3.8158,3.8192,3.8209,3.8209,3.8209,3.8209,3.8209,3.8257,3.8385,3.8624,3.8829,3.9078,3.9296,3.9458,3.9564,3.9608,3.9608,3.9608,3.9608,3.9608,3.9646,4.0002,4.0434,4.1061,4.2033,4.3284,4.422,4.4732,4.5061,4.5173,4.5203,4.5235,4.5267,4.5277,4.5277,4.5297,4.5317,4.54,4.5467,4.5601,4.5715,4.5673,4.5689,4.58,4.573,4.5006,4.4481,4.4248,4.4035,4.3724,4.3161,4.2636,4.2408,4.2175,4.1626,4.114,4.1024,4.0907,4.1451,4.1568,4.184,4.2228,4.2636,4.2578,4.2345,4.2034,4.2058,4.2189,4.2287,4.2015,4.182,4.1646,4.1451,4.1179,4.0946,4.0927,4.0888,3.0468,2.9968,2.9929,3.0044,3.0274,3.0426,3.0803,3.13,3.1548,3.1912,3.215,3.1813,3.1515,3.135,3.1333,3.1515,3.21,3.252,3.3067,3.3634,3.4426,3.5273,3.5981,3.6416,3.6349,3.581,3.5862,3.5656,3.5447,3.5431,3.5928,3.673,3.6789,3.6899,3.7416,3.7843,3.8055,3.8175,3.8192,3.8209,3.8209,3.8209,3.8209,3.8209,3.8225,3.8289,3.851,3.8758,3.8979,3.9183,3.9432,3.9577,3.9608,3.9608,3.9608,3.9608,3.9608,3.9608,3.9833,4.0228,4.0791,4.1613,4.2718,4.4213,4.4798,4.5125,4.517,4.5267,4.5267,4.5286,4.5277,4.5277,4.5277,4.5317,4.5359,4.5485,4.5618,4.5708,4.5783,4.5796,4.5819,4.5903,4.5633,4.487,4.4443,4.4287,4.4132,4.4074,4.3782,4.336,4.3282,4.3243,4.2597,4.2112,4.1879,4.1781,4.2053,4.2228,4.252,4.2753,4.318,4.3433,4.3394,4.3049,4.2602,4.2311,4.2325,4.1587,4.0907,4.1063,4.116,4.1043,4.0907,4.0931,4.0941,3.1393,3.1133,3.0446,3.0295,3.0447,3.0468,3.0522,3.0737,3.1333,3.1631,3.1763,3.1631,3.1333,3.0803,3.0787,3.082,3.0787,3.2083,3.279,3.3703,3.4861,3.5758,3.6333,3.6586,3.658,3.5985,3.5865,3.5891,3.5844,3.5474,3.5385,3.5297,3.6702,3.7039,3.7392,3.7837,3.8105,3.8209,3.8209,3.8209,3.8209,3.8209,3.8209,3.8209,3.8225,3.8307,3.8494,3.8773,3.9054,3.9242,3.947,3.9589,3.9608,3.9608,3.9608,3.9608,3.9608,3.9677,3.9971,4.0585,4.1318,4.2359,4.3644,4.4829,4.5098,4.5243,4.5286,4.5277,4.5277,4.5277,4.5277,4.5277,4.5277,4.5317,4.536,4.5467,4.5599,4.5776,4.584,4.5912,4.5949,4.5986,4.5982,4.5341,4.5161,4.5045,4.5084,4.5045,4.522,4.4933,4.4836,4.4603,4.3899,4.3452,4.3258,4.318,4.3025,4.3258,4.3607,4.3666,4.3782,4.3996,4.4384,4.386,4.3374,4.285,4.2354,4.1956,4.1548,4.1087,4.0912,4.1008,4.1153,4.1278,4.1232,3.1818,3.1418,3.0698,3.0443,3.0489,3.0489,3.0489,3.0621,3.1267,3.1598,3.1615,3.1995,3.162,3.087,3.0986,3.0903,3.0688,3.152,3.2438,3.3414,3.4551,3.5675,3.6281,3.6756,3.6831,3.6482,3.6207,3.6001,3.6004,3.5936,3.6076,3.6413,3.6984,3.7338,3.7639,3.7941,3.8138,3.8209,3.8209,3.8209,3.8209,3.8209,3.8209,3.8209,3.8209,3.8403,3.868,3.8833,3.9106,3.9367,3.954,3.9577,3.9608,3.9608,3.962,3.962,3.9602,3.9895,4.0483,4.1229,4.2322,4.3763,4.4676,4.5136,4.5192,4.5275,4.5297,4.5277,4.5277,4.5277,4.5277,4.5277,4.5288,4.5317,4.538,4.5485,4.5607,4.5771,4.5899,4.5949,4.5958,4.5997,4.5982,4.5924,4.5885,4.5885,4.5963,4.6021,4.6118,4.6196,4.6002,4.588,4.5239,4.4851,4.4656,4.4307,4.3957,4.4326,4.4734,4.4676,4.4695,4.5084,4.5283,4.4715,4.4142,4.3632,4.3136,4.2682,4.2114,4.1464,4.122,4.1221,4.1404,4.1723,4.1777,3.1956,3.1797,3.0903,3.0489,3.0489,3.0489,3.0489,3.0588,3.1019,3.1283,3.13,3.1785,3.1537,3.087,3.0936,3.1201,3.1144,3.1831,3.2777,3.3859,3.498,3.5821,3.6455,3.6851,3.6993,3.6911,3.6496,3.6165,3.6773,3.6699,3.6855,3.7014,3.7191,3.7655,3.7959,3.8209,3.8209,3.8209,3.8209,3.8209,3.8209,3.8209,3.8209,3.8225,3.8274,3.8499,3.8803,3.8979,3.9221,3.9464,3.9608,3.9608,3.9608,3.962,3.9614,3.9619,3.9738,4.0106,4.1012,4.2203,4.3372,4.4619,4.5022,4.5222,4.5275,4.5277,4.5277,4.5277,4.5277,4.5277,4.5277,4.5277,4.5277,4.5317,4.5457,4.5584,4.568,4.5814,4.5905,4.5975,4.5997,4.6041,4.6235,4.6274,4.6332,4.6235,4.6002,4.6235,4.6638,4.6735,4.6793,4.6715,4.656,4.6288,4.6055,4.5822,4.5627,4.5647,4.5919,4.5725,4.5802,4.6079,4.6017,4.5473,4.4919,4.4398,4.4007,4.3701,4.2735,4.1669,4.1782,4.2077,4.2334,4.2672,4.2708,3.1775,3.2448,3.1118,3.0539,3.0506,3.0489,3.0489,3.0506,3.0588,3.0621,3.0671,3.082,3.0808,3.0659,3.0978,3.139,3.1753,3.2676,3.3719,3.4757,3.5638,3.649,3.6796,3.6989,3.7068,3.7045,3.6768,3.688,3.7685,3.7232,3.7388,3.778,3.7923,3.803,3.8192,3.8209,3.8209,3.8209,3.8209,3.8209,3.8209,3.8209,3.8209,3.8242,3.8352,3.8606,3.8848,3.9045,3.9301,3.954,3.9608,3.9608,3.9608,3.9614,3.9644,3.9689,3.9788,4.031,4.1256,4.2905,4.417,4.4965,4.5203,4.5275,4.5297,4.5277,4.5277,4.5277,4.5277,4.5277,4.5277,4.5277,4.5277,4.5339,4.5495,4.5616,4.5719,4.5861,4.5953,4.6108,4.6094,4.6094,4.6404,4.6618,4.6696,4.656,4.6157,4.641,4.7104,4.7589,4.7803,4.7997,4.8017,4.7958,4.7764,4.7473,4.7298,4.7259,4.7065,4.6818,4.6478,4.6386,4.627,4.6046,4.5674,4.5157,4.4966,4.4777,4.39,4.316,4.3056,4.326,4.3475,4.3601,4.3618,3.1556,3.1912,3.1432,3.0952,3.0539,3.0489,3.0489,3.0489,3.0489,3.0489,3.0721,3.1437,3.1321,3.1182,3.2055,3.2529,3.2328,3.3706,3.4808,3.5269,3.6156,3.6603,3.6911,3.7027,3.7124,3.7243,3.7109,3.7238,3.7845,3.7589,3.7781,3.8156,3.8209,3.8209,3.8209,3.8209,3.8209,3.8209,3.8209,3.8209,3.8209,3.8209,3.8209,3.8209,3.8401,3.8649,3.8892,3.912,3.9349,3.9564,3.9608,3.9608,3.9614,3.9619,3.9696,3.9917,4.0197,4.1438,4.2726,4.4157,4.4862,4.5169,4.5246,4.5277,4.5277,4.5277,4.5277,4.5277,4.5277,4.5277,4.5277,4.5277,4.5288,4.5329,4.5448,4.5582,4.57,4.5873,4.6016,4.6249,4.6327,4.7065,4.7531,4.7686,4.7725,4.7881,4.7667,4.7609,4.8133,4.8799,4.9207,4.9493,4.9609,4.9609,4.9454,4.8988,4.845,4.8169,4.7975,4.7766,4.7402,4.698,4.6701,4.6598,4.6279,4.5935,4.5514,4.5184,4.5221,4.4914,4.449,4.4292,4.4453,4.4538,4.4547,3.0863,3.1217,3.1217,3.0952,3.0522,3.0489,3.0489,3.0489,3.0489,3.0489,3.0704,3.152,3.162,3.1561,3.2517,3.3763,3.3039,3.4326,3.539,3.5781,3.6388,3.6776,3.6968,3.7085,3.7239,3.741,3.7594,3.7828,3.8021,3.8123,3.8174,3.8174,3.8209,3.8209,3.8209,3.8209,3.8209,3.8209,3.8209,3.8209,3.8209,3.8209,3.8209,3.829,3.8465,3.8743,3.8917,3.9161,3.9419,3.9571,3.962,3.962,3.9645,3.9679,3.9868,4.0333,4.154,4.2664,4.3759,4.4671,4.5152,4.5277,4.5277,4.5277,4.5277,4.5277,4.5277,4.5277,4.5277,4.5277,4.5277,4.5277,4.5319,4.536,4.5495,4.5624,4.5803,4.5993,4.6424,4.6618,4.722,4.7978,4.8599,4.8832,4.893,4.9104,4.926,4.9207,4.9091,4.9582,5.0131,5.0409,5.0573,5.0476,5.0412,5.0289,4.9737,4.9137,4.889,4.8739,4.8258,4.7817,4.747,4.7141,4.6957,4.6618,4.5863,4.5547,4.5746,4.5707,4.5391,4.5315,4.5441,4.5382,4.5324,2.9827,3.0439,3.0522,3.0572,3.0506,3.0489,3.0489,3.0489,3.0489,3.0489,3.0539,3.0671,3.1052,3.1618,3.2211,3.3157,3.4215,3.5101,3.5827,3.6368,3.6776,3.6968,3.7048,3.7201,3.7372,3.7594,3.7775,3.7934,3.8175,3.8192,3.8192,3.8209,3.8209,3.8209,3.8209,3.8209,3.8209,3.8209,3.8209,3.8317,3.8444,3.8281,3.8369,3.852,3.8863,3.8962,3.9175,3.9445,3.9608,3.9677,3.962,3.9639,3.9688,3.9722,4.0378,4.1464,4.3044,4.363,4.4234,4.5029,4.5201,4.5277,4.5277,4.5277,4.5277,4.5277,4.5277,4.5277,4.5277,4.5277,4.5277,4.5309,4.535,4.5457,4.5601,4.577,4.5989,4.6337,4.6874,4.7395,4.8114,4.8794,4.9202,4.9512,4.9848,5.0023,5.0126,5.0162,5.0045,4.9948,5.0464,5.0903,5.1047,5.1109,5.107,5.0906,5.0689,4.998,4.9897,4.9693,4.9168,4.87,4.8406,4.8128,4.7842,4.7348,4.662,4.6353,4.6435,4.6298,4.6023,4.5986,4.6007,4.5987,4.5968,2.9687,3.0539,3.1052,3.0969,3.0522,3.0489,3.0489,3.0489,3.0489,3.0489,3.0522,3.1068,3.1338,3.1707,3.3351,3.4155,3.4998,3.5861,3.6492,3.6858,3.6895,3.7068,3.7182,3.7297,3.7503,3.7721,3.7899,3.8021,3.8158,3.8209,3.8209,3.8209,3.8209,3.8209,3.8209,3.8227,3.8245,3.8299,3.8317,3.8571,3.8698,3.8535,3.8746,3.9161,3.9467,3.9508,3.9514,4.008,4.0215,3.9808,3.9712,3.9854,4.0594,4.0817,4.1417,4.3016,4.3833,4.4216,4.4819,4.5144,4.5277,4.5277,4.5277,4.5277,4.5277,4.5277,4.5277,4.5277,4.5277,4.5277,4.5277,4.5309,4.537,4.5522,4.5651,4.5788,4.6054,4.6542,4.7137,4.8211,4.8949,4.9629,5.0017,5.0289,5.06,5.0806,5.09,5.0903,5.086,5.0685,5.0709,5.1133,5.1254,5.1245,5.1249,5.1123,5.1078,5.0917,5.0722,5.0482,5.0017,4.9594,4.9352,4.8989,4.8545,4.8005,4.7389,4.7295,4.7373,4.6866,4.6591,4.6573,4.6534,4.6397,4.6302,2.9151,2.9798,3.0754,3.0903,3.0539,3.0489,3.0489,3.0489,3.0489,3.0489,3.0539,3.0919,3.1402,3.198,3.3205,3.4113,3.4688,3.5732,3.6406,3.6459,3.6904,3.7089,3.7239,3.7391,3.7612,3.7828,3.7986,3.8107,3.8175,3.8209,3.8209,3.8209,3.8209,3.8209,3.8209,3.8245,3.8444,3.8589,3.877,3.8988,3.9024,3.8988,3.9395,3.9971,4.024,4.0077,4.0235,4.0974,4.0923,4.0685,4.0681,4.0918,4.1657,4.2047,4.2529,4.3899,4.4388,4.4743,4.5144,4.522,4.5277,4.5277,4.5277,4.5277,4.5277,4.5277,4.5277,4.5277,4.5277,4.5277,4.5277,4.5309,4.5429,4.5566,4.5657,4.5764,4.6197,4.6701,4.7695,4.8871,4.9726,5.0464,5.0911,5.1125,5.1194,5.1125,5.1098,5.1132,5.1126,5.1096,5.1038,5.1237,5.128,5.1284,5.1288,5.1288,5.1238,5.1191,5.1156,5.092,5.0642,5.0399,5.0072,4.963,4.9126,4.8584,4.8037,4.8271,4.8291,4.7686,4.7081,4.6905,4.669,4.6358,4.6302,2.831,2.8459,2.9831,3.0456,3.0489,3.0489,3.0489,3.0489,3.0489,3.0489,3.0506,3.0506,3.1141,3.2001,3.276,3.349,3.4382,3.5463,3.6022,3.5881,3.6749,3.7164,3.7372,3.7539,3.7775,3.7934,3.8073,3.8158,3.8192,3.8209,3.8209,3.8209,3.8209,3.8209,3.8209,3.8209,3.8517,3.9097,3.9369,3.9641,3.9712,3.9747,3.9958,4.0771,4.0858,4.0766,4.1451,4.1924,4.2139,4.2153,4.2188,4.2191,4.2735,4.3387,4.3933,4.4243,4.4789,4.5048,4.5239,4.5277,4.5277,4.5277,4.5277,4.5277,4.5277,4.5277,4.5277,4.5277,4.5277,4.5277,4.5277,4.5309,4.5419,4.5701,4.5912,4.5942,4.6104,4.6996,4.84,4.9473,5.0289,5.0969,5.1066,5.1202,5.1206,5.1205,5.123,5.128,5.1308,5.1319,5.1323,5.1319,5.133,5.1336,5.133,5.133,5.1353,5.134,5.1366,5.1341,5.1047,5.09,5.077,5.0379,4.9969,4.9247,4.8798,4.9169,4.9111,4.8174,4.7627,4.7276,4.6905,4.6534,4.6302,2.7564,2.7696,2.9085,2.9976,3.0456,3.0489,3.0489,3.0489,3.0489,3.0489,3.0489,3.058,3.1083,3.2026,3.2412,3.31,3.4131,3.4941,3.565,3.5974,3.6578,3.7032,3.7468,3.756,3.7862,3.809,3.8192,3.8209,3.8209,3.8209,3.8209,3.8209,3.8209,3.8209,3.8209,3.8227,3.8608,3.9478,3.9912,4.051,4.1035,4.0882,4.0993,4.177,4.2057,4.194,4.2435,4.2778,4.2605,4.2385,4.2454,4.2843,4.359,4.4461,4.4894,4.5029,4.5125,4.5239,4.5277,4.5277,4.5277,4.5277,4.5277,4.5277,4.5277,4.5277,4.5277,4.5277,4.5277,4.5277,4.5298,4.5329,4.5419,4.5797,4.6225,4.6164,4.6161,4.7603,4.9124,4.9998,5.0814,5.1066,5.1183,5.122,5.1217,5.124,5.1267,5.1304,5.1343,5.1358,5.1366,5.1369,5.1377,5.1377,5.1366,5.1361,5.138,5.138,5.1386,5.1379,5.1392,5.1236,5.1063,5.1141,5.0848,5.0067,4.9813,5.0418,5.0106,4.8953,4.8388,4.8096,4.7354,4.6866,4.6534,2.7317,2.7481,2.882,2.9628,3.0009,3.0357,3.0489,3.0489,3.0489,3.0589,3.0695,3.079,3.1214,3.1947,3.2235,3.265,3.3552,3.4332,3.462,3.5116,3.5932,3.6523,3.697,3.7379,3.777,3.8013,3.8174,3.8209,3.8209,3.8209,3.8209,3.8209,3.8209,3.8209,3.8209,3.8264,3.8753,3.9858,4.0311,4.1125,4.205,4.1934,4.2009,4.2754,4.2909,4.2913,4.3466,4.3812,4.3737,4.3651,4.3816,4.4018,4.4539,4.4961,4.522,4.5239,4.5258,4.5277,4.5277,4.5277,4.5277,4.5277,4.5277,4.5277,4.5277,4.5277,4.5277,4.5277,4.5277,4.5277,4.5338,4.536,4.5485,4.5759,4.6568,4.6985,4.7653,4.8852,4.9881,5.0581,5.1092,5.1147,5.1211,5.1214,5.1225,5.1312,5.1342,5.1336,5.1366,5.1399,5.1388,5.1394,5.1394,5.1394,5.1386,5.1381,5.1381,5.1381,5.1401,5.1386,5.1392,5.1394,5.1375,5.118,5.1023,5.0789,5.0789,5.1082,5.0748,4.9675,4.9265,4.9013,4.8152,4.7373,4.718,2.7317,2.7497,2.8605,2.9248,2.9479,3.0059,3.039,3.0489,3.0489,3.0716,3.1035,3.1075,3.1428,3.173,3.1912,3.2144,3.2652,3.3564,3.3759,3.4129,3.4783,3.5686,3.6359,3.6764,3.7458,3.7959,3.8174,3.8209,3.8209,3.8209,3.8209,3.8209,3.8209,3.8209,3.8209,3.8354,3.8807,3.9804,4.0545,4.145,4.2102,4.2659,4.301,4.3241,4.3453,4.3723,4.4374,4.4745,4.4852,4.4919,4.4925,4.4998,4.5067,4.522,4.5239,4.5277,4.5277,4.5277,4.5277,4.5277,4.5277,4.5277,4.5277,4.5277,4.5277,4.5277,4.5277,4.5277,4.5277,4.5298,4.5359,4.5429,4.5558,4.592,4.6832,4.7992,4.9025,4.9848,5.0386,5.1027,5.1167,5.1203,5.1205,5.1206,5.128,5.1356,5.1403,5.1396,5.1386,5.1386,5.1392,5.1394,5.1394,5.1394,5.1394,5.1392,5.139,5.139,5.1388,5.1392,5.1394,5.1394,5.1238,5.0867,5.0729,5.0906,5.0965,5.1102,5.0651,5.0299,4.987,4.948,4.8954,4.8271,4.806,2.7317,2.735,2.7613,2.8323,2.9301,2.9562,2.9943,3.0439,3.0472,3.0838,3.1235,3.1408,3.1617,3.1894,3.1894,3.209,3.2459,3.309,3.353,3.3934,3.4585,3.5236,3.5976,3.6811,3.7453,3.7902,3.8209,3.8209,3.8209,3.8209,3.8209,3.8209,3.8209,3.8209,3.8209,3.839,3.8734,3.9695,4.0473,4.1251,4.2295,4.2921,4.3592,4.3903,4.4161,4.4378,4.4667,4.4815,4.4931,4.5072,4.5213,4.5267,4.5277,4.5277,4.5277,4.5277,4.5277,4.5277,4.5277,4.5277,4.5277,4.5277,4.5277,4.5277,4.5277,4.5277,4.5277,4.5277,4.5277,4.5277,4.5329,4.5448,4.5603,4.6244,4.7023,4.8722,5.0122,5.0231,5.0392,5.0875,5.1189,5.1215,5.124,5.1248,5.1308,5.1388,5.14,5.1396,5.139,5.1392,5.1394,5.1394,5.1394,5.1394,5.1394,5.1394,5.1392,5.1394,5.1394,5.1394,5.1394,5.1394,5.1199,5.0984,5.1043,5.1219,5.1258,5.118,5.116,5.0848,5.0338,4.987,4.9421,4.913,4.886]}]]